[[{"header":{"parameterUnit":"m.s-1","parameterCategory":1,"la1":30.6,"la2":28.766,"lo1":-90.7593,"lo2":-88.6598,"dy":0.0162,"dx":0.0183,"nx":116,"ny":114,"refTime":"2024-05-20T12:00:00:Z","depth":0,"parameterNumber":2,"parameterNumberName":"U-component_of_WINDS"},"data":[0.0,0.0,0.0,0.0,0.0,0.0,0.0,0.0,0.0,0.0,0.0,0.0,0.0,0.0,0.0,0.0,0.0,0.0,0.0,0.0,0.0,0.0,0.0,0.0,0.0,0.0,0.0,0.0,0.0,0.0,0.0,0.0,0.0,0.0,0.0,0.0,0.0,0.0,0.0,0.0,0.0,0.0,0.0,0.0,0.0,0.0,0.0,0.0,0.0,0.0,0.0,0.0,0.0,0.0,0.0,0.0,0.0,0.0,0.0,0.0,0.0,0.0,0.0,0.0,0.0,0.0,0.0,0.0,0.0,0.0,0.0,0.0,0.0,0.0,0.0,0.0,0.0,0.0,0.0,0.0,0.0,0.0,0.0,0.0,0.0,0.0,0.0,0.0,0.0,0.0,0.0,0.0,0.0,0.0,0.0,0.0,0.0,0.0,0.0,0.0,0.0,0.0,0.0,0.0,0.0,0.0,0.0,0.0,0.0,0.0,0.0,0.0,0.0,0.0,0.0,0.0,0.0,0.0,0.0,0.0,0.0,0.0,0.0,0.0,0.0,0.0,0.0,0.0,0.0,0.0,0.0,0.0,0.0,0.0,0.0,0.0,0.0,0.0,0.0,0.0,0.0,0.0,0.0,0.0,0.0,0.0,0.0,0.0,0.0,0.0,0.0,0.0,0.0,0.0,0.0,0.0,0.0,0.0,0.0,0.0,0.0,0.0,0.0,0.0,0.0,0.0,0.0,0.0,0.0,0.0,0.0,0.0,0.0,0.0,0.0,0.0,0.0,0.0,0.0,0.0,0.0,0.0,0.0,0.0,0.0,0.0,0.0,0.0,0.0,0.0,0.0,0.0,0.0,0.0,0.0,0.0,0.0,0.0,0.0,0.0,0.0,0.0,0.0,0.0,0.0,0.0,0.0,0.0,0.0,0.0,0.0,0.0,0.0,0.0,0.0,0.0,0.0,0.0,0.0,0.0,0.0,0.0,0.0,0.0,0.0,0.0,0.0,0.0,0.0,0.0,0.0,0.0,0.0,0.0,0.0,0.0,0.0,0.0,0.0,0.0,0.0,0.0,0.0,0.0,0.0,0.0,0.0,0.0,0.0,0.0,0.0,0.0,0.0,0.0,0.0,0.0,0.0,0.0,0.0,0.0,0.0,0.0,0.0,0.0,0.0,0.0,0.0,0.0,0.0,0.0,0.0,0.0,0.0,0.0,0.0,0.0,0.0,0.0,0.0,0.0,0.0,0.0,0.0,0.0,0.0,0.0,0.0,0.0,0.0,0.0,0.0,0.0,0.0,0.0,0.0,0.0,0.0,0.0,0.0,0.0,0.0,0.0,0.0,0.0,0.0,0.0,0.0,0.0,0.0,0.0,0.0,0.0,0.0,0.0,0.0,0.0,0.0,0.0,0.0,0.0,0.0,0.0,0.0,0.0,0.0,0.0,0.0,0.0,0.0,0.0,0.0,0.0,0.0,0.0,0.0,0.0,0.0,0.0,0.0,0.0,0.0,0.0,0.0,0.0,0.0,0.0,0.0,0.0,0.0,0.0,0.0,0.0,0.0,0.0,0.0,0.0,0.0,0.0,0.0,0.0,0.0,0.0,0.0,0.0,0.0,0.0,0.0,0.0,0.0,0.0,0.0,0.0,0.0,0.0,0.0,0.0,0.0,0.0,0.0,0.0,0.0,0.0,0.0,0.0,0.0,0.0,0.0,0.0,0.0,0.0,0.0,0.0,0.0,0.0,0.0,0.0,0.0,0.0,0.0,0.0,0.0,0.0,0.0,0.0,0.0,0.0,0.0,0.0,0.0,0.0,0.0,0.0,0.0,0.0,0.0,0.0,0.0,0.0,0.0,0.0,0.0,0.0,0.0,0.0,0.0,0.0,0.0,0.0,0.0,0.0,0.0,0.0,0.0,0.0,0.0,0.0,0.0,0.0,0.0,0.0,0.0,0.0,0.0,0.0,0.0,0.0,0.0,0.0,0.0,0.0,0.0,0.0,0.0,0.0,0.0,0.0,0.0,0.0,0.0,0.0,0.0,0.0,0.0,0.0,0.0,0.0,0.0,0.0,0.0,0.0,0.0,0.0,0.0,0.0,0.0,0.0,0.0,0.0,0.0,0.0,0.0,0.0,0.0,0.0,0.0,0.0,0.0,0.0,0.0,0.0,0.0,0.0,0.0,0.0,0.0,0.0,0.0,0.0,0.0,0.0,0.0,0.0,0.0,0.0,0.0,0.0,0.0,0.0,0.0,0.0,0.0,0.0,0.0,0.0,0.0,0.0,0.0,0.0,0.0,0.0,0.0,0.0,0.0,0.0,0.0,0.0,0.0,0.0,0.0,0.0,0.0,0.0,0.0,0.0,0.0,0.0,0.0,0.0,0.0,0.0,0.0,0.0,0.0,0.0,0.0,0.0,0.0,0.0,0.0,0.0,0.0,0.0,0.0,0.0,0.0,0.0,0.0,0.0,0.0,0.0,0.0,0.0,0.0,0.0,0.0,0.0,0.0,0.0,0.0,0.0,0.0,0.0,0.0,0.0,0.0,0.0,0.0,0.0,0.0,0.0,0.0,0.0,0.0,0.0,0.0,0.0,0.0,0.0,0.0,0.0,0.0,0.0,0.0,0.0,0.0,0.0,0.0,0.0,0.0,0.0,0.0,0.0,0.0,0.0,0.0,0.0,0.0,0.0,0.0,0.0,0.0,0.0,0.0,0.0,0.0,0.0,0.0,0.0,0.0,0.0,0.0,0.0,0.0,0.0,0.0,0.0,0.0,0.0,0.0,0.0,0.0,0.0,0.0,0.0,0.0,0.0,0.0,0.0,0.0,0.0,0.0,0.0,0.0,0.0,0.0,0.0,0.0,0.0,0.0,0.0,0.0,0.0,0.0,0.0,0.0,0.0,0.0,0.0,0.0,0.0,0.0,0.0,0.0,0.0,0.0,0.0,0.0,0.0,0.0,0.0,0.0,0.0,0.0,0.0,0.0,0.0,0.0,0.0,0.0,0.0,0.0,0.0,0.0,0.0,0.0,0.0,0.0,0.0,0.0,0.0,0.0,0.0,0.0,0.0,0.0,0.0,0.0,0.0,0.0,0.0,0.0,0.0,0.0,0.0,0.0,0.0,0.0,0.0,0.0,0.0,0.0,0.0,0.0,0.0,0.0,0.0,0.0,0.0,0.0,0.0,0.0,0.0,0.0,0.0,0.0,0.0,0.0,0.0,0.0,0.0,0.0,0.0,0.0,0.0,0.0,0.0,0.0,0.0,0.0,0.0,0.0,0.0,0.0,0.0,0.0,0.0,0.0,0.0,0.0,0.0,0.0,0.0,0.0,0.0,0.0,0.0,0.0,0.0,0.0,0.0,0.0,0.0,0.0,0.0,0.0,0.0,0.0,0.0,0.0,0.0,0.0,0.0,0.0,0.0,0.0,0.0,0.0,0.0,0.0,0.0,0.0,0.0,0.0,0.0,0.0,0.0,0.0,0.0,0.0,0.0,0.0,0.0,0.0,0.0,0.0,0.0,0.0,0.0,0.0,0.0,0.0,0.0,0.0,0.0,0.0,0.0,0.0,0.0,0.0,0.0,0.0,0.0,0.0,0.0,0.0,0.0,0.0,0.0,0.0,0.0,0.0,0.0,0.0,0.0,0.0,0.0,0.0,0.0,0.0,0.0,0.0,0.0,0.0,0.0,0.0,0.0,0.0,0.0,0.0,0.0,0.0,0.0,0.0,0.0,0.0,0.0,0.0,0.0,0.0,0.0,0.0,0.0,0.0,0.0,0.0,0.0,0.0,0.0,0.0,0.0,0.0,0.0,0.0,0.0,0.0,0.0,0.0,0.0,0.0,0.0,0.0,0.0,0.0,0.0,0.0,0.0,0.0,0.0,0.0,0.0,0.0,0.0,0.0,0.0,0.0,0.0,0.0,0.0,0.0,0.0,0.0,0.0,0.0,0.0,0.0,0.0,0.0,0.0,0.0,0.0,0.0,0.0,0.0,0.0,0.0,0.0,0.0,0.0,0.0,0.0,0.0,0.0,0.0,0.0,0.0,0.0,0.0,0.0,0.0,0.0,0.0,0.0,0.0,0.0,0.0,0.0,0.0,0.0,0.0,0.0,0.0,0.0,0.0,0.0,0.0,0.0,0.0,0.0,0.0,0.0,0.0,0.0,0.0,0.0,0.0,0.0,0.0,0.0,0.0,0.0,0.0,0.0,0.0,0.0,0.0,0.0,0.0,0.0,0.0,0.0,0.0,0.0,0.0,0.0,0.0,0.0,0.0,0.0,0.0,0.0,0.0,0.0,0.0,0.0,0.0,0.0,0.0,0.0,0.0,0.0,0.0,0.0,0.0,0.0,0.0,0.0,0.0,0.0,0.0,0.0,0.0,0.0,0.0,0.0,0.0,0.0,0.0,0.0,0.0,0.0,0.0,0.0,0.0,0.0,0.0,0.0,0.0,0.0,0.0,0.0,0.0,0.0,0.0,0.0,0.0,0.0,0.0,0.0,0.0,0.0,0.0,0.0,0.0,0.0,0.0,0.0,0.0,0.0,0.0,0.0,0.0,0.0,0.0,0.0,0.0,0.0,0.0,0.0,0.0,0.0,0.0,0.0,0.0,0.0,0.0,0.0,0.0,0.0,0.0,0.0,0.0,0.0,0.0,0.0,0.0,0.0,0.0,0.0,0.0,0.0,0.0,0.0,0.0,0.0,0.0,0.0,0.0,0.0,0.0,0.0,0.0,0.0,0.0,0.0,0.0,0.0,0.0,0.0,0.0,0.0,0.0,0.0,0.0,0.0,0.0,0.0,0.0,0.0,0.0,0.0,0.0,0.0,0.0,0.0,0.0,0.0,0.0,0.0,0.0,0.0,0.0,0.0,0.0,0.0,0.0,0.0,0.0,0.0,0.0,0.0,0.0,0.0,0.0,0.0,0.0,0.0,0.0,0.0,0.0,0.0,0.0,0.0,0.0,0.0,0.0,0.0,0.0,0.0,0.0,0.0,0.0,0.0,0.0,0.0,0.0,0.0,0.0,0.0,0.0,0.0,0.0,0.0,0.0,0.0,0.0,0.0,0.0,0.0,0.0,0.0,0.0,0.0,0.0,0.0,0.0,0.0,0.0,0.0,0.0,0.0,0.0,0.0,0.0,0.0,0.0,0.0,0.0,0.0,0.0,0.0,0.0,0.0,0.0,0.0,0.0,0.0,0.0,0.0,0.0,0.0,0.0,0.0,0.0,0.0,0.0,0.0,0.0,0.0,0.0,0.0,0.0,0.0,0.0,0.0,0.0,0.0,0.0,0.0,0.0,0.0,0.0,0.0,0.0,0.0,0.0,0.0,0.0,0.0,0.0,0.0,0.0,0.0,0.0,0.0,0.0,0.0,0.0,0.0,0.0,0.0,0.0,0.0,0.0,0.0,0.0,0.0,0.0,0.0,0.0,0.0,0.0,0.0,0.0,0.0,0.0,0.0,0.0,0.0,0.0,0.0,0.0,0.0,0.0,0.0,0.0,0.0,0.0,0.0,0.0,0.0,0.0,0.0,0.0,0.0,0.0,0.0,0.0,0.0,0.0,0.0,0.0,0.0,0.0,0.0,0.0,0.0,0.0,0.0,0.0,0.0,0.0,0.0,0.0,0.0,0.0,0.0,0.0,0.0,0.0,0.0,0.0,0.0,0.0,0.0,0.0,0.0,0.0,0.0,0.0,0.0,0.0,0.0,0.0,0.0,0.0,0.0,0.0,0.0,0.0,0.0,0.0,0.0,0.0,0.0,0.0,0.0,0.0,0.0,0.0,0.0,0.0,0.0,0.0,0.0,0.0,0.0,0.0,0.0,0.0,0.0,0.0,0.0,0.0,0.0,0.0,0.0,0.0,0.0,0.0,0.0,0.0,0.0,0.0,0.0,0.0,0.0,0.0,0.0,0.0,0.0,0.0,0.0,0.0,0.0,0.0,0.0,0.0,0.0,0.0,0.0,0.0,0.0,0.0,0.0,0.0,0.0,0.0,0.0,0.0,0.0,0.0,0.0,0.0,0.0,0.0,0.0,0.0,0.0,0.0,0.0,0.0,0.0,0.0,0.0,0.0,0.0,0.0,0.0,0.0,0.0,-3.91,0.0,0.0,0.0,0.0,0.0,0.0,0.0,0.0,0.0,0.0,0.0,0.0,0.0,0.0,0.0,0.0,0.0,0.0,0.0,0.0,0.0,0.0,0.0,0.0,-2.7799,-2.8607,-2.8607,-2.9475,-3.0163,-3.0477,0.0,0.0,0.0,0.0,0.0,-2.8083,-2.7331,-2.7248,-2.7932,-2.7787,-2.7911,-2.8328,-2.8717,-2.8252,-2.71,0.0,0.0,0.0,0.0,0.0,0.0,0.0,0.0,0.0,0.0,0.0,0.0,0.0,0.0,0.0,0.0,0.0,0.0,0.0,0.0,0.0,0.0,0.0,0.0,0.0,0.0,0.0,0.0,0.0,0.0,0.0,0.0,0.0,0.0,0.0,0.0,0.0,0.0,0.0,0.0,0.0,0.0,0.0,0.0,0.0,0.0,0.0,0.0,0.0,0.0,0.0,0.0,0.0,0.0,0.0,0.0,0.0,0.0,0.0,0.0,0.0,0.0,0.0,0.0,0.0,0.0,0.0,0.0,0.0,0.0,0.0,-3.8695,0.0,0.0,0.0,0.0,0.0,0.0,0.0,0.0,0.0,0.0,0.0,0.0,0.0,0.0,0.0,0.0,0.0,0.0,0.0,0.0,0.0,-2.5854,-2.6512,-2.7799,-2.8652,-2.8757,-2.9709,-3.034,-3.0459,-3.0317,0.0,0.0,0.0,-2.8281,-2.8316,-2.7032,-2.701,-2.8352,-2.8236,-2.8833,-3.0098,-3.0192,-2.9082,-2.6989,-2.7632,0.0,0.0,0.0,0.0,0.0,0.0,0.0,0.0,0.0,0.0,0.0,0.0,0.0,0.0,0.0,0.0,0.0,0.0,0.0,0.0,0.0,0.0,0.0,0.0,0.0,0.0,0.0,0.0,0.0,0.0,0.0,0.0,0.0,0.0,0.0,0.0,0.0,0.0,0.0,0.0,0.0,0.0,0.0,0.0,0.0,0.0,0.0,0.0,0.0,0.0,0.0,0.0,0.0,0.0,0.0,0.0,0.0,0.0,0.0,0.0,0.0,0.0,0.0,-3.9749,-3.9851,-3.9276,-3.9614,-3.9512,-3.9122,-4.0282,-4.0371,-3.9692,-3.9725,0.0,0.0,0.0,0.0,0.0,0.0,0.0,0.0,0.0,0.0,0.0,0.0,0.0,0.0,0.0,0.0,0.0,0.0,0.0,-2.5854,-2.6512,-2.7799,-2.8831,-2.9427,-2.9459,-2.971,-3.029,-2.9624,0.0,0.0,-2.8102,-2.7781,-2.7232,-2.7012,-2.7487,-2.8642,-2.9345,-2.9587,-2.9372,-2.9836,-2.9618,-2.8855,-2.9119,-2.8699,-2.7783,0.0,0.0,0.0,0.0,0.0,0.0,0.0,0.0,0.0,0.0,0.0,0.0,0.0,0.0,0.0,0.0,0.0,0.0,0.0,0.0,0.0,0.0,0.0,0.0,0.0,0.0,0.0,0.0,0.0,0.0,0.0,0.0,0.0,0.0,0.0,0.0,0.0,0.0,0.0,0.0,0.0,-3.5514,-3.6214,0.0,0.0,0.0,0.0,0.0,0.0,0.0,0.0,0.0,0.0,0.0,0.0,0.0,-3.9276,-4.046,-4.1922,-4.2665,-4.2682,-4.4147,-4.4773,-4.4637,-4.3403,-4.3149,-4.3616,-4.1877,0.0,-4.0076,-4.0543,0.0,0.0,0.0,0.0,0.0,0.0,0.0,0.0,0.0,0.0,0.0,0.0,0.0,0.0,0.0,0.0,0.0,0.0,0.0,0.0,0.0,-2.7975,-2.9262,-2.9169,-3.027,-3.0848,-3.0493,-3.0109,-2.9348,-2.8068,-2.7904,-2.7764,-2.7583,-2.6663,-2.7229,-2.9324,-3.0958,-3.1952,-3.2281,-3.2536,-3.2357,-3.1849,-3.1926,-3.0781,-2.8753,-2.884,0.0,0.0,0.0,0.0,0.0,0.0,0.0,0.0,0.0,0.0,0.0,0.0,0.0,0.0,0.0,0.0,0.0,0.0,0.0,0.0,0.0,0.0,0.0,0.0,0.0,0.0,0.0,0.0,0.0,0.0,0.0,0.0,0.0,0.0,0.0,0.0,0.0,0.0,0.0,-3.5343,-3.7234,-3.7043,-3.8026,-3.7579,0.0,0.0,0.0,0.0,0.0,0.0,0.0,0.0,0.0,-3.9887,-4.0925,-4.1999,-4.3081,-4.457,-4.5314,-4.5314,-4.5991,-4.6109,-4.5686,-4.501,-4.4654,-4.4547,-4.3521,-4.2939,-4.2526,-4.1043,-4.0444,-4.0246,0.0,0.0,0.0,0.0,-3.5334,-3.6163,0.0,0.0,0.0,0.0,0.0,0.0,0.0,0.0,0.0,0.0,0.0,0.0,-2.6426,-2.8421,-2.9701,-2.9462,-3.0841,-3.1297,-3.0371,-3.0098,-2.9268,-2.7687,-2.7479,-2.7473,-2.7601,-2.7138,-2.8047,-3.0407,-3.2629,-3.406,-3.468,-3.4818,-3.4638,-3.411,-3.411,-3.2572,-2.9992,-3.0041,-2.8702,-2.6583,0.0,0.0,0.0,0.0,0.0,0.0,0.0,0.0,0.0,0.0,0.0,0.0,0.0,0.0,0.0,0.0,0.0,0.0,0.0,0.0,0.0,0.0,0.0,0.0,0.0,0.0,0.0,0.0,0.0,0.0,0.0,0.0,0.0,0.0,0.0,0.0,0.0,-3.6877,-3.845,-3.7809,-3.9187,-3.8937,0.0,0.0,0.0,0.0,0.0,0.0,-3.838,-3.9261,-4.0225,-4.1341,-4.3142,-4.446,-4.5257,-4.6188,-4.6779,-4.7009,-4.6394,-4.6062,-4.5974,-4.5366,-4.4791,-4.427,-4.427,-4.427,-4.4096,-4.1869,-4.0823,-4.051,-3.8836,-3.8075,-3.7719,-3.6157,-3.6231,-3.6992,0.0,0.0,0.0,0.0,0.0,0.0,0.0,0.0,0.0,0.0,0.0,-2.754,-2.8696,-2.923,-2.9982,-3.1081,-3.0534,-2.9932,-2.9491,-2.8674,-2.7738,-2.6624,-2.6577,-2.6577,-2.6586,-2.9038,-3.0934,-3.2089,-3.4292,-3.5144,-3.4726,-3.5207,-3.5157,-3.4675,-3.4675,-3.3426,-3.1297,-3.1513,-3.0241,-2.802,-2.7242,0.0,0.0,0.0,0.0,0.0,0.0,0.0,0.0,0.0,0.0,0.0,0.0,0.0,0.0,0.0,0.0,0.0,0.0,0.0,0.0,0.0,0.0,0.0,0.0,0.0,0.0,0.0,0.0,0.0,0.0,0.0,0.0,0.0,0.0,0.0,0.0,0.0,0.0,-3.8357,-4.1872,0.0,0.0,0.0,0.0,-3.8347,-3.8901,-3.996,-4.1405,-4.212,-4.3492,-4.5639,-4.5802,-4.6272,-4.7077,-4.6522,-4.6668,-4.7539,-4.5289,-4.5128,-4.6655,-4.4437,-4.3399,-4.3366,-4.3366,-4.3366,-4.336,-4.3284,-4.2828,-4.1965,-3.9783,-3.8514,-3.7719,-3.6157,-3.6546,-3.7838,0.0,0.0,0.0,0.0,0.0,-2.2128,-2.3415,-2.4328,-2.5033,-2.5482,-2.6827,-2.768,-2.755,-2.9226,-3.054,-3.0801,-3.12,-3.1209,-3.0726,-2.9062,-2.7934,-2.7544,-2.649,-2.6578,-2.8009,-3.0771,-3.2566,-3.3294,-3.5165,-3.5968,-3.578,-3.5981,-3.5968,-3.5768,-3.5768,-3.514,-3.401,-3.3381,-3.1818,-2.9693,-2.9065,-2.7716,0.0,0.0,0.0,0.0,0.0,0.0,0.0,0.0,0.0,0.0,0.0,0.0,0.0,0.0,0.0,0.0,0.0,0.0,0.0,0.0,0.0,0.0,0.0,0.0,0.0,0.0,0.0,0.0,0.0,0.0,0.0,0.0,0.0,0.0,0.0,0.0,0.0,-4.0217,-4.2384,0.0,-4.0535,-4.1427,-4.1829,-4.1036,-4.1971,-4.303,-4.3968,-4.4805,-4.5616,-4.6425,-4.7025,-4.7312,-4.7205,-4.6969,-4.6779,-4.6696,-4.5851,-4.5556,-4.5669,-4.4399,-4.3541,-4.3073,-4.2652,-4.2458,-4.2473,-4.2476,-4.27,-4.2844,-4.1085,-4.0257,-3.9901,-3.887,-3.8836,-3.9334,0.0,0.0,0.0,0.0,-2.2343,-2.2383,-2.343,-2.4747,-2.5636,-2.5707,-2.7244,-2.8243,-2.8118,-2.9868,-3.1188,-3.1414,-3.2089,-3.1951,-3.0645,-2.9377,-2.8247,-2.7306,-2.6917,-2.7758,-2.9953,-3.2215,-3.3477,-3.3781,-3.5531,-3.6156,-3.5715,-3.5715,-3.5966,-3.6358,-3.5918,-3.5767,-3.578,-3.5039,-3.3571,-3.1653,-3.0764,-2.9349,-2.7579,0.0,0.0,0.0,0.0,0.0,0.0,0.0,0.0,0.0,0.0,0.0,0.0,0.0,0.0,0.0,0.0,0.0,0.0,0.0,0.0,0.0,0.0,0.0,0.0,0.0,0.0,0.0,0.0,0.0,0.0,0.0,0.0,0.0,0.0,-3.8616,-4.0726,-4.1647,-4.3317,-4.3849,-4.2524,-4.2985,-4.3379,-4.3394,-4.4152,-4.484,-4.5274,-4.6113,-4.6584,-4.6584,-4.7176,-4.7184,-4.655,-4.6316,-4.607,-4.5726,-4.5164,-4.4997,-4.5064,-4.4087,-4.2999,-4.1876,-4.1892,-4.1496,-4.0911,-4.137,-4.2088,-4.28,-4.1576,-4.0823,-4.0325,-3.9827,-3.9521,-3.9305,0.0,0.0,0.0,-2.2703,-2.2688,-2.2897,-2.3535,-2.4762,-2.5751,-2.6112,-2.7647,-2.9221,-3.0644,-3.1146,-3.1813,-3.2973,-3.3048,-3.1851,-2.9113,-2.944,-2.8499,-2.5728,-2.7711,-2.9914,-3.2064,-3.3227,-3.3715,-3.3445,-3.5348,-3.5619,-3.4325,-3.4325,-3.5017,-3.6203,-3.4921,-3.5078,-3.625,-3.631,-3.5395,-3.3778,-3.2164,-3.0846,-2.9628,0.0,0.0,0.0,0.0,0.0,0.0,0.0,0.0,0.0,0.0,0.0,0.0,0.0,0.0,0.0,0.0,0.0,0.0,0.0,0.0,0.0,0.0,0.0,0.0,0.0,0.0,0.0,0.0,0.0,0.0,0.0,0.0,0.0,-3.7524,-4.0352,-4.247,-4.2515,-4.4781,-4.5843,-4.4541,-4.499,-4.5349,-4.5349,-4.5349,-4.5349,-4.5349,-4.5948,-4.6249,-4.6249,-4.6249,-4.5963,-4.5244,-4.4646,-4.4452,-4.4721,-4.3174,-4.3339,-4.4992,-4.3399,-4.1628,-3.9805,-4.1102,-4.0529,-3.8815,-4.0114,-4.1147,-4.1869,-4.1182,-4.0064,-3.8834,-3.8802,-3.8384,-3.7806,0.0,0.0,-2.2134,-2.2613,-2.2298,-2.2503,-2.4081,-2.5038,-2.559,-2.5628,-2.7421,-2.8584,-2.8336,-2.9782,-3.1097,-3.18,-3.1512,-3.0972,-3.0167,-2.8787,-2.7234,-2.5541,-2.7553,-2.9094,-3.0006,-3.1413,-3.2294,-3.2628,-3.3174,-3.3243,-3.2905,-3.2905,-3.3093,-3.338,-3.3044,-3.3093,-3.3491,-3.452,-3.4679,-3.4219,-3.3941,-3.2905,-3.1436,0.0,0.0,0.0,0.0,0.0,0.0,0.0,0.0,0.0,0.0,0.0,0.0,0.0,0.0,0.0,0.0,0.0,0.0,0.0,0.0,0.0,0.0,0.0,0.0,0.0,0.0,0.0,0.0,0.0,0.0,0.0,-3.7958,-4.0292,-4.0292,-4.2297,-4.4137,-4.5125,-4.6292,-4.689,-4.6516,-4.6651,-4.6756,-4.6756,-4.6756,-4.6756,-4.6756,-4.6007,-4.5574,-4.5574,-4.5574,-4.502,-4.3843,-4.4646,-4.4558,-4.3693,-4.3253,-4.332,-4.3762,-4.2879,-4.1919,-4.0921,-4.0816,-4.0181,-3.9259,-3.9622,-3.99,-4.0159,-4.0703,-4.0383,-3.9534,-3.8994,-3.8384,-3.7662,0.0,-2.2428,-2.2164,-2.2269,-2.2194,-2.2682,-2.435,-2.5173,-2.5604,-2.5647,-2.7437,-2.8518,-2.8026,-2.9553,-3.0821,-3.1348,-3.1323,-3.0696,-2.9315,-2.731,-2.6529,-2.7356,-2.8333,-2.926,-3.0139,-3.1258,-3.17,-3.148,-3.2028,-3.2028,-3.148,-3.148,-3.1785,-3.228,-3.1724,-3.1774,-3.2381,-3.3822,-3.4385,-3.4484,-3.513,-3.455,-3.3181,-3.239,-3.1612,-3.0871,-3.0331,-3.0736,-3.1332,-3.0365,0.0,0.0,0.0,0.0,0.0,0.0,0.0,0.0,0.0,0.0,0.0,0.0,0.0,0.0,0.0,0.0,0.0,0.0,0.0,0.0,0.0,0.0,0.0,0.0,-4.0397,-4.2806,-4.3374,-4.4436,-4.5544,-4.6606,-4.707,-4.7309,-4.7309,-4.7309,-4.7309,-4.7309,-4.7309,-4.7309,-4.7309,-4.6561,-4.5873,-4.5319,-4.5843,-4.5229,-4.3319,-4.4631,-4.4631,-4.329,-4.329,-4.329,-4.329,-4.294,-4.1968,0.0,-4.0741,-3.9963,-3.8616,-3.9185,-3.9388,0.0,0.0,0.0,0.0,0.0,-3.7172,-3.672,0.0,-2.2343,-2.2448,-2.1979,-2.2358,-2.3137,-2.441,-2.5088,-2.5627,-2.6045,-2.7561,-2.8625,-2.8798,-2.9842,-3.0708,-3.1173,-3.1599,-3.062,-2.7758,-2.5865,-2.6417,-2.991,-2.9432,-2.9664,-3.1026,-3.1583,-3.1276,-3.0068,-3.1276,-3.1224,-3.0068,-3.0068,-3.0721,-3.1774,-3.0628,-3.0721,-3.1927,-3.3353,-3.3932,-3.408,-3.5559,-3.5674,-3.4801,-3.3822,-3.2817,-3.1888,-3.1361,-3.0896,-3.0507,-3.0319,0.0,0.0,0.0,0.0,0.0,0.0,0.0,0.0,0.0,0.0,0.0,0.0,0.0,0.0,0.0,0.0,0.0,0.0,0.0,0.0,0.0,0.0,0.0,0.0,-4.2787,-4.499,-4.6204,-4.6384,-4.6651,-4.7234,-4.7309,-4.7309,-4.7309,-4.7309,-4.7309,-4.7309,-4.7309,-4.7309,-4.7309,0.0,0.0,0.0,0.0,-4.5873,-4.3319,-4.4631,-4.4631,-4.329,-4.329,-4.329,-4.329,-4.329,-4.1944,-3.9709,-4.0876,-3.9948,-3.7734,-3.8931,-3.9388,-3.9373,-3.9209,-3.8422,-3.7135,-3.5774,-3.537,0.0,0.0,-2.2892,-2.2194,-2.3071,-2.2942,-2.3137,-2.441,-2.4646,-2.5226,-2.661,-2.7382,-2.7921,-2.8231,-2.9277,-2.9993,-3.0093,-2.9767,-2.949,-2.9315,-2.7527,-2.7331,-2.9308,-2.8552,-2.8204,-2.8438,-2.8828,-2.8953,-2.8698,-2.8953,-2.8953,-2.8698,-2.8698,-2.8857,-2.9059,-2.8804,-2.8857,-2.9154,-3.0525,-3.1081,-3.1338,-3.3761,-3.5293,-3.6065,-3.5852,-3.5625,-3.5374,-3.4743,-3.4813,-3.4934,-3.3558,-3.2932,-3.268,-3.271,-3.2352,0.0,0.0,0.0,0.0,0.0,0.0,0.0,0.0,0.0,0.0,0.0,0.0,0.0,0.0,0.0,0.0,0.0,0.0,0.0,-4.1059,-4.3838,-4.6217,-4.6995,-4.7115,-4.716,-4.7294,-4.7309,-4.7309,-4.7309,-4.7309,-4.7309,-4.7309,-4.7309,-4.7309,-4.7309,-4.6277,-4.5559,-4.5304,-4.5544,-4.493,-4.3305,-4.4631,-4.4631,-4.329,0.0,0.0,-4.329,-4.329,-4.2476,-4.101,-4.1265,-4.0487,-3.9014,-3.9269,-3.9388,-3.9269,-3.8227,-3.733,-3.6447,-3.4577,-3.4577,-3.5355,-2.4937,-2.3743,-2.2757,-2.3092,-2.2897,-2.3242,-2.4844,-2.5071,-2.5347,-2.609,-2.685,-2.7287,-2.7296,-2.7819,-2.8348,-2.89,-2.8436,-2.8537,-2.9525,-2.814,-2.7873,-2.9305,-2.8332,-2.785,-2.8022,-2.8184,-2.8291,-2.8291,-2.8291,-2.8291,-2.8291,-2.8291,-2.8291,-2.8291,-2.8291,-2.8291,-2.8398,-2.9713,-3.0317,-3.0473,-3.2555,-3.4166,-3.5475,-3.6156,-3.6405,-3.6367,-3.6056,-3.6119,-3.6279,-3.5403,-3.4951,-3.472,-3.4399,-3.404,-3.3328,0.0,0.0,0.0,0.0,0.0,0.0,0.0,0.0,0.0,0.0,0.0,0.0,0.0,0.0,-3.6579,-3.6579,0.0,-4.0069,-4.1264,-4.2923,-4.4588,-4.6123,-4.6344,-4.6594,-4.7207,-4.7309,-4.7309,-4.7309,-4.7309,-4.7309,-4.7309,-4.7309,-4.7309,-4.7309,-4.6666,-4.5992,-4.5319,-4.5948,-4.5334,-4.3319,-4.4631,-4.4631,-4.329,-4.329,-4.329,-4.329,-4.329,-4.2791,-4.1886,-4.1572,-4.0816,-3.9888,-3.9559,-3.9215,-3.8811,-3.7793,-3.7225,-3.6746,-3.5115,-3.4921,-3.5415,-2.4999,-2.4536,-2.3754,-2.3167,-2.3077,-2.3625,-2.5345,-2.5586,-2.5662,-2.5896,-2.6426,-2.6778,-2.6722,-2.6589,-2.6801,-2.7544,-2.7507,-2.8064,-2.9559,-2.8746,-2.8907,-3.0414,-2.9281,-2.875,-2.9092,-2.8794,-2.8698,-2.8698,-2.8451,-2.8291,-2.8291,-2.8291,-2.8291,-2.8291,-2.8291,-2.8291,-2.8398,-2.946,-2.9911,-3.0068,-3.1684,-3.3005,-3.4178,-3.581,-3.6405,-3.6405,-3.6405,-3.6329,-3.6267,-3.6367,-3.6329,-3.6144,-3.5805,-3.5658,-3.5069,-3.2127,-3.1863,0.0,0.0,0.0,0.0,0.0,0.0,0.0,0.0,-3.5178,-3.6349,-3.6102,-3.6679,-3.7364,-3.7906,-3.8773,-3.9871,-4.1273,-4.1874,-4.2908,-4.5109,-4.5403,-4.5869,-4.7164,-4.7309,-4.7309,-4.7309,-4.7309,-4.7309,-4.7309,-4.7309,-4.7309,-4.7309,-4.7309,-4.68,-4.5723,-4.6741,-4.6157,-4.3693,-4.4766,-4.4631,-4.329,-4.329,-4.329,-4.329,-4.329,-4.291,-4.2171,-4.1339,-4.0696,-4.0172,-3.9634,-3.9095,-3.8512,-3.7719,-3.7404,-3.7255,-3.5983,-3.5504,-3.5504,0.0,-2.4884,-2.5019,-2.4485,-2.4395,-2.4649,-2.5495,-2.5556,-2.6064,-2.7598,-2.6772,-2.6385,-2.7386,-2.6871,-2.6336,-2.5912,-2.7193,-2.87,-3.0383,-3.0541,-3.1585,-3.3744,-3.2514,-3.1832,-3.1825,-3.0669,-3.0068,-3.0068,-2.89,-2.8291,-2.8291,-2.8291,-2.8291,-2.8291,-2.8291,-2.8291,-2.8291,-2.8441,-2.8548,-2.8751,-3.1276,-3.2381,-3.2844,-3.5403,-3.6405,-3.6405,-3.6405,-3.6056,-3.5658,-3.6194,-3.6031,-3.5658,-3.6132,-3.6317,-3.5952,-3.4073,-3.3621,-3.3119,-3.0432,-2.9164,-2.9101,-3.1133,-3.2608,-3.3799,0.0,-3.6985,-3.8398,-3.783,-3.8589,-3.9398,-3.9449,-4.0463,-4.1364,-4.1563,-4.2534,-4.3808,-4.5192,-4.5403,-4.5869,-4.7164,-4.7309,-4.7309,-4.7309,-4.7309,-4.7309,-4.7309,-4.7309,-4.7309,-4.7309,-4.7309,-4.7234,-4.7085,-4.7219,-4.6591,-4.5095,-4.5229,-4.4631,-4.329,-4.329,-4.329,-4.329,-4.329,-4.2656,-4.1452,-4.0172,-3.9589,-3.9529,-3.9454,-3.9379,-3.917,-3.7898,-3.7404,-3.7255,-3.5983,-3.5504,-3.5504,0.0,-2.4847,-2.465,-2.4116,-2.4335,-2.4829,-2.551,-2.5912,-2.64,-2.7088,-2.6638,-2.6498,-2.7188,-2.6579,-2.5614,-2.4262,-2.5988,-2.7679,-2.8854,-3.0219,-3.1668,-3.3112,-3.2593,-3.228,-3.228,-3.1724,-3.148,-3.148,-3.0927,-3.0618,-3.0618,-3.0618,-3.0618,-3.0618,-3.0618,-3.0618,-3.0618,-3.0618,-3.0618,-3.0721,-3.1836,-3.2794,-3.3662,-3.4824,-3.5517,-3.5793,-3.5152,-3.4776,0.0,-3.4487,-3.4299,-3.4261,-3.5127,-3.4964,-3.4356,-3.3621,-3.3181,-3.2742,-3.1926,-3.229,-3.3056,-3.3658,-3.514,-3.6634,-3.7324,-3.8203,-3.8944,-3.8969,-3.9371,-3.9697,-3.9697,-3.9575,-3.9721,-4.0401,-4.0361,-4.1234,-4.3925,-4.4303,-4.5024,-4.7062,-4.6606,-4.6142,-4.6142,-4.6845,-4.698,-4.6187,-4.686,-4.7309,-4.7309,-4.7309,-4.7309,-4.7309,-4.7309,-4.6666,-4.5304,-4.5289,-4.4631,-4.329,-4.329,-4.329,-4.329,-4.329,-4.2611,-4.1324,-4.0397,-3.9768,-3.9388,-3.9388,-3.9388,-3.9334,-3.8362,-3.7749,-3.7255,-3.5983,-3.5504,-3.5504,0.0,-2.4962,-2.4632,-2.3927,-2.4383,-2.4995,-2.5533,-2.6318,-2.6847,-2.682,-2.6642,-2.6503,-2.6543,-2.608,-2.5223,-2.3861,-2.5633,-2.7245,-2.8288,-3.0356,-3.2033,-3.3151,-3.336,-3.3441,-3.3441,-3.3093,-3.2894,-3.2894,-3.2482,-3.228,-3.228,-3.228,-3.228,-3.2292,-3.2476,-3.2544,-3.2555,-3.2729,-3.2656,-3.2594,-3.2937,-3.363,-3.4422,-3.4619,-3.4873,-3.4944,-3.4186,-3.3696,-3.3357,-3.2792,-3.2717,-3.2955,-3.3596,-3.347,-3.3086,-3.288,-3.2441,-3.2139,-3.288,-3.4167,-3.5303,-3.5633,-3.7098,-3.858,-3.9045,-3.9094,-3.9207,-3.9609,-3.9697,-3.9697,-3.9697,-3.9032,-3.8743,-3.9559,-3.9007,-3.9504,-4.2567,-4.2978,-4.3648,-4.5566,-4.5193,-4.4504,-4.3834,-4.557,-4.6501,-4.5903,-4.6756,-4.7309,-4.7309,-4.7309,-4.7309,-4.7309,-4.713,-4.6471,-4.5304,-4.511,-4.4451,-4.329,-4.329,-4.329,-4.329,-4.2955,-4.2282,-4.1324,-4.0502,-3.9858,-3.9388,-3.9388,-3.9388,-3.9313,-3.8661,-3.8093,-3.7524,-3.6252,-3.5669,-3.5504,0.0,0.0,-2.5615,-2.4572,-2.4936,-2.5431,-2.558,-2.6707,-2.757,-2.7575,-2.693,-2.6217,-2.5536,-2.5425,-2.5384,-2.5356,-2.6703,-2.825,-2.9845,-3.1879,-3.3721,-3.5353,-3.5975,-3.6263,-3.6263,-3.5017,-3.4337,-3.4337,-3.2944,-3.228,-3.228,-3.228,-3.228,-3.2303,-3.2909,-3.3173,-3.3207,-3.3709,-3.3641,-3.3276,-3.4586,-3.4813,-3.4484,-3.5194,-3.4843,-3.3947,-3.3909,-3.3194,-3.2177,-3.1625,-3.18,-3.2152,-3.165,-3.2227,-3.3011,-3.2403,-3.1851,-3.1662,-3.2767,-3.2717,-3.2993,-3.5705,-3.681,-3.7663,-3.9295,-3.9672,-3.9672,-3.9697,-3.9697,-3.9697,-3.9697,-3.9672,-3.9647,-3.9685,-3.9672,-4.0134,-4.1455,-4.1654,-4.174,-4.1937,-4.286,-4.2551,-4.018,-4.3253,-4.5888,-4.7145,-4.7279,-4.7309,-4.7309,-4.7309,-4.7309,-4.7309,-4.6696,-4.6022,-4.5304,-4.4661,-4.3962,-4.329,-4.329,-4.329,-4.3245,-4.2028,-4.1452,-4.1347,-4.0008,-3.9403,-3.9388,-3.9388,-3.9388,-3.9313,-3.8661,-3.8377,-3.8212,-3.6926,-3.6058,-3.5504,0.0,0.0,0.0,-2.6438,-2.66,-2.6808,-2.6834,-2.6892,-2.7106,-2.754,-2.7382,0.0,0.0,0.0,0.0,0.0,-2.6196,-2.7557,-2.9666,-3.1609,-3.3502,-3.5213,-3.6309,-3.6731,-3.6405,-3.5966,-3.5715,-3.5715,-3.5246,-3.4993,-3.4993,-3.4993,-3.5235,-3.5587,-3.5769,-3.6048,-3.6363,-3.6181,-3.6206,-3.6365,-3.6112,-3.6085,-3.617,-3.5294,-3.4311,-3.3169,0.0,-3.0683,-2.9853,-2.8976,-2.9026,-2.9578,-3.0156,-3.008,-2.9741,-2.9553,-3.0922,-3.2428,-3.2051,-3.3476,-3.519,-3.6144,-3.7626,-3.8994,-3.9572,-3.9697,-3.9697,-3.9697,-3.9094,-3.8567,-3.8567,-3.799,-3.7751,-3.8467,-3.7965,-3.8456,-4.1196,-4.0354,-4.0301,-4.2637,-4.182,-4.1735,-4.3358,-4.4617,0.0,-4.4736,-4.6322,-4.7309,-4.7309,-4.7309,-4.7309,-4.7309,-4.6666,-4.5992,-4.5304,-4.4646,-4.3947,-4.329,-4.329,-4.3105,-4.2656,-4.1788,-4.1145,-4.0681,-3.9798,-3.9388,-3.9388,-3.9388,-3.9388,-3.9394,-3.917,-3.8796,-3.8287,-3.7419,-3.6701,-3.6088,0.0,0.0,0.0,0.0,0.0,0.0,0.0,0.0,0.0,0.0,0.0,0.0,0.0,0.0,0.0,0.0,0.0,-2.7403,-2.9317,-3.091,-3.2467,-3.4033,-3.5336,-3.5848,-3.5546,-3.6004,-3.6346,-3.6599,-3.7046,-3.7221,-3.7023,-3.7023,-3.6993,-3.6945,-3.7098,-3.7374,-3.7701,-3.755,-3.7563,-3.76,-3.6295,-3.5868,-3.583,-3.4161,-3.2855,0.0,-2.9842,-2.8825,-2.8197,-2.7329,-2.7494,-2.8197,-2.8725,-2.8674,-2.8549,-2.934,-3.0947,-3.2491,-3.2554,-3.4437,-3.6505,-3.6895,-3.8329,-3.9697,-3.9697,-3.9534,-3.9396,-3.9396,-3.8818,-3.8191,-3.7789,-3.7312,-3.7211,-3.7902,-3.7412,-3.7916,-4.0572,-3.9709,-3.9485,-4.1309,-4.0526,-4.0752,-4.3211,-4.4153,-4.446,-4.4097,-4.5633,-4.6591,-4.6591,-4.6591,-4.6696,-4.695,-4.6307,-4.5633,-4.4945,-4.4287,-4.3708,-4.329,-4.329,-4.2985,-4.2381,-4.1722,-4.0756,-3.9679,-3.9499,-3.9155,-3.8736,-3.9179,-3.9388,-3.9388,-3.9388,-3.9155,-3.8646,-3.7749,-3.715,-3.6686,0.0,0.0,0.0,0.0,0.0,0.0,0.0,0.0,0.0,0.0,0.0,0.0,0.0,0.0,0.0,0.0,0.0,0.0,-2.8911,-2.9923,-3.0973,-3.2027,-3.3291,-3.3973,-3.4004,-3.5186,-3.6113,-3.6769,-3.8034,-3.8372,-3.7889,-3.7915,-3.7391,-3.6395,-3.695,-3.7167,-3.7182,-3.7673,-3.7536,-3.6872,-3.5253,-3.4299,-3.3671,-3.1989,-3.0721,-2.9691,-2.8549,-2.7795,-2.7231,-2.6688,-2.7231,-2.8109,-2.767,-2.826,-2.9465,-3.1599,-3.1926,-3.2051,-3.4161,-3.5592,-3.6782,-3.7789,-3.8856,-3.9647,-3.9647,-3.922,-3.8856,-3.8806,-3.8768,-3.8341,-3.7186,-3.74,-3.7789,-3.7902,-3.7877,-3.8266,-3.9484,-3.9584,-3.9145,-3.8128,-3.8917,-3.9661,-3.9969,-4.1987,-4.3806,-4.5123,0.0,-4.5394,-4.5394,-4.5394,-4.5678,-4.6264,-4.5648,-4.4975,-4.4332,-4.3618,-4.329,-4.329,-4.326,-4.294,-4.2336,-4.1662,-4.0277,-3.8482,-3.9125,-3.8691,-3.7614,-3.8886,-3.9388,-3.9388,-3.9343,-3.9364,-3.9215,-3.7853,-3.736,-3.718,0.0,0.0,0.0,0.0,0.0,0.0,0.0,0.0,0.0,0.0,0.0,0.0,0.0,0.0,0.0,0.0,0.0,0.0,-2.8663,-2.981,-3.0894,-3.1833,-3.3107,-3.3832,-3.4014,-3.4328,-3.456,-3.4763,-3.5102,-3.5163,-3.5062,-3.5507,-3.579,-3.5982,-3.6585,-3.666,-3.634,-3.6113,-3.55,-3.4625,-3.3357,-3.3018,-3.3106,-3.1449,-3.0645,-3.0256,-2.9126,-2.836,-2.7745,-2.6813,-2.7794,-2.9553,-3.062,-3.1148,-3.1486,-3.2039,-3.3294,-3.448,-3.4675,-3.6433,-3.8353,-3.858,-3.8868,-3.9082,-3.9082,-3.8642,-3.799,-3.7222,-3.6684,-3.5931,-3.4399,-3.4236,-3.4876,-3.6556,-3.6094,-3.6383,-3.8743,-3.8052,-3.7412,-3.7939,-3.8236,-3.9149,-4.0992,-4.1731,-4.2554,0.0,-4.5704,-4.68,-4.68,-4.68,-4.6651,-4.6294,-4.5648,-4.4975,-4.4332,-4.3618,-4.329,-4.329,-4.2836,-4.2306,-4.1647,-4.095,-4.0098,-3.917,-3.9349,-3.9194,-3.8931,-3.9239,-3.9388,-3.9328,-3.8856,-3.8646,-3.8497,-3.721,-3.6716,-3.6611,0.0,0.0,0.0,0.0,0.0,0.0,0.0,0.0,0.0,0.0,0.0,0.0,0.0,0.0,0.0,0.0,0.0,0.0,0.0,-2.9789,-3.061,-3.0802,-3.2038,-3.2782,-3.2883,-3.3774,-3.4221,-3.4221,-3.5081,-3.5224,-3.4757,-3.5077,-3.5159,-3.5012,-3.5365,-3.5386,-3.5179,-3.4846,-3.4441,0.0,0.0,-3.2005,-3.2032,-3.0625,-2.9986,-2.9753,-2.9113,-2.87,-2.8561,-2.9189,-2.9906,-3.0871,-3.2963,-3.3508,-3.3508,-3.4474,-3.5303,-3.5943,-3.6119,-3.7487,-3.8919,-3.8919,-3.8919,-3.8793,-3.8241,-3.75,-3.6621,-3.5504,-3.5228,-3.463,-3.3006,-3.3307,-3.4286,-3.5768,-3.5692,-3.6169,-3.8203,-3.7676,-3.7312,-3.7939,-3.8002,-3.8963,-4.1386,-4.1604,-4.2129,-4.335,-4.4791,-4.581,-4.6369,-4.6142,-4.5963,-4.5873,-4.5214,-4.4541,-4.3883,-4.3484,-4.329,-4.329,-4.2671,-4.2051,-4.1392,-4.0696,-3.9709,-3.8571,0.0,-3.9059,-3.8586,-3.917,-3.9388,-3.9343,-3.899,-3.8661,-3.8272,-3.727,-3.6716,-3.6387,0.0,0.0,0.0,0.0,0.0,0.0,0.0,0.0,0.0,0.0,0.0,0.0,0.0,0.0,0.0,0.0,0.0,0.0,0.0,0.0,-3.0449,-3.0023,-3.1056,-3.1705,-3.1796,-3.3397,-3.4254,-3.4254,-3.5854,-3.6089,-3.5123,-3.5245,-3.4774,-3.3813,-3.3896,-3.3849,-3.3737,-3.3737,-3.3622,-3.3305,-3.1946,-3.1235,-3.0887,0.0,0.0,-2.9376,-2.9252,-2.9151,-2.9465,-3.2252,-3.2528,-3.2227,-3.5044,-3.5558,-3.5529,-3.745,-3.7387,-3.6933,-3.7764,-3.8479,-3.9032,-3.9032,-3.8868,-3.8492,-3.7513,-3.6332,-3.5082,-3.401,-3.411,-3.3922,-3.239,-3.3483,-3.4768,-3.5395,-3.6031,-3.6697,-3.7563,-3.7864,-3.7952,-3.7814,-3.7914,-3.8864,-4.1102,-4.1225,-4.1714,-4.3156,-4.3199,-4.3776,-4.5236,-4.4848,-4.4766,-4.5155,-4.4526,-4.3873,-4.3305,-4.329,-4.3245,-4.3155,-4.2551,-4.1931,-4.1235,-4.0561,-3.932,-3.7734,0.0,0.0,-3.7764,-3.8931,-3.9388,-3.9373,-3.932,-3.8916,-3.8317,-3.7659,-3.7015,-3.6402,0.0,0.0,0.0,0.0,0.0,0.0,0.0,0.0,0.0,0.0,-3.0552,-3.0231,0.0,0.0,0.0,0.0,0.0,0.0,0.0,0.0,0.0,-3.2076,-3.2289,-3.2675,-3.3219,-3.3022,-3.2934,-3.2934,-3.2657,-3.2422,-3.2242,-3.2791,-3.2935,-3.2794,-3.3324,-3.3158,-3.2426,-3.2426,-3.1682,-3.0533,-3.0813,-3.0883,-3.087,-3.1227,0.0,0.0,-3.1059,-3.0302,-3.0068,-3.283,-3.3621,-3.4022,-3.7274,-3.7902,-3.7513,-3.7902,-3.8216,-3.8429,-3.809,-3.8755,-3.9546,-3.9546,-3.8843,-3.8103,-3.7914,-3.6307,-3.455,-3.3445,-3.2918,-3.2416,-3.1675,-3.2905,-3.4374,-3.5332,-3.6019,-3.627,-3.5959,-3.7149,-3.7676,-3.6784,-3.7462,-3.8541,-3.9918,-3.9183,-3.9526,-4.1758,-4.1932,-4.295,-4.5252,-4.5736,-4.5514,-4.4511,-4.3798,-4.3409,-4.329,-4.329,-4.306,-4.256,-4.1901,-4.1205,-4.0546,-3.9888,-3.9394,-3.9059,-3.932,0.0,-3.9059,-3.9284,-3.9388,-3.9328,-3.8796,-3.8497,-3.8317,-3.7659,-3.7015,-3.6477,0.0,0.0,0.0,0.0,0.0,0.0,0.0,-3.1836,-3.2212,-3.1909,-3.2287,-3.2183,-3.1187,-3.1672,-3.2075,0.0,0.0,0.0,0.0,0.0,0.0,0.0,-3.2944,-3.3271,-3.3608,-3.3625,-3.3482,-3.3119,0.0,-3.2761,-3.2079,-3.2383,-3.2351,-3.1989,-3.2303,-3.2213,-3.179,-3.179,-3.1356,-3.0742,-3.1392,-3.1582,-3.1547,0.0,0.0,0.0,-3.2105,-3.1328,-3.0907,-3.3376,-3.3674,-3.3709,-3.7687,-3.8881,-3.8768,-3.8178,-3.8617,-3.9107,-3.8241,-3.8831,-3.9697,-3.9697,-3.8843,-3.7701,-3.6558,-3.5039,-3.3395,-3.1712,-3.1373,-3.121,-3.0658,-3.1913,-3.3483,-3.4843,-3.5818,-3.6471,-3.6784,-3.75,-3.7814,-3.7299,-3.7701,-3.8216,-3.8768,-3.8329,-3.8463,-3.9666,-4.0353,-4.2073,-4.5223,-4.5635,-4.4906,-4.2966,-4.3144,-4.3036,-4.2412,-4.2981,-4.3015,-4.2396,-4.1737,-4.104,-4.0382,-3.9723,-3.9388,-3.9388,-3.9388,0.0,-3.8422,-3.9089,-3.9005,-3.8407,-3.8781,-3.8497,-3.7838,-3.7524,-3.6806,-3.5968,0.0,0.0,0.0,0.0,0.0,0.0,0.0,-3.1952,-3.2547,-3.2547,-3.3812,-3.4142,-3.2637,-3.2889,-3.3189,0.0,0.0,0.0,0.0,0.0,0.0,0.0,0.0,-3.4028,-3.4028,0.0,0.0,-3.4037,-3.4589,0.0,0.0,0.0,0.0,0.0,-3.1814,-3.164,-3.1511,-3.1511,-3.1511,0.0,0.0,-3.261,0.0,0.0,0.0,0.0,0.0,-3.2403,-3.2006,-3.4007,-3.3816,-3.3416,-3.7153,-3.8464,-3.8517,-3.799,-3.8454,-3.9044,-3.8517,-3.9019,-3.9697,-3.9697,-3.8843,-3.7487,-3.5529,-3.4048,-3.2516,-3.0545,-3.0294,-3.0382,-3.0168,-3.1273,-3.2767,-3.4449,-3.5353,-3.6257,-3.7475,-3.7663,-3.7751,-3.7977,-3.8002,-3.8103,-3.8341,-3.8153,-3.8103,-3.8354,-3.9521,-4.1531,-4.4445,-4.4545,-4.3536,-4.1296,-4.2085,-4.2249,-4.1587,-4.2249,-4.2421,-4.2186,-4.1379,-4.071,-4.0172,-3.9649,-3.9388,-3.9388,-3.9388,0.0,0.0,-3.8871,-3.8475,-3.7213,-3.8549,-3.8218,-3.6993,-3.6993,-3.6183,-3.5126,0.0,0.0,0.0,0.0,0.0,0.0,0.0,-3.2391,-3.3305,-3.3305,-3.4568,-3.5442,-3.5245,-3.529,-3.5324,0.0,0.0,0.0,0.0,0.0,0.0,0.0,0.0,0.0,0.0,0.0,0.0,-3.5506,-3.5629,0.0,0.0,0.0,0.0,0.0,0.0,-3.212,-3.1511,-3.1511,0.0,0.0,0.0,0.0,0.0,0.0,0.0,0.0,0.0,-3.3663,-3.3592,-3.4829,-3.4901,-3.4724,-3.6109,-3.5891,-3.5454,-3.6847,-3.7337,-3.7726,-3.9145,-3.9622,-3.9697,-3.9697,-3.8843,-3.7701,-3.6521,-3.4613,-3.2729,-3.1499,-3.0507,-3.0156,-3.1072,-3.1775,-3.2767,-3.4449,-3.4387,-3.4688,-3.6329,-3.6546,-3.691,-3.7889,-3.8002,-3.8417,-3.9433,-3.8605,-3.8429,-3.9459,-4.0726,0.0,-4.2007,-4.2022,-4.141,-4.0114,-4.0159,-4.0661,-4.1587,-4.0661,-4.0626,-4.1474,-4.0324,-3.9653,-3.9514,-3.9454,-3.9388,-3.9388,-3.9388,0.0,0.0,-3.8871,-3.8066,-3.6158,-3.7465,-3.6983,-3.5565,-3.5565,-3.4822,-3.3892,0.0,0.0,0.0,0.0,0.0,0.0,-3.119,-3.207,-3.2899,-3.3339,-3.4303,-3.5301,-3.6214,-3.6315,-3.6129,-3.5633,0.0,0.0,0.0,0.0,0.0,0.0,0.0,0.0,0.0,0.0,-3.6788,-3.7693,-3.7278,0.0,0.0,0.0,0.0,0.0,0.0,-3.2627,-3.1511,-3.1511,0.0,0.0,0.0,0.0,0.0,0.0,0.0,0.0,0.0,0.0,-3.4016,-3.5255,-3.4946,-3.4059,-3.4259,-3.3811,-3.3395,-3.4433,-3.5881,-3.7186,-3.7199,-3.8417,-3.9697,-3.9697,-3.8843,-3.755,-3.5793,-3.4198,-3.2566,-3.0796,-3.0093,-2.9917,-3.0344,-3.0884,-3.18,-3.3458,-3.3822,-3.4713,-3.7023,-3.7362,-3.7789,-3.8894,-3.9019,-3.8931,-3.8705,-3.8266,-3.8191,-3.8642,-3.8837,0.0,-3.9446,-4.0868,-4.0827,-3.8868,-3.9492,-3.9619,-3.9018,-3.9233,-3.9173,-3.8864,-3.8359,-3.8236,-3.8435,-3.8435,-3.8782,-3.9388,-3.9388,0.0,0.0,-3.8542,-3.7559,-3.4887,-3.7,-3.658,-3.4813,-3.4813,-3.4039,-3.3074,0.0,0.0,0.0,0.0,0.0,-3.119,-3.119,-3.2002,-3.2797,-3.3339,-3.4235,-3.5334,-3.666,-3.6998,-3.6891,-3.6326,-3.6603,0.0,0.0,0.0,0.0,0.0,0.0,0.0,0.0,0.0,-3.8082,-3.9326,-3.9022,-3.89,0.0,0.0,-3.6764,-3.4936,0.0,0.0,0.0,0.0,0.0,0.0,0.0,0.0,0.0,0.0,0.0,0.0,0.0,0.0,0.0,0.0,0.0,-3.4254,-3.3991,-3.3102,-3.2278,-3.2701,-3.4424,-3.6182,-3.6022,-3.7701,-3.9484,-3.9647,-3.8592,-3.7073,-3.5307,-3.3721,-3.2139,-3.0583,-3.0143,-3.008,-3.0231,-3.0457,-3.116,-3.2847,-3.3407,-3.4512,-3.6935,-3.7412,-3.7939,-3.9057,-3.9195,-3.9007,-3.8555,-3.8504,-3.8442,-3.8278,-3.7902,0.0,-3.7764,-3.941,-3.9508,-3.7658,-3.8278,-3.8207,-3.7294,-3.7591,-3.7543,-3.7191,-3.6866,-3.6893,-3.7244,-3.7633,-3.8178,-3.8805,0.0,0.0,0.0,-3.7673,-3.6432,-3.3521,-3.5733,-3.5269,-3.33,-3.33,-3.2616,-3.1792,0.0,0.0,0.0,0.0,0.0,0.0,-3.119,-3.2459,-3.3389,-3.3406,-3.467,-3.591,-3.6711,-3.7449,-3.7889,-3.7889,-3.7212,0.0,0.0,0.0,0.0,0.0,0.0,0.0,0.0,0.0,-3.9343,-4.0079,-4.0815,-4.1187,-4.1144,-4.0417,-3.931,-3.7873,0.0,0.0,0.0,0.0,0.0,0.0,0.0,0.0,0.0,0.0,0.0,0.0,0.0,0.0,0.0,0.0,0.0,0.0,0.0,-3.4224,-3.2199,-3.2219,-3.3031,-3.4412,-3.6571,-3.8052,-3.9057,-3.9559,-3.8015,-3.6232,-3.5621,-3.3395,-3.1399,-3.1386,-3.0972,-3.0758,-3.1286,-3.0959,-3.116,-3.2847,-3.3081,-3.3671,-3.5295,-3.6031,-3.6784,-3.7889,-3.8027,-3.8467,-3.9572,-3.9672,-3.9446,-3.8957,-3.8906,0.0,-3.7249,-3.7235,-3.6983,-3.643,-3.583,-3.61,-3.7294,-3.5584,-3.5565,-3.7191,-3.6054,-3.5654,-3.5942,-3.723,-3.7682,0.0,0.0,0.0,0.0,-3.614,-3.4543,-3.2042,-3.3318,-3.2511,-3.062,-3.062,-3.0308,-2.9972,0.0,0.0,0.0,0.0,0.0,0.0,0.0,-3.1596,-3.2256,-3.3271,-3.3812,-3.4793,-3.6609,-3.7449,-3.8108,-3.8616,-3.843,0.0,0.0,0.0,0.0,0.0,0.0,0.0,0.0,0.0,-3.9851,-4.1593,-4.1339,-4.1728,-4.2692,-4.1414,-4.0091,-3.8685,-3.6934,-3.549,0.0,0.0,0.0,0.0,0.0,0.0,0.0,0.0,0.0,0.0,0.0,0.0,0.0,0.0,0.0,0.0,0.0,0.0,0.0,-3.1859,-3.212,-3.2893,-3.3596,-3.5165,-3.6558,-3.6345,-3.6044,-3.5466,-3.4161,-3.2867,-3.1838,-3.1461,-3.0972,-3.0771,-3.1298,-3.0972,-3.1286,-3.3307,-3.3319,-3.4048,-3.6835,-3.7374,-3.7902,-3.9032,-3.9157,-3.9295,-3.9659,0.0,-3.863,-3.8906,0.0,0.0,-3.7186,-3.6471,-3.5981,-3.5805,-3.5596,-3.5302,-3.4964,-3.4414,-3.4254,-3.438,-3.4024,-3.3886,-3.3968,-3.5151,0.0,0.0,0.0,0.0,0.0,-3.5792,-3.4504,-3.2017,-3.3318,-3.2511,-3.062,-3.062,-3.0269,-2.9818,0.0,0.0,0.0,0.0,0.0,0.0,0.0,-3.1427,-3.2036,-3.3254,-3.3643,-3.4675,-3.6958,-3.7618,-3.8311,-3.9326,-3.9665,0.0,0.0,0.0,0.0,0.0,0.0,0.0,-3.9377,-3.9681,-4.0629,-4.2286,-4.2117,-4.2479,-4.3358,-4.2185,-4.1021,-3.9811,-3.7725,-3.6326,0.0,0.0,0.0,0.0,0.0,0.0,0.0,0.0,0.0,0.0,0.0,0.0,0.0,0.0,0.0,0.0,0.0,0.0,0.0,0.0,-3.2358,-3.1989,-3.2416,-3.3709,-3.4893,-3.4969,-3.4781,-3.4399,-3.3571,-3.2616,-3.1926,-3.2014,-3.1775,-3.165,-3.1964,-3.1587,-3.1599,-3.2767,-3.337,-3.4274,-3.5918,-3.686,-3.7651,-3.8354,-3.8806,-3.922,0.0,-3.8868,-3.8391,-3.853,0.0,0.0,-3.6908,-3.6031,-3.5408,-3.5194,-3.4994,-3.46,-3.3909,-3.3696,-3.342,-3.3124,-3.3124,-3.3011,-3.2948,-3.4136,0.0,0.0,0.0,0.0,0.0,-3.4607,-3.3502,-3.1771,-3.2368,-3.1636,-3.0306,-3.0306,-3.0093,-2.9792,0.0,0.0,0.0,0.0,0.0,0.0,0.0,-3.1785,-3.2513,-3.3305,-3.3998,-3.5284,-3.7567,-3.7872,-3.8481,-3.9977,0.0,0.0,0.0,0.0,0.0,0.0,0.0,0.0,-4.0146,-4.0849,-4.1593,-4.2371,-4.3064,-4.3426,-4.346,-4.2675,-4.1931,-4.1152,-3.8193,-3.6798,0.0,0.0,0.0,0.0,0.0,0.0,0.0,0.0,0.0,0.0,0.0,0.0,0.0,0.0,0.0,0.0,0.0,0.0,0.0,0.0,0.0,0.0,0.0,-3.3332,-3.3972,-3.4944,-3.4123,-3.3156,-3.3671,-3.2541,0.0,-3.2893,-3.3068,-3.3056,-3.3169,-3.2717,-3.219,-3.175,-3.3395,-3.4399,-3.3445,-3.5185,-3.6505,-3.6417,-3.7412,-3.8492,-3.9421,-3.912,-3.8617,0.0,0.0,0.0,-3.638,-3.578,-3.5194,-3.4675,-3.4123,-3.3847,-3.3847,-3.3332,-3.3074,-3.2998,-3.3074,-3.2889,-3.2528,-3.3947,0.0,0.0,0.0,0.0,0.0,-3.2822,-3.1863,-3.1286,-3.0809,-3.0281,-2.9792,-2.9792,-2.9792,-2.9792,0.0,0.0,0.0,0.0,0.0,0.0,0.0,0.0,0.0,0.0,-3.3558,-3.4523,-3.6812,-3.755,-3.8481,0.0,0.0,0.0,0.0,0.0,0.0,0.0,0.0,0.0,-4.0916,-4.1119,-4.1847,-4.3122,-4.3308,-4.3724,-4.4282,-4.2912,-4.2202,-4.1912,-3.8905,-3.6894,0.0,0.0,0.0,0.0,0.0,0.0,0.0,0.0,0.0,0.0,-3.3724,-3.4038,0.0,0.0,0.0,0.0,0.0,0.0,0.0,0.0,-3.2101,-3.0947,-3.1612,0.0,-3.2039,-3.2303,-3.239,-3.2453,0.0,-3.1976,-3.1838,-3.3382,-3.3018,-3.2805,-3.4098,-3.3872,-3.3734,-3.4405,-3.4605,-3.4926,-3.555,-3.6759,-3.7312,-3.6496,-3.8115,-3.8894,-3.7877,-3.8442,-3.8454,0.0,0.0,-3.6759,-3.5734,-3.5169,-3.4618,-3.411,-3.3558,-3.3269,-3.3269,-3.3144,-3.2641,-3.18,-3.2667,-3.2176,-3.0532,-3.2539,0.0,0.0,0.0,0.0,-3.2755,-3.2349,-3.165,-3.0783,-3.067,-3.0281,-2.9792,-2.9792,-2.9792,-2.9792,0.0,0.0,0.0,0.0,0.0,0.0,0.0,0.0,0.0,0.0,0.0,0.0,0.0,0.0,0.0,0.0,0.0,0.0,0.0,0.0,0.0,0.0,0.0,-3.9681,-4.117,-4.1525,-4.2269,-4.3392,-4.3775,-4.3978,-4.4012,-4.2844,-4.2117,-4.1675,-3.8991,-3.6951,0.0,0.0,0.0,0.0,0.0,0.0,0.0,0.0,0.0,0.0,-3.3036,-3.3275,0.0,-3.3514,-3.3978,-3.4558,0.0,0.0,0.0,0.0,-3.139,-3.0357,-3.0884,-3.1035,-3.1286,-3.229,-3.2378,-3.2353,-3.2867,-3.2566,-3.2491,-3.3658,-3.3407,-3.3269,-3.4173,-3.3884,-3.3796,-3.465,-3.4537,-3.4826,-3.6194,-3.6885,-3.7048,-3.6483,-3.7224,-3.7626,0.0,-3.7739,0.0,0.0,0.0,-3.6433,-3.5545,-3.4969,-3.4462,-3.3922,-3.337,-3.3124,-3.3124,-3.3124,-3.2516,-3.1399,-3.2583,-3.2177,-3.0583,-3.2344,-3.2742,0.0,0.0,0.0,-3.2152,-3.1411,-3.0909,-3.0595,-3.0331,-3.0055,-2.9792,-2.9792,-2.9792,-2.9792,0.0,0.0,0.0,0.0,0.0,0.0,0.0,0.0,0.0,0.0,0.0,0.0,0.0,0.0,0.0,0.0,0.0,0.0,0.0,0.0,0.0,0.0,0.0,-3.98,-4.117,-4.1914,-4.2658,-4.3392,-4.4198,-4.4248,-4.3572,-4.2692,-4.1777,-4.0776,-3.882,-3.7105,0.0,0.0,0.0,0.0,0.0,0.0,0.0,0.0,0.0,0.0,0.0,0.0,0.0,-3.3036,-3.3228,-3.3354,-3.3607,0.0,0.0,0.0,0.0,0.0,-3.0344,-3.0557,-3.1122,-3.3244,-3.2918,-3.239,-3.352,-3.3282,-3.3018,-3.3746,-3.3897,-3.3947,-3.4123,-3.3909,-3.3796,-3.4098,-3.4223,-3.4776,-3.6194,-3.6521,-3.6533,-3.6307,-3.6097,0.0,-3.6872,0.0,0.0,0.0,0.0,-3.5994,-3.5408,-3.4856,-3.4349,-3.3796,-3.3319,-3.3124,-3.3124,-3.3124,-3.2516,-3.1399,-3.2583,-3.2478,-3.1436,-3.2566,-3.3124,0.0,0.0,0.0,-3.1976,-3.052,-3.0143,-3.0444,-2.998,-2.9792,-2.9792,-2.9792,-2.9792,-2.9792,0.0,0.0,0.0,0.0,0.0,0.0,0.0,0.0,0.0,0.0,0.0,0.0,0.0,0.0,0.0,0.0,0.0,0.0,0.0,0.0,0.0,-4.2134,-4.0722,-4.0324,-4.1187,-4.1914,-4.2658,-4.3392,-4.4198,-4.4547,-4.4395,-4.2946,-4.1191,-3.9257,-3.8897,-3.7875,-3.6384,0.0,0.0,0.0,0.0,0.0,0.0,0.0,0.0,0.0,0.0,0.0,0.0,-3.1959,-3.2076,-3.2391,-3.2403,0.0,0.0,0.0,0.0,0.0,-2.9767,-3.0256,-3.1035,-3.2767,-3.2353,-3.1813,-3.2943,-3.2403,-3.2077,-3.3596,-3.3897,-3.4186,-3.5069,-3.5981,-3.6282,-3.5382,-3.568,-3.6116,-3.638,-3.7161,-3.7236,-3.5796,0.0,-3.7688,-3.5922,0.0,0.0,0.0,0.0,-3.5382,-3.4831,-3.4324,-3.3771,-3.3262,-3.3162,-3.3124,-3.3124,-3.3124,-3.2516,-3.1399,-3.2583,-3.2478,-3.1436,-3.2566,-3.3124,0.0,0.0,-3.1863,-3.1461,-3.0771,-3.0269,-2.9905,-2.9829,-2.9792,-2.9792,-2.9792,-2.9792,-2.9792,0.0,0.0,0.0,0.0,0.0,0.0,0.0,0.0,0.0,0.0,0.0,0.0,0.0,0.0,0.0,0.0,0.0,0.0,0.0,0.0,-4.2117,-4.1728,-4.1052,-4.0849,-4.1204,-4.1914,-4.2658,-4.3392,-4.4198,-4.4395,-4.3927,-4.2405,-4.0919,-3.9517,-3.8678,-3.7682,-3.6554,-3.5814,-3.5504,0.0,0.0,0.0,0.0,0.0,0.0,0.0,0.0,0.0,0.0,0.0,-3.144,-3.1539,-3.0868,0.0,0.0,0.0,0.0,0.0,-2.8285,-2.9051,-3.0244,-3.2516,-3.2692,-3.283,-3.4839,-3.3508,-3.239,-3.4387,-3.3834,-3.342,-3.4793,-3.5516,-3.5881,-3.5968,-3.7211,-3.7952,-3.7337,-3.7425,-3.7287,0.0,0.0,-3.6671,0.0,0.0,0.0,0.0,0.0,0.0,-3.4324,-3.4035,-3.3646,-3.3136,-3.3124,-3.3124,-3.3124,-3.3124,-3.2516,-3.1399,-3.2583,-3.2478,-3.1436,-3.2566,-3.3124,-3.3048,0.0,-3.1361,-3.1298,-3.0168,-2.9741,-2.9792,-2.9792,-2.9792,-2.9792,-2.9792,-2.9792,-2.9792,0.0,0.0,0.0,0.0,0.0,0.0,0.0,0.0,0.0,0.0,0.0,0.0,0.0,0.0,0.0,0.0,0.0,0.0,0.0,0.0,-4.1779,-4.1221,-4.1204,-4.1119,-4.095,-4.183,-4.2574,-4.3122,-4.4113,-4.4181,-4.3375,-4.2439,-4.1412,-4.0304,-3.9113,-3.7964,-3.6828,-3.6086,-3.5759,0.0,0.0,0.0,0.0,0.0,0.0,0.0,0.0,0.0,0.0,0.0,0.0,0.0,0.0,0.0,0.0,-2.7354,-2.6927,-2.6612,-2.7165,-2.7996,-2.9327,-3.2014,-3.2591,-3.3282,-3.6307,-3.4412,-3.2692,-3.5006,-3.4041,-3.3232,-3.4605,-3.4768,-3.5127,-3.6405,-3.799,-3.8894,-3.8291,-3.7839,-3.7475,-3.7211,-3.6445,0.0,0.0,0.0,0.0,0.0,0.0,0.0,-3.3935,-3.3771,-3.3508,-3.3093,-3.3124,-3.3124,-3.3124,-3.3124,-3.2641,-3.18,-3.2667,-3.2616,-3.1813,-3.2679,-3.3006,-3.2792,-3.1399,-3.0947,-3.1097,-2.9704,-2.939,-2.9792,-2.9792,-2.9792,-2.9792,-2.9792,-2.9792,-2.9792,0.0,0.0,0.0,0.0,0.0,0.0,0.0,0.0,0.0,0.0,0.0,0.0,0.0,0.0,0.0,0.0,0.0,0.0,0.0,0.0,-4.1271,-4.1204,-4.1204,-4.0882,-4.0197,-4.1585,-4.232,-4.2371,-4.3887,-4.4181,-4.3409,-4.4045,-4.3217,-4.1116,-4.0984,-3.9756,-3.7661,-3.6859,-3.6468,-3.6417,-3.6462,0.0,0.0,0.0,0.0,0.0,0.0,0.0,0.0,0.0,0.0,0.0,0.0,0.0,-2.7324,-2.7304,-2.6927,-2.6612,-2.7165,-2.7708,-2.8699,-3.0947,-3.1148,-3.1788,-3.56,-3.3834,-3.2227,-3.4931,-3.4969,-3.4693,-3.532,-3.5019,-3.5253,-3.686,-3.7262,-3.7701,-3.868,0.0,-3.8404,-3.7312,-3.7111,0.0,0.0,0.0,0.0,0.0,0.0,0.0,-3.3909,-3.342,-3.3162,-3.3124,-3.3124,-3.3124,-3.3124,-3.3124,-3.3074,-3.2998,-3.3074,-3.3074,-3.2998,-3.3043,-3.278,-3.224,-3.1612,-3.1085,-3.062,-2.9993,-2.9754,-2.9792,-2.9792,-2.9792,-2.9792,-2.9792,-2.9792,-2.9792,0.0,0.0,0.0,0.0,0.0,0.0,0.0,0.0,0.0,0.0,0.0,0.0,0.0,0.0,0.0,0.0,0.0,0.0,0.0,-4.0104,-4.0536,-4.0536,-4.095,-4.0849,-4.013,-4.1551,-4.2286,-4.2286,-4.3853,-4.4445,-4.413,-4.3944,-4.3149,-4.1837,-4.0928,-3.9516,-3.7764,-3.6934,-3.6547,-3.6522,-3.6911,0.0,0.0,0.0,0.0,0.0,0.0,0.0,0.0,0.0,-3.0643,-2.9849,-2.8646,-2.7576,-2.6801,-2.6801,-2.6663,-2.6537,-2.6751,-2.7419,-2.8637,-3.0846,-3.0746,-3.1198,-3.5449,-3.4587,-3.3734,-3.6508,-3.5278,-3.3759,-3.3972,-3.4964,-3.5943,-3.6619,-3.7249,-3.7852,-3.8278,-3.804,-3.7663,-3.7236,0.0,0.0,0.0,0.0,0.0,0.0,0.0,0.0,-3.3407,-3.3194,-3.3124,-3.3124,-3.3124,-3.2905,-3.2541,-3.2541,-3.2365,-3.2039,-3.2742,-3.2747,-3.2039,-3.239,-3.2227,-3.1675,-3.1135,-3.0796,-3.057,-3.0018,-2.9792,-2.9792,-2.9792,-2.9792,-2.9792,-2.9792,-2.9792,-2.9792,0.0,0.0,0.0,0.0,0.0,0.0,0.0,0.0,0.0,0.0,0.0,0.0,0.0,0.0,0.0,0.0,0.0,0.0,-3.8261,-3.8764,-3.9152,-3.9378,-3.964,-3.9668,-3.9375,-4.06,-4.1569,-4.2286,-4.3853,-4.4479,-4.4198,-4.3927,-4.3132,-4.1905,-4.113,-3.9962,-3.8443,-3.7417,-3.7064,-3.7225,-3.7327,-3.7045,0.0,0.0,0.0,0.0,0.0,0.0,0.0,0.0,-3.0822,-3.0167,-2.8193,-2.7306,-2.6952,-2.66,-2.6499,-2.6499,-2.6499,-2.7052,-2.8122,-3.0331,-3.0193,-3.067,-3.5102,-3.4826,-3.4374,-3.6948,-3.5818,-3.4261,-3.3922,-3.4951,-3.5906,-3.6069,-3.6734,-3.7349,-3.7701,-3.7425,-3.7123,-3.6996,0.0,0.0,0.0,0.0,0.0,0.0,0.0,0.0,0.0,-3.3124,-3.3124,-3.3124,-3.2905,-3.2616,-3.2215,-3.2039,-3.1687,-3.116,-3.2102,-3.2139,-3.1399,-3.1788,-3.165,-3.1122,-3.0771,-3.052,-3.0331,-2.9942,-2.9792,-2.9792,-2.9792,-2.9792,-2.9792,-2.9792,-2.9792,-2.9792,0.0,0.0,0.0,0.0,0.0,0.0,0.0,0.0,0.0,0.0,0.0,0.0,0.0,0.0,0.0,0.0,0.0,0.0,-3.6795,-3.6795,-3.7114,-3.7752,-3.7161,-3.7126,-3.7806,-3.8523,-4.0001,-4.2286,-4.3809,-4.4164,-4.3392,-4.4198,-4.3352,-4.1238,-4.1982,-4.15,-3.9962,-3.8456,-3.8144,-3.8597,-3.7733,-3.703,0.0,0.0,0.0,0.0,0.0,0.0,0.0,0.0,-2.9747,-2.9057,-2.7138,-2.7253,-2.7883,-2.6813,-2.6499,-2.6487,-2.6499,-2.6499,-2.7027,-2.9239,-2.9365,-3.0054,-3.4455,-3.4248,-3.3765,-3.5952,-3.6784,-3.6835,-3.5683,-3.5044,-3.4868,-3.5408,-3.5495,-3.5884,-3.7023,-3.7174,-3.6973,0.0,0.0,0.0,0.0,0.0,0.0,0.0,0.0,0.0,0.0,-3.3124,-3.3124,-3.3111,-3.2516,-3.2202,-3.219,-3.165,-3.1122,-3.062,-3.1135,-3.1373,-3.1373,-3.1386,-3.1097,-3.0608,-3.0608,-3.0294,-2.9792,-2.9792,-2.9792,-2.9792,-2.9792,-2.9792,-2.9792,-2.9792,-2.9792,-2.9792,0.0,0.0,0.0,0.0,0.0,0.0,0.0,0.0,0.0,0.0,0.0,0.0,0.0,0.0,0.0,0.0,0.0,0.0,-3.5994,-3.6491,-3.7136,-3.7843,-3.7616,-3.7845,-3.8564,-3.8798,-3.9758,-4.1544,-4.1976,-4.2345,-4.2625,-4.2861,-4.2337,-4.1255,-4.2523,-4.1345,-3.8519,-3.916,-3.8536,-3.711,-3.6873,-3.6669,-3.6507,0.0,0.0,0.0,0.0,0.0,0.0,0.0,0.0,0.0,-2.8547,-2.7815,-2.7394,-2.67,-2.621,-2.6113,-2.7293,-2.709,-2.7027,-2.9239,-2.9955,-3.0417,-3.1734,-3.3194,-3.4525,-3.5567,-3.5871,-3.5579,-3.4085,-3.4939,-3.568,-3.5019,-3.5617,-3.6232,-3.6606,-3.627,-3.5968,0.0,0.0,0.0,0.0,0.0,0.0,0.0,0.0,0.0,0.0,-3.3124,-3.2893,0.0,-3.2303,-3.1851,-3.1097,-3.0934,-3.057,-3.0043,-3.0193,-3.0269,-3.0281,-3.067,-3.0545,-3.0043,-3.0043,-2.9942,-2.9792,-2.9792,-2.9792,-2.9792,-2.9792,-2.9792,-2.9792,-2.9792,-2.9792,-2.9792,0.0,0.0,0.0,0.0,0.0,0.0,0.0,0.0,0.0,0.0,-3.6789,-3.6772,0.0,0.0,0.0,0.0,0.0,0.0,0.0,-3.5654,-3.6093,-3.6472,-3.649,-3.6822,-3.7526,-3.7538,-3.8129,-3.9379,-4.059,-4.1266,-4.1439,-4.2028,-4.1745,-4.0798,-4.2016,-4.112,-3.8759,-3.9357,-3.8472,-3.6634,-3.6862,-3.6438,-3.5776,0.0,0.0,0.0,0.0,0.0,0.0,0.0,0.0,0.0,-2.9207,-2.8346,-2.7745,-2.6788,-2.6399,-2.654,-2.777,-2.777,-2.8021,-3.0482,-3.0846,-3.0611,-3.0728,-3.2215,-3.4126,-3.6078,-3.5499,-3.4462,-3.4017,-3.4373,-3.4535,-3.3862,-3.4602,-3.5239,-3.5239,-3.5217,0.0,0.0,0.0,0.0,0.0,0.0,0.0,0.0,0.0,0.0,0.0,-3.2855,0.0,0.0,-3.18,-3.1273,-3.062,-3.0407,-3.0118,-2.9792,-2.9792,-2.9792,-2.9804,-3.0131,-3.0105,-2.9792,-2.9792,-2.9792,-2.9792,-2.9792,-2.9792,-2.9792,-2.9792,-2.9792,-2.9792,-2.9792,-2.9792,-2.9792,0.0,0.0,0.0,0.0,0.0,0.0,0.0,0.0,0.0,0.0,-3.6163,-3.5994,0.0,0.0,0.0,0.0,0.0,0.0,0.0,0.0,-3.4644,-3.4505,-3.4632,-3.4957,-3.5474,-3.5504,-3.5831,-3.6492,-3.9366,-4.0475,-3.9918,-4.1274,-4.1225,-4.0011,-4.0788,-4.0645,-3.9859,-3.9199,-3.8052,-3.6722,-3.7225,-3.6245,-3.4628,-3.5859,0.0,0.0,0.0,0.0,0.0,0.0,0.0,0.0,-2.9416,-2.8844,-2.8499,-2.6964,-2.6889,-2.7444,-2.8147,-2.8586,-2.9503,-3.224,-3.1705,-3.0593,-3.1015,-3.1373,-3.2734,-3.6689,-3.5061,-3.3373,-3.4666,-3.3492,-3.2269,-3.2275,-3.2843,-3.3362,-3.3458,-3.4022,0.0,0.0,0.0,0.0,0.0,0.0,0.0,0.0,0.0,0.0,0.0,-3.2503,0.0,-3.2077,-3.1122,-3.0595,-3.0545,-3.0043,-2.9792,0.0,-2.9792,-2.9792,-2.9792,-2.9792,-2.9792,-2.9792,-2.9792,-2.9792,-2.9792,-2.9792,-2.9792,-2.9792,-2.9792,-2.9792,-2.9792,-2.9792,-2.9792,-2.9792,0.0,0.0,0.0,0.0,0.0,0.0,0.0,0.0,0.0,0.0,0.0,0.0,0.0,0.0,0.0,0.0,0.0,0.0,0.0,0.0,-3.5361,-3.5346,-3.5859,-3.5952,-3.5504,-3.5504,-3.5587,-3.5718,-3.6987,-3.7834,-3.8305,-3.8622,-3.8918,-3.9199,-3.9989,-3.9616,-3.8413,-3.8823,-3.7761,-3.5869,-3.5981,-3.5403,-3.4539,-3.4817,-3.4501,0.0,0.0,0.0,0.0,0.0,0.0,0.0,-3.0187,-2.9117,-2.8047,-2.6851,-2.6889,-2.7695,-2.9566,-2.9202,-2.8837,-3.1173,-3.0719,-3.0075,-3.1677,-3.0651,-3.0161,-3.2928,-3.2309,-3.158,-3.2705,-3.26,-3.2208,-3.1887,-3.1977,-3.2319,-3.2936,-3.2819,0.0,0.0,0.0,0.0,0.0,0.0,0.0,0.0,0.0,0.0,-3.2416,0.0,0.0,-3.0984,-3.0733,-3.0407,-2.998,-2.9854,-2.9792,0.0,-2.9792,-2.9792,-2.9792,-2.9792,-2.9792,-2.9792,-2.9792,-2.9792,-2.9792,-2.9792,-2.9792,-2.9792,-2.9792,-2.9792,-2.9792,-2.9792,-2.9792,-2.9792,0.0,0.0,0.0,0.0,0.0,0.0,0.0,0.0,0.0,0.0,0.0,0.0,0.0,0.0,0.0,0.0,0.0,0.0,0.0,-3.4695,-3.5094,-3.507,-3.5421,-3.5546,-3.5489,-3.5504,-3.5504,-3.5504,-3.5561,-3.6153,-3.7233,-3.7632,-3.8189,-3.8908,-3.8974,-3.8583,-3.7939,-3.8311,-3.719,-3.5169,-3.5851,-3.5268,-3.4063,-3.4372,-3.4073,-3.3544,-3.3888,0.0,0.0,0.0,0.0,0.0,0.0,0.0,-2.8433,-2.6952,-2.67,-2.7291,-2.895,-2.9365,-2.9905,-3.2365,-3.2381,-3.1762,-3.1585,-3.046,-2.9576,-2.9991,-2.9782,-2.988,-3.0896,-3.0544,-2.9947,-2.9534,-2.9756,-3.0143,-3.0608,-3.0766,0.0,0.0,0.0,0.0,0.0,0.0,0.0,0.0,0.0,-3.2528,-3.2227,-3.1725,-3.1198,-3.0633,-3.0357,-3.008,-2.9792,-2.9792,-2.9792,-2.9792,-2.9792,-2.9792,-2.9792,-2.9792,-2.9792,-2.9792,-2.9792,-2.9792,-2.9792,-2.9792,-2.9792,-2.9792,-2.9792,-2.9792,-2.9792,-2.9792,-2.9792,-2.9792,0.0,0.0,0.0,0.0,0.0,0.0,0.0,0.0,0.0,0.0,0.0,0.0,0.0,0.0,0.0,0.0,0.0,0.0,0.0,-3.4034,-3.4401,-3.4322,-3.4334,-3.4577,-3.5145,-3.516,-3.516,-3.516,-3.4592,-3.515,-3.6754,-3.7305,-3.8017,-3.8823,-3.7965,-3.7616,-3.7687,-3.7434,-3.6346,-3.4859,-3.5918,-3.518,-3.3562,-3.3996,-3.3737,-3.317,-3.329,-3.332,-3.335,-3.3455,0.0,0.0,0.0,0.0,-2.8922,-2.7212,-2.6653,-2.6876,-2.7946,-2.9465,-3.1279,-3.3657,-3.3959,-3.3122,-3.1013,-3.0213,-2.9477,-2.791,-2.7891,-2.8407,-2.9116,-2.8347,-2.7412,-2.6973,-2.7461,-2.7959,-2.8059,-2.8697,0.0,0.0,0.0,0.0,0.0,0.0,0.0,0.0,0.0,-3.2127,-3.1938,-3.1097,-3.057,-3.047,-3.003,-2.9792,-2.9792,-2.9792,-2.9792,-2.9792,-2.9792,-2.9792,-2.9792,-2.9792,-2.9792,-2.9792,-2.9792,-2.9792,-2.9792,-2.9792,-2.9792,-2.9792,-2.9792,-2.9792,-2.9792,-2.9792,-2.9792,-2.9792,0.0,0.0,0.0,0.0,0.0,0.0,0.0,0.0,0.0,0.0,-3.6795,-3.6485,-3.5684,-3.503,0.0,0.0,0.0,0.0,-3.3423,0.0,0.0,-3.3612,-3.3637,-3.3664,-3.3769,-3.3769,-3.3769,-3.3769,-3.3679,-3.4895,-3.7289,-3.6881,-3.7373,-3.859,-3.728,-3.674,-3.6786,-3.5555,-3.5211,-3.5424,-3.5022,-3.4364,-3.3534,-3.3049,-3.2407,-3.1839,-3.2437,-3.2647,-3.2736,-3.3305,-3.2882,0.0,0.0,0.0,-2.8486,-2.7754,-2.7387,-2.7419,-2.8511,-3.003,-3.1464,-3.2102,-3.1532,-3.0614,-2.999,-2.9016,-2.8097,-2.7276,-2.7441,-2.766,-2.7424,-2.7192,-2.6963,-2.6543,-2.6566,-2.6872,-2.7593,0.0,0.0,0.0,0.0,0.0,0.0,0.0,0.0,0.0,-3.2252,-3.1813,-3.0871,-3.0696,-3.0394,-2.9917,-2.9829,-2.9792,-2.9792,-2.9792,-2.9792,-2.9792,-2.9792,-2.9792,-2.9792,-2.9792,-2.9792,-2.9792,-2.9792,-2.9792,-2.9792,-2.9792,-2.9792,-2.9792,-2.9792,-2.9792,-2.9792,-2.9792,-2.9792,-2.9792,0.0,0.0,0.0,0.0,0.0,0.0,0.0,0.0,0.0,0.0,0.0,-3.6485,-3.5684,-3.4573,0.0,0.0,0.0,0.0,-3.2845,-3.2537,0.0,0.0,-3.2549,-3.2736,-3.3484,-3.314,-3.3125,-3.3499,-3.2362,-3.4128,-3.8512,-3.7479,-3.7788,-3.9135,-3.8467,-3.7429,-3.607,-3.5049,-3.4561,-3.4414,-3.3763,-3.3306,-3.3013,-3.2722,-3.2132,-3.154,-3.1824,-3.1929,-3.1974,-3.2273,-3.2109,-3.1628,-3.0911,0.0,0.0,0.0,-2.7077,-2.6791,-2.885,-2.9478,-3.0201,-3.2806,-3.1589,-2.9846,-3.0281,-2.8913,-2.7383,-2.6813,-2.6816,-2.6894,-2.6699,-2.666,-2.6523,-2.6094,-2.6025,-2.6143,-2.6506,0.0,0.0,0.0,0.0,0.0,0.0,0.0,0.0,0.0,-3.1662,-3.111,-3.0645,-3.0319,-3.0043,-2.9804,-2.9792,-2.9792,-2.9792,-2.9792,-2.9792,-2.9792,-2.9792,-2.9792,-2.9792,-2.9792,-2.9792,-2.9792,-2.9792,-2.9792,-2.9792,-2.9792,-2.9792,-2.9792,-2.9792,-2.9792,-2.9792,-2.9792,-2.9792,-2.9792,0.0,0.0,0.0,0.0,0.0,0.0,0.0,0.0,0.0,0.0,0.0,-3.6265,-3.5667,0.0,0.0,0.0,0.0,0.0,-3.2132,0.0,0.0,0.0,0.0,-3.163,-3.2482,-3.2347,-3.2422,-3.2736,-3.142,-3.3484,-3.8661,-3.7973,-3.8424,-3.9784,-3.9562,-3.8318,-3.6318,-3.5094,-3.4473,-3.4249,-3.3242,-3.2725,-3.2574,-3.2382,-3.1979,-3.1511,-3.1511,-3.1511,-3.1511,-3.1511,-3.1511,-3.1409,-3.0807,-3.0011,0.0,0.0,0.0,-2.6276,-2.8373,-2.8436,-2.88,-3.2541,-3.104,-2.893,-2.9806,-2.8312,-2.6572,-2.6024,-2.6064,-2.6221,-2.6221,-2.6221,-2.6113,-2.5742,-2.5693,-2.5693,-2.5693,0.0,0.0,0.0,0.0,0.0,0.0,0.0,0.0,0.0,-3.0704,-3.0241,-3.0367,-3.0018,-2.9792,-2.9792,-2.9792,-2.9792,-2.9792,-2.9792,-2.9792,-2.9792,-2.9792,-2.9792,-2.9792,-2.9792,-2.9792,-2.9792,-2.9792,-2.9792,-2.9792,-2.9792,-2.9792,-2.9792,-2.9792,-2.9792,-2.9792,-2.9792,-2.9792,-2.9792,0.0,0.0,0.0,0.0,0.0,0.0,0.0,0.0,0.0,0.0,0.0,0.0,-3.56,-3.4264,-3.3102,-3.2361,0.0,0.0,0.0,0.0,0.0,0.0,0.0,0.0,-2.9816,-3.0943,-3.1256,-3.0657,-3.1182,-3.3215,-3.6671,-3.7808,-3.9071,-4.0336,-3.967,-3.9016,-3.8192,-3.5594,-3.5224,-3.6178,-3.4248,-3.3098,-3.2504,-3.1824,-3.1524,-3.1511,-3.1511,-3.1511,-3.1511,-3.1511,-3.1511,-3.1511,-3.1438,-3.0866,-3.0042,0.0,0.0,0.0,-2.6625,-2.7002,-2.777,-2.9591,-2.8376,-2.6865,-2.7391,-2.6455,-2.531,-2.4654,-2.5138,-2.5723,-2.5723,-2.5723,-2.5713,-2.5693,-2.5693,-2.5693,-2.5693,0.0,0.0,0.0,0.0,0.0,0.0,0.0,0.0,0.0,-2.9272,-2.9258,-2.9816,-2.9817,-2.9792,-2.9792,-2.9792,-2.9792,-2.9792,-2.9792,-2.9792,-2.9792,-2.9792,-2.9792,-2.9792,-2.9792,-2.9792,-2.9792,-2.9792,-2.9792,-2.9792,-2.9792,-2.9792,-2.9792,-2.9792,-2.9792,-2.9792,-2.9792,-2.9792,-2.9792,0.0,0.0,0.0,0.0,0.0,0.0,0.0,0.0,0.0,0.0,0.0,0.0,0.0,-3.4264,-3.3288,-3.3034,-3.1901,0.0,0.0,0.0,0.0,0.0,0.0,0.0,-3.0793,-3.0477,-3.0567,-3.1137,-2.9699,-3.1345,-3.5848,-3.5429,-3.6402,-3.8556,-4.0457,-3.9574,-3.6544,-3.6014,-3.5064,-3.3946,-3.4076,-3.3501,-3.2562,-3.2706,-3.2796,-3.2736,-3.2288,-3.2437,-3.2721,-3.2273,-3.1854,-3.1511,-3.1511,-3.097,-3.0011,-2.8588,-2.711,-2.6172,-2.7218,-2.6628,-2.6276,-2.8649,-2.7579,-2.5997,-2.6154,-2.6038,-2.5434,-2.3964,-2.4746,-2.5518,-2.4953,-2.5304,-2.5693,-2.5693,-2.5693,-2.5693,-2.5693,0.0,0.0,0.0,0.0,0.0,0.0,0.0,0.0,0.0,0.0,0.0,-2.974,-2.9101,-2.9038,-2.9767,-2.9792,-2.9792,-2.9792,-2.9792,-2.9792,-2.9792,-2.9792,-2.9792,-2.9792,-2.9792,-2.9792,-2.9792,-2.9792,-2.9792,-2.9792,-2.9792,-2.9792,-2.9792,-2.9792,-2.9792,-2.9792,-2.9792,-2.9792,-2.9792,0.0,0.0,0.0,0.0,0.0,0.0,0.0,0.0,-3.6874,-3.6113,0.0,0.0,0.0,0.0,-3.3575,-3.3108,-3.2165,-3.1349,-3.0696,-3.0703,0.0,0.0,0.0,0.0,-3.0853,-3.0447,-3.0552,-3.1152,-2.9654,-3.0717,-3.4141,-3.3933,-3.4756,-3.6537,-3.9236,-3.8931,-3.6507,-3.6941,-3.6103,-3.4487,-3.4472,-3.4083,-3.3514,-3.3499,-3.3634,-3.3799,-3.3589,-3.3649,-3.3754,-3.332,-3.2736,-3.2123,-3.1914,-3.1146,-3.0011,-2.8556,-2.7262,-2.6434,-2.7075,-2.6189,-2.5523,-2.7356,-2.6298,-2.4866,-2.5079,-2.5537,-2.5474,-2.377,-2.4965,-2.6018,-2.5008,-2.5294,-2.5693,-2.5693,-2.5693,-2.5693,-2.5693,0.0,0.0,0.0,0.0,0.0,0.0,0.0,0.0,0.0,0.0,0.0,-2.9364,-2.8974,-2.9013,-2.9767,-2.9792,-2.9792,-2.9792,-2.9792,-2.9792,-2.9792,-2.9792,-2.9792,-2.9792,-2.9792,-2.9792,-2.9792,-2.9792,-2.9792,-2.9792,-2.9792,-2.9792,-2.9792,-2.9792,-2.9792,-2.9792,-2.9792,-2.9792,-2.9792,0.0,0.0,0.0,0.0,0.0,0.0,0.0,0.0,-3.7669,-3.6931,0.0,0.0,0.0,0.0,0.0,-3.2622,-3.2432,-3.2124,-3.1518,-3.1445,0.0,0.0,0.0,0.0,-2.9696,-3.0881,-3.1182,-3.0537,-3.1152,-3.1481,-3.154,-3.3469,-3.4384,-3.4444,-3.5789,-3.7075,-3.8227,-3.8302,-3.8287,-3.8003,-3.5582,-3.4906,-3.528,-3.4053,-3.3948,-3.4578,-3.5265,-3.51,-3.4533,-3.4563,-3.4099,-3.338,-3.2706,-3.147,-3.0133,-2.9254,-2.8363,-2.7419,0.0,0.0,0.0,-2.5573,-2.4441,-2.3487,-2.4031,-2.4903,-2.5213,-2.4022,-2.5821,-2.7185,-2.5886,-2.5693,-2.5713,-2.5664,-2.5674,-2.5693,-2.5693,0.0,0.0,0.0,0.0,0.0,0.0,0.0,0.0,0.0,0.0,-2.7557,-2.8757,-2.9453,-2.9792,-2.9792,-2.9792,-2.9792,-2.9792,-2.9792,-2.9792,-2.9792,-2.9792,-2.9792,-2.9792,-2.9792,-2.9792,-2.9792,-2.9792,-2.9792,-2.9792,-2.9792,-2.9792,-2.9792,-2.9792,-2.9792,-2.9792,-2.9792,-2.9792,-2.9792,0.0,0.0,0.0,0.0,0.0,-3.9859,-3.9106,-3.8819,-3.843,0.0,0.0,0.0,-3.6518,-3.5284,-3.4558,-3.4701,-3.3299,-3.2572,-3.2967,-3.2446,-3.1845,-3.1252,-3.1866,-3.1824,-3.0987,-3.1316,-3.1406,-3.1212,-3.0913,-3.1017,-3.1511,-3.1584,-3.1599,-3.1689,-3.3514,-3.4262,-3.4262,-3.6193,-3.5908,-3.4292,-3.5923,-3.5295,-3.3514,-3.507,-3.4876,-3.3978,-3.5624,-3.5789,-3.5295,-3.5774,-3.4846,-3.3305,-3.2123,-3.1102,-3.0133,-2.9254,-2.8363,-2.7478,-2.6523,0.0,0.0,0.0,0.0,0.0,-2.3203,-2.3968,-2.4642,-2.3753,-2.5164,-2.6195,-2.5223,-2.5813,-2.6162,-2.5387,-2.5527,-2.5693,-2.5693,0.0,0.0,0.0,0.0,0.0,0.0,0.0,0.0,0.0,-2.5744,-2.622,-2.8651,-2.9453,-2.9792,-2.9792,-2.9792,-2.9792,-2.9792,-2.9792,-2.9792,-2.9792,-2.9792,-2.9792,-2.9792,-2.9792,-2.9792,-2.9792,-2.9792,-2.9792,-2.9792,-2.9792,-2.9792,-2.9792,-2.9792,-2.9792,-2.9792,-2.9792,-2.9792,-2.9792,0.0,0.0,0.0,-3.9907,-3.9427,-3.8997,-3.8557,-3.8242,-3.7895,0.0,0.0,0.0,-3.6365,-3.5257,-3.4691,-3.5117,-3.3742,-3.3048,-3.3524,-3.3374,-3.285,-3.1973,-3.2572,-3.2452,-3.1525,-3.1765,-3.178,-3.1511,-3.1376,-3.127,-3.1062,-3.0687,-3.0507,-3.0552,-3.1734,-3.2198,-3.2198,-3.4053,-3.4577,-3.4322,-3.5953,-3.5953,-3.51,-3.6387,-3.6312,-3.5729,-3.718,-3.7285,-3.6761,-3.715,-3.5774,-3.3724,-3.2677,-3.1619,-3.0687,-3.008,-2.9118,-2.8051,-2.7229,-2.6506,-2.5921,-2.5586,0.0,0.0,-2.3652,-2.4641,-2.5445,-2.448,-2.6029,-2.7099,-2.5611,-2.5958,-2.6157,-2.5254,-2.5285,-2.5523,-2.5654,0.0,0.0,0.0,0.0,0.0,0.0,-2.626,-2.6133,-2.6567,-2.5817,-2.6379,-2.8675,-2.9453,-2.9792,-2.9792,-2.9792,-2.9792,-2.9792,-2.9792,-2.9792,-2.9792,-2.9792,-2.9792,-2.9792,-2.9792,-2.9792,-2.9792,-2.9792,-2.9792,-2.9792,-2.9792,-2.9792,-2.9792,-2.9792,-2.9792,-2.9792,-2.9792,-2.9792,-2.9792,0.0,0.0,-3.8697,-3.803,-3.787,-3.7793,-3.7793,-3.7249,-3.6805,0.0,-3.6186,-3.576,-3.584,-3.5112,-3.4678,-3.4854,-3.4027,-3.3604,-3.3818,-3.425,-3.3979,-3.2781,-3.329,-3.3021,-3.175,-3.2392,-3.2348,-3.1615,-3.2273,-3.1928,-3.0612,-3.0612,-3.0567,-3.0507,-3.0507,-3.0823,-3.1436,-3.2019,-3.3709,-3.5908,-3.5624,-3.6492,-3.7928,-3.7629,-3.7704,-3.8078,-3.8975,-3.8781,-3.8063,-3.8063,-3.6522,-3.4474,-3.3649,-3.2557,-3.1544,-3.1208,-3.0162,-2.8939,-2.7953,-2.7196,-2.6586,-2.637,-2.5548,0.0,-2.4625,-2.5774,-2.6561,-2.554,-2.7308,-2.8427,-2.6341,-2.5995,-2.5812,-2.508,-2.5074,-2.5224,-2.5496,0.0,0.0,0.0,0.0,0.0,-2.708,-2.666,-2.6387,-2.6387,-2.6672,-2.7335,-2.8556,-2.9374,-2.9792,-2.9792,-2.9792,-2.9792,-2.9792,-2.9792,-2.9792,-2.9792,-2.9792,-2.9792,-2.9792,-2.9792,-2.9792,-2.9792,-2.9792,-2.9792,-2.9792,-2.9792,-2.9792,-2.9792,-2.9792,-2.9792,-2.9792,-2.9792,-2.9792,-2.9792,0.0,-3.8809,-3.8857,-3.8713,-3.8174,-3.7793,-3.7793,-3.7665,-3.7585,-3.7585,-3.6933,-3.671,-3.7329,-3.5715,-3.5293,-3.7001,-3.4914,-3.422,-3.5907,-3.5075,-3.4399,-3.4098,-3.4249,-3.3918,-3.3125,-3.3754,-3.3514,-3.2288,-3.2976,-3.2632,-3.1301,-3.1301,-3.1017,-3.0507,-3.0507,-3.0582,-3.0717,-3.0836,-3.1509,-3.2647,-3.4696,-3.54,-3.5492,-3.7449,-3.6971,-3.5567,-3.7778,-3.7509,-3.6073,-3.6073,-3.5729,-3.4996,-3.326,-3.2527,-3.205,-3.0845,-3.0264,-2.969,-2.8149,-2.7571,-2.7096,-2.5512,-2.4938,0.0,-2.3647,-2.3684,-2.4098,-2.4801,-2.5342,-2.5622,-2.5141,-2.5326,-2.5211,-2.4203,-2.4718,-2.5137,-2.4713,-2.5361,0.0,0.0,0.0,0.0,-2.7523,-2.6846,-2.6387,-2.6387,-2.71,-2.7501,-2.7434,-2.8951,-2.9792,-2.9792,-2.9792,-2.9792,-2.9792,-2.9792,-2.9792,-2.9792,-2.9792,-2.9792,-2.9792,-2.9792,-2.9792,-2.9792,-2.9792,-2.9792,-2.9792,-2.9792,-2.9792,-2.9792,-2.9792,-2.9792,-2.9792,-2.9792,-2.9792,-2.9792,-3.7266,-3.7188,-3.7188,-3.7188,-3.6909,-3.6662,-3.6662,-3.6662,-3.6785,-3.7095,-3.6832,-3.6615,-3.6662,-3.5392,-3.4974,-3.6072,-3.4848,-3.4455,-3.546,-3.5205,-3.4863,-3.4518,-3.4503,-3.4204,-3.3499,-3.4174,-3.3993,-3.3006,-3.3335,-3.2991,-3.1974,-3.1301,-3.1195,-3.148,-3.0806,-3.0881,-3.1495,-3.1122,-3.1376,-3.2198,-3.4562,-3.5295,-3.5235,-3.7524,-3.7569,-3.6552,-3.7539,-3.727,-3.6312,-3.5325,-3.522,-3.522,-3.3529,-3.2557,-3.187,-3.1117,-3.0395,-2.9671,-2.9139,-2.8363,-2.7394,-2.6168,-2.5332,0.0,0.0,-2.3747,-2.4111,-2.4675,-2.5259,-2.5457,-2.4893,-2.4964,-2.4835,-2.3929,-2.42,-2.4371,-2.3845,-2.5117,0.0,0.0,0.0,0.0,-2.9867,-2.8612,-2.7241,-2.6143,-2.6578,-2.7031,-2.7386,-2.8414,-2.9197,-2.9792,-2.9792,-2.9792,-2.9792,-2.9792,-2.9792,-2.9792,-2.9792,-2.9792,-2.9792,-2.9792,-2.9792,-2.9792,-2.9792,-2.9792,-2.9792,-2.9792,-2.9792,-2.9792,-2.9792,-2.9792,-2.9792,-2.9792,-2.9792,-2.9792,-3.5619,-3.5504,-3.5504,-3.5504,-3.5504,-3.5504,-3.5504,-3.5504,-3.5699,-3.6237,-3.6297,-3.6237,-3.6088,-3.5115,-3.4758,-3.5402,-3.5117,-3.4833,-3.4713,-3.531,-3.534,-3.4533,-3.4384,-3.4158,-3.3888,-3.4309,-3.4249,-3.3679,-3.3559,-3.3155,-3.2452,-3.127,-3.1285,-3.2243,-3.1195,-3.1375,-3.2452,-3.1914,-3.2064,-3.2886,-3.4891,-3.5534,-3.5519,-3.7464,-3.8048,-3.7764,-3.724,-3.7045,-3.6761,-3.4906,-3.4666,-3.4906,-3.3694,-3.2407,-3.1331,-3.1466,-3.0483,-2.9435,-2.9794,-2.8906,-2.7603,-2.6776,-2.5715,-2.4665,0.0,0.0,0.0,-2.4462,-2.5197,-2.5548,-2.4625,0.0,0.0,0.0,0.0,0.0,0.0,-2.49,0.0,0.0,0.0,0.0,0.0,-2.9477,-2.7762,-2.6189,-2.6326,-2.6797,-2.7644,-2.8257,-2.8968,-2.9753,-2.9792,-2.9792,-2.9792,-2.9792,-2.9792,-2.9792,-2.9792,-2.9792,-2.9792,-2.9792,-2.9792,-2.9792,-2.9792,-2.9792,-2.9792,-2.9792,-2.9792,-2.9792,-2.9792,-2.9792,-2.9792,-2.9792,-2.9792,-2.9792,-3.5537,-3.5504,-3.5504,-3.5504,-3.5504,-3.5504,-3.5504,-3.5504,-3.5534,-3.5609,-3.5609,-3.6237,-3.7883,-3.5908,-3.5654,-3.8601,-3.727,-3.6013,-3.5429,-3.6013,-3.5804,-3.4563,-3.3918,-3.4128,-3.525,-3.4788,-3.4474,-3.4399,-3.3784,-3.3155,-3.2467,-3.1735,-3.1466,-3.1615,-3.1451,-3.1795,-3.2512,-3.2437,-3.2781,-3.3559,-3.5564,-3.5654,-3.4833,-3.6776,-3.6821,-3.5818,-3.5744,-3.5729,-3.5504,0.0,-3.3664,-3.3604,-3.2856,-3.1704,-3.0746,-3.1331,-3.0572,-2.9411,-2.8712,-2.8397,-2.7763,-2.5782,-2.5174,-2.4749,-2.3472,0.0,-2.3296,-2.3296,0.0,0.0,0.0,0.0,0.0,0.0,0.0,0.0,-2.3746,-2.4335,-2.4554,0.0,0.0,0.0,0.0,-2.6378,-2.6583,-2.7348,-2.756,-2.7699,-2.7688,-2.9378,-3.0163,-2.9804,-2.9792,-2.9792,-2.9792,-2.9792,-2.9792,-2.9792,-2.9792,-2.9792,-2.9792,-2.9792,-2.9792,-2.9792,-2.9792,-2.9792,-2.9792,-2.9792,-2.9792,-2.9792,-2.9792,-2.9792,-2.9792,-2.9792,-2.9792,-2.9792,-3.5504,-3.5504,-3.5504,-3.5504,-3.5504,-3.5504,-3.5504,-3.6133,-3.6492,-3.6118,-3.6387,-3.7225,-3.8811,-3.7644,-3.7629,-3.9798,-3.9589,-3.8886,-3.7838,-3.7659,-3.7165,-3.6222,-3.4816,-3.4322,-3.4906,-3.4653,-3.4324,-3.3903,-3.3634,-3.3155,-3.2497,-3.1809,-3.1705,-3.2049,-3.1675,-3.2288,-3.3604,-3.2841,-3.311,-3.4098,-3.4562,-3.4412,-3.4158,-3.6507,-3.6611,-3.54,-3.4622,-3.4846,-3.519,0.0,-3.338,0.0,0.0,0.0,0.0,-3.1869,-3.0642,-2.917,-2.9951,0.0,0.0,0.0,0.0,0.0,-2.4418,0.0,-2.3108,0.0,0.0,0.0,0.0,0.0,0.0,0.0,-2.3308,0.0,0.0,0.0,-2.4147,0.0,0.0,0.0,0.0,0.0,0.0,0.0,0.0,-2.6696,-2.7748,-2.8968,-2.9671,-2.9804,-2.9792,-2.9792,-2.9792,-2.9792,-2.9792,-2.9792,-2.9792,-2.9792,-2.9792,-2.9792,-2.9792,-2.9792,-2.9792,-2.9792,-2.9792,-2.9792,-2.9792,-2.9792,-2.9792,-2.9792,-2.9792,-2.9792,-2.9792,-2.9792,-3.5504,-3.5504,-3.5504,-3.5504,-3.5504,-3.5504,-3.5504,-3.6582,-3.7315,-3.7045,-3.7404,-3.8332,-4.0038,-3.896,-3.8945,-4.1025,-4.1309,-4.0905,-3.9768,-3.905,-3.8377,-3.7704,-3.5444,-3.4488,-3.5058,-3.4698,-3.4279,-3.3769,-3.3589,-3.3155,-3.2497,-3.1809,-3.157,-3.1704,-3.1555,-3.2303,-3.3649,-3.323,-3.3814,-3.5058,-3.4891,-3.4726,-3.4711,-3.6088,-3.6148,-3.537,-3.4397,-3.4681,-3.516,-3.2826,-3.3319,0.0,-3.2647,0.0,-3.1675,0.0,0.0,0.0,-3.1122,0.0,0.0,0.0,0.0,0.0,0.0,0.0,0.0,0.0,0.0,0.0,0.0,0.0,-2.3108,-2.3108,0.0,-2.3158,0.0,-2.3346,0.0,0.0,0.0,0.0,0.0,0.0,0.0,0.0,0.0,0.0,-2.7827,-2.881,-2.9499,-2.9804,-2.9792,-2.9792,-2.9792,-2.9792,-2.9792,-2.9792,-2.9792,-2.9792,-2.9792,-2.9792,-2.9792,-2.9792,-2.9792,-2.9792,-2.9792,-2.9792,-2.9792,-2.9792,-2.9792,-2.9792,-2.9792,-2.9792,-2.9792,-2.9792,-3.5504,-3.5504,-3.5504,-3.5504,-3.5504,-3.5504,-3.5504,-3.6582,-3.7629,-3.8242,-3.8347,-3.9349,-4.2021,-3.9379,-3.9005,-4.2856,-4.2102,-4.11,-4.0412,-3.9753,-3.908,-3.8392,-3.525,-3.4442,-3.6372,-3.5177,-3.4503,-3.4474,-3.3799,-3.3155,-3.2497,-3.1809,-3.0838,-2.9756,-3.0957,-3.154,-3.172,-3.3619,-3.5222,-3.6522,-3.7749,-3.7853,-3.709,0.0,-3.4966,-3.5504,-3.5459,0.0,0.0,-3.3903,-3.3484,0.0,0.0,0.0,0.0,0.0,0.0,0.0,0.0,0.0,0.0,-2.9726,0.0,0.0,0.0,0.0,-2.4747,0.0,0.0,0.0,0.0,-2.3108,-2.3108,-2.3108,-2.3108,0.0,0.0,0.0,0.0,0.0,0.0,0.0,0.0,0.0,0.0,0.0,0.0,0.0,-2.7844,-2.9595,-3.0317,-2.9817,-2.9792,-2.9792,-2.9792,-2.9792,-2.9792,-2.9792,-2.9792,-2.9792,-2.9792,-2.9792,-2.9792,-2.9792,-2.9792,-2.9792,-2.9792,-2.9792,-2.9792,-2.9792,-2.9792,-2.9792,-2.9792,-2.9792,-2.9792,-2.9792,-3.5669,-3.5504,-3.5504,-3.5504,-3.5504,-3.5504,-3.5504,-3.6237,-3.7345,-3.8871,-3.9065,-4.0412,-4.3913,-4.291,-4.2686,-4.4481,-4.505,-4.4646,-4.309,-4.2333,-4.187,-4.163,-3.8497,-3.6656,-3.6492,-3.5609,-3.4292,-3.2497,-3.3185,-3.2931,-3.1824,-3.1615,-3.1271,-3.0866,-3.0823,-3.1584,-3.2901,-3.4008,-3.5282,-3.6492,-3.6492,-3.6342,-3.6073,0.0,0.0,-3.5504,-3.5504,-3.5504,0.0,-3.3948,-3.4083,-3.4666,-3.3784,-3.3185,-3.3095,-3.4442,-3.326,0.0,0.0,0.0,-3.2541,-3.1466,0.0,0.0,0.0,0.0,0.0,0.0,0.0,0.0,0.0,-2.3108,-2.3108,-2.3108,-2.3108,-2.3308,0.0,0.0,0.0,0.0,0.0,0.0,0.0,0.0,0.0,0.0,-2.5069,0.0,0.0,-2.835,-2.9252,-2.8699,-2.9402,-2.9792,-2.9792,-2.9792,-2.9792,-2.9792,-2.9792,-2.9591,-2.9239,-2.9616,-2.9578,-2.9239,-2.9628,-2.9792,-2.9792,-2.9792,-2.9792,-2.9792,-2.9792,-2.9792,-2.9792,-2.9792,-2.9792,-2.9792,-3.5804,-3.5504,-3.5504,-3.5504,-3.5504,-3.5654,-3.6118,-3.6731,-3.8033,-4.0449,-4.0606,-4.1698,-4.4945,-4.4496,-4.4332,-4.5214,-4.5663,-4.5544,-4.4721,-4.318,-4.2662,-4.3604,-4.0277,-3.8347,-3.8227,-3.6881,-3.534,-3.3588,-3.3544,-3.3066,-3.2183,-3.1481,-3.1017,-3.0793,-3.0612,-3.1067,-3.2092,-3.3625,-3.4611,-3.5122,-3.5232,-3.544,0.0,0.0,-3.502,-3.5504,0.0,-3.5504,-3.537,-3.4502,-3.4786,-3.5355,-3.4487,-3.4203,-3.4382,-3.525,-3.4292,-3.3034,-3.3543,-3.3921,0.0,-3.2753,-3.2135,0.0,-3.016,0.0,0.0,0.0,0.0,0.0,0.0,0.0,-2.3572,-2.317,-2.3283,-2.3703,0.0,-2.5159,0.0,0.0,0.0,-2.4476,0.0,0.0,-2.3203,-2.4215,-2.4,0.0,0.0,0.0,-2.8127,-2.7112,-2.8464,-2.9197,-2.9197,-2.9197,-2.9404,-2.9792,-2.9404,-2.8913,-2.8421,-2.8741,-2.8716,-2.8434,-2.9162,-2.9603,-2.9792,-2.9792,-2.9792,-2.9792,-2.9792,-2.9792,-2.9792,-2.9792,-2.9792,-2.9792,-3.5878,-3.5534,-3.5549,-3.5504,-3.5549,-3.6013,-3.727,-3.8048,-3.9634,-4.2781,-4.2776,-4.3219,-4.508,-4.4242,-4.3947,-4.511,-4.4122,-4.3888,-4.5125,-4.2312,-4.1758,-4.4347,-4.0786,-3.9574,-4.1384,-3.8916,-3.7524,-3.736,-3.4831,-3.3574,-3.3499,-3.1495,-3.0253,-2.9771,-3.0268,-3.0084,-2.9548,-3.2604,-3.3422,-3.2816,-3.4228,-3.5217,-3.5669,-3.383,-3.4057,-3.5404,-3.5374,-3.5359,-3.5359,-3.5359,-3.5392,-3.5439,-3.5359,-3.5392,-3.5439,-3.5359,-3.5392,-3.5213,-3.4211,-3.4658,-3.5032,-3.3469,0.0,0.0,0.0,0.0,-3.0631,0.0,0.0,0.0,0.0,0.0,0.0,-2.3396,-2.3684,-2.4431,-2.5423,0.0,-2.5435,0.0,0.0,-2.5447,-2.291,-2.2879,-2.2914,-2.2665,-2.2868,-2.3351,0.0,0.0,-2.7052,-2.5249,-2.6932,-2.7949,-2.8096,-2.8036,-2.8588,-2.9702,-2.8609,-2.7862,-2.7412,-2.7296,-2.7335,-2.7529,-2.8484,-2.9201,-2.9792,-2.9792,-2.9792,-2.9792,-2.9753,-2.9702,-2.9702,-2.9702,-2.9753,-2.9792,-3.5789,-3.5893,-3.6088,-3.5594,-3.6282,-3.7195,-3.8018,-3.914,-4.0367,-4.1698,-4.3015,-4.4197,-4.5185,-4.5888,-4.5633,-4.4018,-4.4436,-4.4526,-4.3883,-4.3509,-4.4272,-4.6441,-4.4601,-4.309,-4.2162,-4.0965,-3.917,-3.6731,-3.5564,-3.4726,-3.4219,-3.2198,-3.1421,-3.1734,-3.0881,-3.0335,-3.0197,-3.2809,-3.3967,-3.4016,-3.3434,-3.3597,-3.4158,0.0,-3.3533,-3.3874,-3.3494,-3.3359,-3.3359,-3.3359,-3.3822,-3.4245,-3.3567,-3.3822,-3.4259,-3.3547,-3.3822,-3.4177,-3.3206,-3.3671,-3.41,-3.3023,-3.2156,-3.1452,0.0,0.0,0.0,0.0,0.0,0.0,0.0,0.0,0.0,-2.4946,-2.5084,-2.5146,-2.5034,-2.5724,0.0,-2.546,0.0,0.0,-2.236,-2.3434,-2.368,-2.2226,-2.349,0.0,0.0,0.0,0.0,-2.4921,-2.4941,-2.5972,-2.8072,-2.7439,-2.7606,-2.8518,-2.8255,-2.7413,-2.6092,-2.6519,-2.6926,-2.7374,-2.8014,-2.8893,-2.9792,-2.9792,-2.9792,-2.9702,-2.8858,-2.8557,-2.8557,-2.8557,-2.9067,-2.9585,-3.6237,-3.6096,-3.6119,-3.5732,-3.675,-3.7986,-3.9101,-3.9918,-4.104,-4.2865,-4.3808,-4.4676,-4.5633,-4.6681,-4.6711,-4.5229,-4.4691,-4.4496,-4.459,-4.3629,-4.4182,-4.677,-4.5589,-4.4227,-4.2836,-4.2162,-4.0487,-3.7764,-3.6537,-3.5594,-3.4876,-3.2572,-3.1705,-3.2019,-3.0971,-3.0324,-3.0207,-3.1775,-3.302,-3.3821,-3.2992,-3.306,0.0,-3.292,-3.2629,-3.2456,-3.1925,-3.2081,-3.2593,-3.2593,-3.2961,-3.331,-3.2784,-3.2961,-3.3276,-3.2749,-3.2961,-3.3171,-3.2249,-3.2664,-3.3171,-3.2213,-3.1744,-3.1481,-3.1481,-3.0924,-3.0174,0.0,0.0,0.0,0.0,0.0,0.0,-2.4971,-2.5109,-2.5234,-2.5172,-2.6126,-2.6549,0.0,-2.6038,0.0,0.0,-2.3765,-2.3778,-2.2872,0.0,0.0,0.0,0.0,0.0,-2.2423,-2.3243,-2.4287,-2.5513,-2.5032,-2.549,-2.683,-2.6331,-2.5686,-2.4995,-2.506,-2.5545,-2.631,-2.6407,-2.7296,-2.8672,-2.8231,-2.8167,-2.8291,-2.7654,-2.74,-2.7319,-2.686,-2.7695,-2.8819,-3.66,-3.5988,-3.5847,-3.5882,-3.6962,-3.8402,-4.0156,-4.0571,-4.1636,-4.4312,-4.4401,-4.4578,-4.5571,-4.6341,-4.6798,-4.6766,-4.4653,-4.4058,-4.5798,-4.3239,-4.2946,-4.5808,-4.4971,-4.4005,-4.3127,-4.2738,-4.1445,-3.9232,-3.7292,-3.6003,-3.5307,-3.2552,-3.1279,-3.1279,-3.0598,-3.0181,-2.9983,-3.0162,-3.1251,-3.2791,-3.2607,-3.2921,-3.3368,-3.2437,-3.1845,-3.1424,-3.0909,-3.1408,-3.2322,-3.2241,-3.2321,-3.2393,-3.2285,-3.2321,-3.2393,-3.2285,-3.2321,-3.2213,-3.1254,-3.1706,-3.2177,-3.1254,-3.1646,-3.2213,-3.2213,-3.2213,-3.1997,-3.118,-3.1007,-3.0446,0.0,0.0,0.0,-2.4469,0.0,0.0,-2.5523,-2.6502,-2.6816,-2.5824,0.0,0.0,0.0,0.0,0.0,0.0,0.0,0.0,0.0,0.0,0.0,-1.9756,-2.1917,0.0,-2.2379,0.0,-2.3188,-2.5127,-2.4035,-2.3664,-2.394,-2.3441,-2.3785,-2.4776,-2.4381,-2.5249,-2.6944,-2.6137,-2.5983,-2.6307,-2.6431,-2.6389,-2.6141,-2.5168,-2.6025,-2.751,-3.5115,-3.5077,-3.5509,-3.5839,-3.6695,-3.8034,-4.0176,-4.1435,-4.1968,-4.1421,-4.2698,-4.3318,-4.2446,-4.343,-4.4125,-4.408,-4.3661,-4.3545,-4.3892,-4.3385,-4.3313,-4.3985,-4.4788,-4.4174,-4.2032,-4.2898,-4.1734,-3.8316,-3.6441,-3.5209,-3.4509,-3.152,-3.0167,-3.0235,-2.9554,-2.9835,-3.0692,-2.9183,0.0,-3.1658,-3.163,-3.1721,-3.1886,-3.2634,-3.2559,-3.2001,-3.1449,-3.1137,-3.0867,-3.0445,-3.0809,-3.1328,-3.0533,-3.0809,-3.1291,-3.0533,-3.0833,-3.1254,-3.0317,-3.0733,-3.1217,-3.0279,-3.0177,-3.0292,-3.0292,-3.0292,-3.0254,-3.0075,-3.0037,-2.9935,-2.9566,0.0,0.0,0.0,0.0,0.0,0.0,-2.621,-2.6562,-2.6361,0.0,-2.6804,0.0,0.0,0.0,0.0,0.0,0.0,0.0,0.0,0.0,0.0,0.0,0.0,0.0,0.0,-2.3083,-2.487,-2.3942,-2.3268,-2.2787,-2.2676,-2.3031,-2.3772,-2.3687,-2.4373,-2.5563,-2.5735,-2.5524,-2.521,-2.6141,-2.5933,-2.5083,-2.4872,-2.5041,-2.5199,-3.5616,-3.5144,-3.4955,-3.4768,-3.5891,-3.7219,-3.8475,-4.0025,-4.1156,-4.1512,-4.2389,-4.2766,-4.2067,-4.2904,-4.349,-4.3445,-4.2798,-4.2699,-4.3406,-4.2784,-4.2614,-4.3086,-4.3948,-4.3094,-4.0313,-4.1791,-4.0812,-3.7069,-3.5896,-3.4706,-3.3408,-3.1019,-2.9767,-2.949,-2.9591,-2.9832,-3.0168,0.0,0.0,-3.1436,-3.2026,-3.2265,-3.2328,-3.291,-3.2905,-3.2591,-3.2014,-3.1474,-3.0896,-3.0068,-3.0113,-3.0381,-2.9934,-3.0101,-3.0381,-2.9934,-3.0101,-3.0381,-2.9934,-3.0139,-3.0381,-2.9895,-2.9792,-2.9792,-2.9792,-2.9792,-2.9792,-2.9792,-2.9792,-2.9616,-2.9026,-2.826,0.0,0.0,0.0,0.0,0.0,0.0,-2.616,-2.6461,-2.6977,-2.7067,0.0,0.0,0.0,0.0,0.0,0.0,0.0,0.0,0.0,0.0,0.0,0.0,0.0,0.0,0.0,-2.3284,-2.2615,-2.238,-2.249,-2.2009,-2.2391,-2.3362,-2.2623,-2.3014,-2.4201,-2.4131,-2.4022,-2.3963,-2.451,-2.4392,-2.392,-2.392,-2.392,-2.3844,-3.642,-3.5648,-3.4969,-3.4689,-3.5583,-3.6687,-3.7466,-3.8594,-3.998,-4.1705,-4.1903,-4.1903,-4.1903,-4.237,-4.2677,-4.2705,-4.1988,-4.177,-4.2375,-4.1838,-4.1595,-4.1699,-4.2474,-4.1614,-3.8753,-4.0331,-3.9441,0.0,-3.5385,0.0,0.0,0.0,0.0,0.0,0.0,0.0,0.0,0.0,-3.1926,-3.1825,-3.2759,-3.3124,-3.3124,-3.3124,-3.3124,-3.3006,-3.2416,-3.1938,-3.1399,-3.0331,-2.9892,-2.9792,-2.9792,-2.9792,-2.9792,-2.9792,-2.9792,-2.9792,-2.9792,-2.9792,-2.9792,-2.9792,-2.9792,-2.9792,-2.9792,-2.9792,-2.9792,-2.9792,-2.9792,-2.9528,-2.8624,-2.826,0.0,0.0,0.0,0.0,0.0,0.0,-2.5686,-2.6411,-2.6876,-2.719,-2.7268,0.0,0.0,0.0,0.0,0.0,-2.284,-2.2526,0.0,0.0,0.0,-2.0602,-2.0605,0.0,-2.1134,0.0,-2.1621,-2.1726,-2.249,-2.1775,-2.2018,-2.2919,-2.1719,-2.1889,-2.2981,-2.2651,-2.2754,-2.3091,-2.3091,-2.3091,-2.3091,-2.3091,-2.3091,-2.3091,-3.6591,-3.6294,-3.6534,-3.7432,-3.6943,-3.7071,-3.9146,-3.8705,-3.8604,-3.9829,-3.9956,-3.9956,-3.9956,-3.9994,-4.008,-4.023,-4.1059,-4.0768,-3.8922,-4.055,-4.0654,-3.8547,-4.0122,-4.0105,-3.8106,-3.8927,-3.8123,0.0,0.0,-3.3153,0.0,0.0,0.0,0.0,0.0,0.0,0.0,-3.1402,-3.2026,-3.2973,-3.3074,-3.3124,-3.3124,-3.3124,-3.3124,-3.3006,-3.2416,-3.2177,-3.1976,-3.0909,-3.0206,-2.9792,-2.9792,-2.9792,-2.9792,-2.9792,-2.9792,-2.9792,-2.9792,-2.9792,-2.9792,-2.9792,-2.9792,-2.9792,-2.9792,-2.9792,-2.9792,-2.9792,-2.9792,-2.9767,-2.9654,-2.88,-2.7745,0.0,0.0,0.0,0.0,0.0,-2.5285,-2.6373,-2.6537,-2.6763,0.0,0.0,0.0,0.0,0.0,0.0,-2.3095,-2.1968,0.0,-2.0628,0.0,-2.0598,-2.0595,-2.0605,0.0,-2.2974,-2.2207,-2.207,-2.251,-2.2432,-2.2249,-2.202,-2.1416,-2.1515,-2.207,-2.2376,-2.2754,-2.3091,-2.3091,-2.3091,-2.3091,-2.3091,-2.3091,-2.3091,-3.7434,-3.6857,0.0,0.0,0.0,0.0,0.0,-3.8868,-3.9182,-3.9634,-3.9697,-3.9697,-3.9697,-3.9697,-3.9701,-3.9762,-4.0196,-4.0068,-3.9208,-3.9953,-3.9867,-3.8605,-3.9587,-3.946,-3.8027,-3.8288,-3.7626,0.0,0.0,-3.1888,-3.0896,0.0,0.0,0.0,0.0,-3.1461,-3.2441,-3.3106,-3.3458,-3.3571,-3.3571,-3.337,-3.3124,-3.3124,-3.3124,-3.3086,-3.2817,-3.2503,-3.2139,-3.1712,-3.0997,-3.0231,-2.9892,-2.9792,-2.9792,-2.9792,-2.9792,-2.9792,-2.9792,-2.9792,-2.9792,-2.9792,-2.9792,-2.9792,-2.9792,-2.9792,-2.9792,-2.9792,-2.9792,-2.9792,-2.9792,-2.9428,-2.875,0.0,0.0,0.0,0.0,0.0,0.0,-2.7318,-2.719,-2.7067,0.0,0.0,0.0,0.0,0.0,0.0,0.0,0.0,0.0,-2.1761,0.0,-2.1093,-2.21,-2.1611,-2.1953,-2.3091,-2.2539,-2.2344,-2.25,-2.2246,-2.2178,-2.2246,-2.208,-2.2204,-2.2627,-2.2549,-2.2754,-2.3091,-2.3091,-2.3091,-2.3091,-2.3091,-2.3091,-2.3091,-3.8504,0.0,-3.7385,0.0,-3.799,-3.8391,-3.8052,-3.8969,-3.9572,-3.9233,-3.9484,-3.9697,-3.9697,-3.9697,-3.9559,-3.9233,-3.9496,-3.9421,-3.8768,-3.9333,-3.9371,-3.8642,-3.9157,0.0,-3.8278,-3.809,-3.755,-3.6656,-3.413,0.0,0.0,0.0,0.0,0.0,-3.2541,-3.3181,-3.3608,-3.4399,-3.4399,-3.3897,-3.3897,-3.3571,-3.3124,-3.3124,-3.3124,-3.3124,-3.3124,-3.2817,-3.2441,-3.2277,-3.1712,-3.0959,-3.0256,-2.993,-2.9792,-2.9792,-2.9792,-2.9792,-2.9792,-2.9792,-2.9792,-2.9792,-2.9792,-2.9792,-2.9792,-2.9792,-2.9792,-2.9792,-2.9792,-2.9792,-2.9792,-2.9792,-2.9428,-2.8298,0.0,0.0,0.0,-2.6499,0.0,-2.7532,-2.713,-2.6802,-2.6802,-2.6189,0.0,0.0,0.0,0.0,0.0,0.0,0.0,0.0,0.0,0.0,0.0,-2.1787,-2.2051,-2.3091,-2.2789,-2.2695,-2.2685,-2.2383,-2.2344,-2.2519,-2.2646,-2.275,-2.2896,-2.2721,-2.2828,-2.3091,-2.3091,-2.3091,-2.3091,-2.3091,-2.3091,-2.3091,-3.9672,-3.9659,-3.9647,-3.9647,-3.9659,-3.9295,-3.8178,-3.8969,-3.9295,-3.8178,-3.9007,-3.9697,-3.9697,-3.9697,-3.9245,-3.8128,-3.9057,-3.8768,-3.6596,-3.8492,-3.9195,0.0,0.0,-3.8919,-3.8906,-3.8304,-3.7739,-3.7174,0.0,0.0,-3.3847,0.0,-3.3319,-3.3884,-3.4449,-3.4655,-3.4655,-3.4668,-3.4399,-3.3897,-3.3897,-3.3571,-3.3124,-3.3124,-3.3124,-3.3124,-3.3124,-3.3111,-3.298,-3.2403,-3.2202,-3.2014,-3.0947,-3.0231,-2.9792,-2.9792,-2.9792,-2.9792,-2.9792,-2.9792,-2.9792,-2.9792,-2.9792,-2.9792,-2.9792,-2.9792,-2.9792,-2.9792,-2.9792,-2.9792,-2.9792,-2.9792,-2.9428,-2.8298,0.0,0.0,0.0,0.0,0.0,-2.6512,-2.5996,-2.5629,-2.5609,0.0,0.0,0.0,0.0,0.0,0.0,0.0,0.0,-1.9333,-1.8486,0.0,-2.0615,-2.0625,-2.1435,-2.3091,-2.3091,-2.3091,-2.3091,-2.3081,-2.2857,-2.2539,-2.2906,-2.2857,-2.2549,-2.2916,-2.3091,-2.3091,-2.3091,-2.3091,-2.3091,-2.3091,-2.3091,-2.3091,-3.7563,-3.8642,-3.9446,-3.868,-3.9182,-3.9572,-3.9207,-3.9471,-3.9572,-3.9207,-3.9471,-3.9697,-3.9697,-3.9697,-3.9546,0.0,-3.8781,-3.8567,0.0,-3.858,-3.873,-3.9132,-3.8592,-3.8278,-3.8278,-3.7726,-3.7174,-3.6669,0.0,0.0,0.0,-3.3156,-3.3771,-3.4981,-3.5157,-3.5491,-3.5843,-3.5843,-3.5516,-3.4969,-3.4969,-3.4462,-3.3633,-3.3633,-3.3407,-3.3124,-3.3124,-3.3124,-3.3056,-3.2867,-3.2541,-3.2152,-3.1813,-3.1323,-3.0884,-3.0884,-3.0633,-3.0357,-3.0357,-3.008,-2.9792,-2.9792,-2.9792,-2.9792,-2.9792,-2.9792,-2.9792,-2.9792,-2.9792,-2.9792,-2.9792,-2.9792,-2.9428,-2.8298,-2.875,0.0,0.0,0.0,-2.7582,-2.7582,-2.6404,-2.5455,0.0,-2.4733,0.0,0.0,0.0,0.0,0.0,0.0,0.0,0.0,-2.0947,0.0,-2.2305,-2.1748,-2.2031,-2.3091,-2.3091,-2.3091,-2.3091,-2.3091,-2.3023,-2.2906,-2.3033,-2.3023,-2.2906,-2.3042,-2.3091,-2.3091,-2.3091,-2.3091,-2.3091,-2.3091,-2.3091,-2.3091,-3.7751,-3.873,-3.9471,-3.8768,-3.922,-3.9546,-3.9132,-3.9421,-3.9546,-3.912,-3.9433,-3.9697,-3.9697,-3.9697,0.0,-3.9697,-3.9044,-3.8944,-3.9647,-3.9032,-3.8956,-3.9659,-3.9019,-3.8642,-3.8642,0.0,0.0,-3.6973,-3.5881,-3.4989,-3.4356,-3.4356,-3.4864,-3.5855,-3.5855,-3.6044,-3.6405,-3.6405,-3.6044,-3.5495,-3.5495,-3.4969,-3.4186,-3.3985,-3.3684,-3.3357,-3.3156,-3.3124,-3.3124,-3.3124,-3.283,-3.2541,-3.2541,-3.2303,-3.1938,-3.1512,-3.1022,-3.062,-3.062,-3.0218,-2.9792,-2.9792,-2.9792,-2.9792,-2.9792,-2.9792,-2.9792,-2.9792,-2.9792,-2.9792,-2.9792,-2.9792,-2.9566,-2.885,-2.9327,-2.9553,-2.8837,0.0,0.0,0.0,0.0,0.0,0.0,-2.4158,0.0,0.0,0.0,0.0,0.0,0.0,0.0,-2.1799,-2.1523,0.0,-2.2656,-2.2148,-2.2305,-2.3091,-2.3091,-2.3091,-2.3091,-2.3091,-2.3091,-2.3091,-2.3091,-2.3091,-2.3091,-2.3091,-2.3091,-2.3091,-2.3091,-2.3091,-2.3091,-2.3091,-2.3091,-2.3091,-3.9484,-3.9584,0.0,0.0,-3.9647,0.0,-3.8278,-3.9019,-3.932,-3.8266,-3.9044,-3.9697,-3.9697,-3.9697,-3.9697,-3.9697,0.0,0.0,0.0,-3.9622,-3.9609,-3.9697,-3.9622,-3.9572,-3.9572,-3.9572,-3.9057,-3.8002,-3.6935,-3.6455,-3.6405,-3.6405,-3.6405,-3.6405,-3.6405,-3.6405,-3.6405,-3.6405,-3.6069,-3.5558,-3.5558,-3.5219,-3.468,-3.4211,-3.396,-3.3834,-3.3319,-3.3106,-3.3124,-3.3124,-3.3124,-3.3124,-3.3124,-3.3124,-3.291,-3.1813,-3.1135,-3.0721,-3.0683,-3.0269,-2.9842,-2.9804,-2.9792,-2.9792,-2.9792,-2.9792,-2.9792,-2.9792,-2.9792,-2.9792,-2.9792,-2.9792,-2.9792,-2.9792,-2.9792,-2.9767,-2.9601,0.0,0.0,0.0,0.0,0.0,0.0,-2.3093,-2.2757,0.0,0.0,0.0,0.0,0.0,-2.0264,-2.0772,-2.0781,-2.1182,-2.1963,-2.1973,-2.2363,-2.3091,-2.3091,-2.3091,-2.3091,-2.3091,-2.3091,-2.3091,-2.3091,-2.3091,-2.3091,-2.3091,-2.3091,-2.3091,-2.3091,-2.3091,-2.3091,-2.3091,-2.3091,-2.3091,0.0,0.0,-3.9421,-3.8555,-3.912,-3.9597,-3.9333,-3.9521,-3.9597,-3.9333,-3.9521,-3.9697,-3.9697,-3.9697,-3.9697,-3.9697,-3.8906,-3.8768,-3.9634,-3.8881,-3.8793,-3.9659,-3.8868,-3.8404,-3.8404,-3.8404,-3.8278,-3.8002,-3.7324,-3.682,-3.6405,-3.6405,-3.6405,-3.6405,-3.6405,-3.6405,-3.6405,-3.6405,-3.6329,-3.6169,-3.6169,-3.5843,-3.5295,-3.5157,-3.4625,-3.3884,-3.3759,-3.3432,-3.3124,-3.3124,-3.3124,-3.3124,-3.3124,-3.3124,-3.3074,-3.2797,-3.2277,-3.1738,-3.1323,-3.0821,-3.0319,-2.9892,-2.9792,-2.9792,-2.9792,-2.9792,-2.9792,-2.9792,-2.9792,-2.9792,-2.9792,-2.9792,-2.9792,-2.9792,-2.9792,-2.9247,-2.7748,-2.7841,0.0,0.0,-2.4548,-2.4338,-2.3212,-2.3096,-2.2771,0.0,0.0,0.0,0.0,-2.1592,-2.1758,-2.251,-2.2529,-2.2627,-2.2799,-2.2799,-2.2896,-2.3091,-2.3091,-2.3091,-2.3091,-2.3091,-2.3091,-2.3091,-2.3091,-2.3091,-2.3091,-2.3091,-2.3091,-2.3091,-2.3091,-2.3091,-2.3091,-2.3091,-2.3091,-2.3091,-3.8027,-3.8881,-3.9496,-3.8881,-3.9283,-3.9697,-3.9697,-3.9697,-3.9697,-3.9697,-3.9697,-3.9697,-3.9697,-3.9697,-3.9697,-3.9697,-3.9132,-3.9032,-3.9647,-3.912,-3.9057,-3.9672,-3.9107,-3.8781,-3.8781,-3.8781,-3.8517,-3.8002,-3.745,-3.6958,-3.6405,-3.6405,-3.6405,-3.6405,-3.6405,-3.6405,-3.6405,-3.6405,-3.6405,-3.6405,-3.6405,-3.6182,-3.5893,-3.5596,-3.5132,-3.4613,-3.4361,-3.3922,-3.3458,-3.3458,-3.3282,-3.3124,-3.3124,-3.3124,-3.3124,-3.3124,-3.2667,-3.2152,-3.1851,-3.1198,-3.0482,-2.993,-2.9792,-2.9792,-2.9792,-2.9792,-2.9792,-2.9792,-2.9792,-2.9792,-2.9792,-2.9792,-2.9792,-2.9792,-2.9033,-2.8046,-2.6935,-2.6319,0.0,-2.3705,-2.3816,-2.3782,-2.3171,-2.311,-2.2906,-2.249,0.0,0.0,-2.2441,-2.21,-2.2275,-2.3062,-2.3091,-2.3091,-2.3091,-2.3091,-2.3091,-2.3091,-2.3091,-2.3091,-2.3091,-2.3091,-2.3091,-2.3091,-2.3091,-2.3091,-2.3091,-2.3091,-2.3091,-2.3091,-2.3091,-2.3091,-2.3091,-2.3091,-2.3091,-2.3091,-3.9697,-3.9697,-3.9697,-3.9697,-3.9697,-3.9697,-3.9697,-3.9697,-3.9697,-3.9697,-3.9697,-3.9697,-3.9697,-3.9697,-3.9697,-3.9697,-3.9697,-3.9697,-3.9697,-3.9697,-3.9697,-3.9697,-3.9697,-3.9697,-3.9697,-3.9697,-3.9132,-3.8002,-3.7538,-3.6985,-3.6405,-3.6405,-3.6405,-3.6405,-3.6405,-3.6405,-3.6405,-3.6405,-3.6405,-3.6405,-3.6405,-3.6405,-3.6355,-3.5843,-3.5571,-3.5445,-3.4969,-3.45,-3.4022,-3.4022,-3.3709,-3.3319,-3.3319,-3.3269,-3.3206,-3.3206,-3.2792,-3.2328,-3.224,-3.1436,-3.0507,-3.003,-2.9854,-2.9792,-2.9792,-2.9792,-2.9792,-2.9792,-2.9663,-2.9585,-2.9753,-2.9546,-2.9316,-2.9361,-2.777,-2.6441,-2.6137,0.0,-2.3638,-2.3288,-2.3306,-2.3298,-2.311,-2.3091,-2.3091,-2.3091,-2.248,-2.2383,0.0,-2.2461,-2.2402,-2.3071,-2.3091,-2.3091,-2.3091,-2.3091,-2.3091,-2.3091,-2.3091,-2.3091,-2.3091,-2.3091,-2.3091,-2.3091,-2.3091,-2.3091,-2.3091,-2.3091,-2.3091,-2.3091,-2.3091,-2.3091,-2.3091,-2.3091,-2.3091,-2.3091,-3.9697,-3.9697,-3.9697,-3.9697,-3.9697,-3.9697,-3.9697,-3.9697,-3.9697,-3.9697,-3.9697,-3.9697,-3.9697,-3.9697,-3.9697,-3.9697,-3.9697,-3.9697,-3.9697,-3.9697,-3.9697,-3.9697,-3.9697,-3.9697,-3.9697,-3.9697,-3.9132,-3.8002,-3.7927,-3.7362,-3.6405,-3.6405,-3.6405,-3.6405,-3.6405,-3.6405,-3.6405,-3.6405,-3.6405,-3.6405,-3.6405,-3.6405,-3.6405,-3.6317,-3.5943,-3.5495,-3.5408,-3.5019,-3.46,-3.46,-3.4537,-3.4462,-3.4462,-3.4148,-3.3771,-3.3771,-3.3382,-3.283,-3.234,-3.1436,-3.0595,-3.0507,-3.0143,-2.9792,-2.9792,-2.9792,-2.9792,-2.9792,-2.9028,-2.8648,-2.9624,-2.8251,-2.7053,-2.7248,-2.6227,-2.4867,-2.315,0.0,-2.4253,-2.238,-2.3555,-2.4142,-2.3202,-2.3091,-2.3091,-2.3091,-2.2974,-2.2955,-2.3091,-2.2974,-2.2955,-2.3091,-2.3091,-2.3091,-2.3091,-2.3091,-2.3091,-2.3091,-2.3091,-2.3091,-2.3091,-2.3091,-2.3091,-2.3091,-2.3091,-2.3091,-2.3091,-2.3091,-2.3091,-2.3091,-2.3091,-2.3091,-2.3091,-2.3091,-2.3091,-2.3091,-3.9697,-3.9697,-3.9697,-3.9697,-3.9697,-3.9697,-3.9697,-3.9697,-3.9697,-3.9697,-3.9697,-3.9697,-3.9697,-3.9697,-3.9697,-3.9697,-3.9697,-3.9697,-3.9697,-3.9697,-3.9697,-3.9697,-3.9697,-3.9697,-3.9697,-3.9697,-3.9295,-3.8467,-3.8165,-3.76,-3.6845,-3.6556,-3.6405,-3.6405,-3.6405,-3.6405,-3.6405,-3.6405,-3.6405,-3.6405,-3.6405,-3.6405,-3.6405,-3.6405,-3.6207,-3.5981,-3.5981,-3.5629,-3.5119,-3.5119,-3.4919,-3.468,-3.468,-3.4349,-3.3897,-3.3897,-3.3508,-3.2955,-3.2365,-3.1851,-3.1336,-3.0758,-3.0419,-3.0156,-2.9867,-2.9792,-2.9624,-2.9028,-2.8466,-2.8139,-2.8314,-2.7488,-2.6832,-2.6938,-2.5652,0.0,0.0,-2.3211,-2.3021,-2.2009,-2.3066,-2.3671,-2.3135,-2.3091,-2.3091,-2.3091,-2.3091,-2.3091,-2.3091,-2.3091,-2.3091,-2.3091,-2.3091,-2.3091,-2.3091,-2.3091,-2.3091,-2.3091,-2.3091,-2.3091,-2.3091,-2.3091,-2.3091,-2.3091,-2.3091,-2.3091,-2.3091,-2.3091,-2.3091,-2.3091,-2.3091,-2.3091,-2.3091,-2.3091,-2.3091,-2.3091,-3.9697,-3.9697,-3.9697,-3.9697,-3.9697,-3.9697,-3.9697,-3.9697,-3.9697,-3.9697,-3.9697,-3.9697,-3.9697,-3.9697,-3.9697,-3.9697,-3.9697,-3.9697,-3.9697,-3.9697,-3.9697,-3.9697,-3.9697,-3.9697,-3.9697,-3.9697,-3.9421,-3.8919,-3.8291,-3.7726,-3.7174,-3.6669,-3.6405,-3.6405,-3.6405,-3.6405,-3.6405,-3.6405,-3.6405,-3.6405,-3.6405,-3.6405,-3.6405,-3.6405,-3.6405,-3.6405,-3.6405,-3.6094,-3.5683,-3.5683,-3.5454,-3.5102,-3.5102,-3.4638,-3.4085,-3.4085,-3.3608,-3.298,-3.2541,-3.2315,-3.1989,-3.1035,-3.0483,-3.0074,-2.9528,-2.9209,-2.8816,-2.8049,-2.7656,-2.7438,-2.7267,-2.6755,-2.6356,-2.6424,0.0,0.0,0.0,-2.2421,-2.1963,-2.2158,-2.2701,-2.3091,-2.3091,-2.3091,-2.3091,-2.3091,-2.3091,-2.3091,-2.3091,-2.3091,-2.3091,-2.3091,-2.3091,-2.3091,-2.3091,-2.3091,-2.3091,-2.3091,-2.3091,-2.3091,-2.3091,-2.3091,-2.3091,-2.3091,-2.3091,-2.3091,-2.3091,-2.3091,-2.3091,-2.3091,-2.3091,-2.3091,-2.3091,-2.3091,-2.3091,-2.3091,-3.9697,-3.9697,-3.9697,-3.9697,-3.9697,-3.9697,-3.9697,-3.9697,-3.9697,-3.9697,-3.9697,-3.9697,-3.9697,-3.9697,-3.9697,-3.9697,-3.9697,-3.9697,-3.9697,-3.9697,-3.9697,-3.9697,-3.9697,-3.9697,-3.9697,-3.9697,-3.9421,-3.8919,-3.8291,-3.7726,-3.7174,-3.6669,-3.6405,-3.6405,-3.6405,-3.6405,-3.6405,-3.6405,-3.6405,-3.6405,-3.6405,-3.6405,-3.6405,-3.6405,-3.6405,-3.6405,-3.6405,-3.638,-3.6342,-3.6342,-3.6317,-3.6279,-3.6279,-3.5516,-3.4618,-3.4618,-3.3909,-3.3111,-3.3074,-3.2616,-3.2077,-3.1474,-3.0168,-2.8901,-2.8335,-2.7452,-2.6813,-2.7127,-2.6335,-2.6011,-2.7424,-2.5696,-2.4115,-2.4357,0.0,0.0,-2.2009,-2.1967,-2.2178,-2.2916,-2.3052,-2.3091,-2.3091,-2.3091,-2.3091,-2.3091,-2.3091,-2.3091,-2.3091,-2.3091,-2.3091,-2.3091,-2.3091,-2.3091,-2.3091,-2.3091,-2.3091,-2.3091,-2.3091,-2.3091,-2.3091,-2.3091,-2.3091,-2.3091,-2.3091,-2.3091,-2.3091,-2.3091,-2.3091,-2.3091,-2.3091,-2.3091,-2.3091,-2.3091,-2.3091,-2.3091,-3.9697,-3.9697,-3.9697,-3.9697,-3.9697,-3.9697,-3.9697,-3.9697,-3.9697,-3.9697,-3.9697,-3.9697,-3.9697,-3.9697,-3.9697,-3.9697,-3.9697,-3.9697,-3.9697,-3.9697,-3.9697,-3.9697,-3.9697,-3.9697,-3.9697,-3.9697,-3.9597,-3.9383,-3.8818,-3.8253,-3.7688,-3.7123,-3.6732,-3.6405,-3.6405,-3.6405,-3.6405,-3.6405,-3.6405,-3.6405,-3.6405,-3.6405,-3.6405,-3.6405,-3.6405,-3.6405,-3.6405,-3.6405,-3.6405,-3.6405,-3.6405,-3.6405,-3.6405,-3.5843,-3.5056,-3.4412,-3.3671,-3.2939,-3.2152,-3.1763,-3.1471,-3.0895,-2.973,-2.858,-2.798,-2.7527,-2.7081,-2.6583,-2.6153,-2.5805,-2.5657,-2.4851,-2.411,-2.3984,0.0,-2.2978,-2.2705,-2.2656,-2.2783,-2.3052,-2.3091,-2.3091,-2.3091,-2.3091,-2.3091,-2.3091,-2.3091,-2.3091,-2.3091,-2.3091,-2.3091,-2.3091,-2.3091,-2.3091,-2.3091,-2.3091,-2.3091,-2.3091,-2.3091,-2.3091,-2.3091,-2.3091,-2.3091,-2.3091,-2.3091,-2.3091,-2.3091,-2.3091,-2.3091,-2.3091,-2.3091,-2.3091,-2.3091,-2.3091,-2.3091,-2.3091,-3.9697,-3.9697,-3.9697,-3.9697,-3.9697,-3.9697,-3.9697,-3.9697,-3.9697,-3.9697,-3.9697,-3.9697,-3.9697,-3.9697,-3.9697,-3.9697,-3.9697,-3.9697,-3.9697,-3.9697,-3.9697,-3.9697,-3.9697,-3.9697,-3.9697,-3.9697,-3.9697,-3.9697,-3.9145,-3.8668,-3.8266,-3.7525,-3.6973,-3.6656,-3.648,-3.6405,-3.6405,-3.6405,-3.6405,-3.6405,-3.6405,-3.6405,-3.6405,-3.6405,-3.6405,-3.6405,-3.6405,-3.6405,-3.6405,-3.6405,-3.6405,-3.6405,-3.6405,-3.5994,-3.532,-3.4437,-3.3482,-3.2597,-3.1708,-3.0804,-3.0009,-2.9857,-2.8935,-2.7918,-2.7337,-2.6908,-2.6517,-2.5894,-2.5798,-2.5564,-2.4945,-2.4553,-2.4316,-2.4033,-2.376,-2.3486,-2.314,-2.3091,-2.3091,-2.3091,-2.3091,-2.3091,-2.3091,-2.3091,-2.3091,-2.3091,-2.3091,-2.3091,-2.3091,-2.3091,-2.3091,-2.3091,-2.3091,-2.3091,-2.3091,-2.3091,-2.3091,-2.3091,-2.3091,-2.3091,-2.3091,-2.3091,-2.3091,-2.3091,-2.3091,-2.3091,-2.3091,-2.3091,-2.3091,-2.3091,-2.3091,-2.3091,-2.3091,-2.3091,-2.3091,-2.3091,-3.9697,-3.9697,-3.9697,-3.9697,-3.9697,-3.9697,-3.9697,-3.9697,-3.9697,-3.9697,-3.9697,-3.9697,-3.9697,-3.9697,-3.9697,-3.9697,-3.9697,-3.9697,-3.9697,-3.9697,-3.9697,-3.9697,-3.9697,-3.9697,-3.9697,-3.9697,-3.9697,-3.9697,-3.9145,-3.8881,-3.8894,-3.7726,-3.7199,-3.7161,-3.6656,-3.6405,-3.6405,-3.6405,-3.6405,-3.6417,-3.6405,-3.6417,-3.6417,-3.6405,-3.6405,-3.6417,-3.6405,-3.6405,-3.6405,-3.6405,-3.6405,-3.6405,-3.6405,-3.5994,-3.5395,-3.4843,-3.3444,-3.2089,-3.2089,-2.9892,-2.7755,-2.8442,-2.7744,-2.6725,-2.6229,-2.5229,-2.4551,-2.5028,-2.5116,-2.5205,-2.5596,-2.4962,-2.4414,-2.4414,-2.3656,-2.3091,-2.3091,-2.3091,-2.3091,-2.3091,-2.3091,-2.3091,-2.3091,-2.3091,-2.3091,-2.3091,-2.3091,-2.3091,-2.3091,-2.3091,-2.3091,-2.3091,-2.3091,-2.3091,-2.3091,-2.3091,-2.3091,-2.3091,-2.3091,-2.3091,-2.3091,-2.3091,-2.3091,-2.3091,-2.3091,-2.3091,-2.3091,-2.3091,-2.3091,-2.3091,-2.3091,-2.3091,-2.3091,-2.3091,-2.3091,-2.3091,-3.9697,-3.9697,-3.9697,-3.9697,-3.9697,-3.9697,-3.9697,-3.9697,-3.9697,-3.9697,-3.9697,-3.9697,-3.9697,-3.9697,-3.9697,-3.9697,-3.9697,-3.9697,-3.9697,-3.9697,-3.9697,-3.9697,-3.9697,-3.9697,-3.9697,-3.9697,-3.9697,-3.9697,-3.9534,-3.9245,-3.8906,-3.858,-3.7989,-3.7174,-3.701,-3.6769,-3.6405,-3.6405,-3.6631,-3.6958,-3.6568,-3.687,-3.7425,-3.6707,-3.6644,-3.6885,-3.6556,-3.6405,-3.6405,-3.6405,-3.6405,-3.6405,-3.6405,-3.5994,-3.5273,-3.4165,-3.3216,-3.2054,-2.9953,-2.8732,-2.7994,-2.7906,-2.6966,-2.6016,-2.5839,-2.5581,-2.5333,-2.5508,-2.5537,-2.5478,-2.5303,-2.4805,-2.4316,-2.4023,-2.3461,-2.3091,-2.3091,-2.3091,-2.3091,-2.3091,-2.3091,-2.3091,-2.3091,-2.3091,-2.3091,-2.3091,-2.3091,-2.3091,-2.3091,-2.3091,-2.3091,-2.3091,-2.3091,-2.3091,-2.3091,-2.3091,-2.3091,-2.3091,-2.3091,-2.3091,-2.3091,-2.3091,-2.3091,-2.3091,-2.3091,-2.3091,-2.3091,-2.3091,-2.3091,-2.3091,-2.3091,-2.3091,-2.3091,-2.3091,-2.3091,-2.3091,-3.9697,-3.9697,-3.9697,-3.9697,-3.9697,-3.9697,-3.9697,-3.9697,-3.9697,-3.9697,-3.9697,-3.9697,-3.9697,-3.9697,-3.9697,-3.9697,-3.9697,-3.9697,-3.9697,-3.9697,-3.9697,-3.9697,-3.9697,-3.9697,-3.9697,-3.9697,-3.9697,-3.9697,-3.9697,-3.9521,-3.9195,-3.902,-3.8504,-3.7839,-3.7613,-3.7324,-3.701,-3.701,-3.7211,-3.7475,-3.7149,-3.7412,-3.7939,-3.7262,-3.7086,-3.7149,-3.6857,-3.6593,-3.6405,-3.6405,-3.6405,-3.631,-3.5775,-3.535,-3.4783,-3.3427,-3.2328,-3.1099,-2.9264,-2.8162,-2.7452,-2.7186,-2.6423,-2.5693,-2.5693,-2.5693,-2.5693,-2.5693,-2.5693,-2.5606,-2.5381,-2.4824,-2.4336,-2.4082,-2.3535,-2.3091,-2.3091,-2.3091,-2.3091,-2.3091,-2.3091,-2.3091,-2.3091,-2.3091,-2.3091,-2.3091,-2.3091,-2.3091,-2.3091,-2.3091,-2.3091,-2.3091,-2.3091,-2.3091,-2.3091,-2.3091,-2.3091,-2.3091,-2.3091,-2.3091,-2.3091,-2.3091,-2.3091,-2.3091,-2.3091,-2.3091,-2.3091,-2.3091,-2.3091,-2.3091,-2.3091,-2.3091,-2.3091,-2.3091,-2.3091,-2.3091,-3.9697,-3.9697,-3.9697,-3.9697,-3.9697,-3.9697,-3.9697,-3.9697,-3.9697,-3.9697,-3.9697,-3.9697,-3.9697,-3.9697,-3.9697,-3.9697,-3.9697,-3.9697,-3.9697,-3.9697,-3.9697,-3.9697,-3.9697,-3.9697,-3.9697,-3.9697,-3.9697,-3.9697,-3.9697,-3.9697,-3.9685,-3.9182,-3.8969,-3.8894,-3.8316,-3.8052,-3.8002,-3.8002,-3.804,-3.8078,-3.8027,-3.8065,-3.8153,-3.8052,-3.7726,-3.7324,-3.7224,-3.6908,-3.6468,-3.643,-3.631,-3.6013,-3.4775,-3.4337,-3.392,-3.2543,-3.0972,-2.9698,-2.9555,-2.8066,-2.6494,-2.6455,-2.6113,-2.5732,-2.5703,-2.5693,-2.5693,-2.5693,-2.5693,-2.5693,-2.5693,-2.5039,-2.4463,-2.4424,-2.3686,-2.314,-2.3101,-2.3091,-2.3091,-2.3091,-2.3091,-2.3091,-2.3091,-2.3091,-2.3091,-2.3091,-2.3091,-2.3091,-2.3091,-2.3091,-2.3091,-2.3091,-2.3091,-2.3091,-2.3091,-2.3091,-2.3091,-2.3091,-2.3091,-2.3091,-2.3091,-2.3091,-2.3091,-2.3091,-2.3091,-2.3091,-2.3091,-2.3091,-2.3091,-2.3091,-2.3091,-2.3091,-2.3091,-2.3091,-2.3091,-2.3091,-3.9697,-3.9697,-3.9697,-3.9697,-3.9697,-3.9697,-3.9697,-3.9697,-3.9697,-3.9697,-3.9697,-3.9697,-3.9697,-3.9697,-3.9697,-3.9697,-3.9697,-3.9697,-3.9697,-3.9697,-3.9697,-3.9697,-3.9697,-3.9697,-3.9697,-3.9697,-3.9697,-3.9697,-3.9697,-3.9697,-3.9697,-3.9572,-3.9283,-3.8906,-3.8743,-3.8429,-3.8002,-3.8002,-3.8266,-3.8642,-3.8191,-3.853,-3.9233,-3.8341,-3.8216,-3.8391,-3.75,-3.7111,-3.6935,-3.6556,-3.5715,-3.4775,-3.4483,-3.3662,-3.2493,-3.1122,-3.0451,-2.9849,-2.8496,-2.7779,-2.7305,-2.6963,-2.6562,-2.6162,-2.5762,-2.5693,-2.5693,-2.5693,-2.5693,-2.5693,-2.5693,-2.5293,-2.4814,-2.4473,-2.3984,-2.3525,-2.314,-2.3091,-2.3091,-2.3091,-2.3091,-2.3091,-2.3091,-2.3091,-2.3091,-2.3091,-2.3091,-2.3091,-2.3091,-2.3091,-2.3091,-2.3091,-2.3091,-2.3091,-2.3091,-2.3091,-2.3091,-2.3091,-2.3091,-2.3091,-2.3091,-2.3091,-2.3091,-2.3091,-2.3091,-2.3091,-2.3091,-2.3091,-2.3091,-2.3091,-2.3091,-2.3091,-2.3091,-2.3091,-2.3091,-2.3091,-3.9697,-3.9697,-3.9697,-3.9697,-3.9697,-3.9697,-3.9697,-3.9697,-3.9697,-3.9697,-3.9697,-3.9697,-3.9697,-3.9697,-3.9697,-3.9697,-3.9697,-3.9697,-3.9697,-3.9697,-3.9697,-3.9697,-3.9697,-3.9697,-3.9697,-3.9697,-3.9697,-3.9697,-3.9697,-3.9697,-3.9697,-3.9697,-3.9534,-3.927,-3.927,-3.9094,-3.8806,-3.8806,-3.8981,-3.9233,-3.8931,-3.917,-3.9622,-3.9032,-3.8831,-3.8844,-3.8203,-3.7638,-3.7098,-3.6593,-3.5523,-3.4276,-3.3613,-3.2443,-3.1071,-2.9765,-2.9355,-2.9157,-2.8229,-2.7875,-2.7669,-2.7383,-2.7002,-2.6572,-2.6143,-2.584,-2.5693,-2.5693,-2.5693,-2.5693,-2.5693,-2.5371,-2.4969,-2.4492,-2.4062,-2.3633,-2.3159,-2.3091,-2.3091,-2.3091,-2.3091,-2.3091,-2.3091,-2.3091,-2.3091,-2.3091,-2.3091,-2.3091,-2.3091,-2.3091,-2.3091,-2.3091,-2.3091,-2.3091,-2.3091,-2.3091,-2.3091,-2.3091,-2.3091,-2.3091,-2.3091,-2.3091,-2.3091,-2.3091,-2.3091,-2.3091,-2.3091,-2.3091,-2.3091,-2.3091,-2.3091,-2.3091,-2.3091,-2.3091,-2.3091,-2.3091,-3.9697,-3.9697,-3.9697,-3.9697,-3.9697,-3.9697,-3.9697,-3.9478,-3.9413,-3.9697,-3.9465,-3.9413,-3.9697,-3.9697,-3.9697,-3.9697,-3.9697,-3.9697,-3.9697,-3.9697,-3.9697,-3.9697,-3.9697,-3.9697,-3.9697,-3.9697,-3.9697,-3.9697,-3.9697,-3.9697,-3.9697,-3.9697,-3.9697,-3.9697,-3.9697,-3.9697,-3.9697,-3.9697,-3.9697,-3.9697,-3.9697,-3.9697,-3.9697,-3.9697,-3.9408,-3.8994,-3.8957,-3.8029,-3.6735,-3.5984,-3.4812,-3.3514,-3.2342,-3.1019,-2.9765,-2.8644,-2.8291,-2.8291,-2.8291,-2.8037,-2.7826,-2.7826,-2.7441,-2.7031,-2.6689,-2.6211,-2.5801,-2.5801,-2.5742,-2.5693,-2.5693,-2.543,-2.5039,-2.46,-2.417,-2.374,-2.3266,-2.314,-2.3091,-2.3091,-2.3091,-2.3091,-2.3091,-2.3091,-2.3091,-2.3091,-2.3091,-2.3091,-2.3091,-2.3091,-2.3091,-2.3091,-2.3091,-2.3091,-2.3091,-2.3091,-2.3091,-2.3091,-2.3091,-2.3091,-2.3091,-2.3091,-2.3091,-2.3091,-2.3091,-2.3091,-2.3091,-2.3091,-2.3091,-2.3091,-2.3091,-2.3091,-2.3091,-2.3091,-2.3091,-2.3091,-3.9697,-3.9697,-3.9697,-3.9697,-3.9697,-3.9697,-3.9697,-3.8635,-3.8243,-3.9517,-3.8582,-3.8295,-3.9581,-3.9697,-3.9697,-3.9697,-3.9697,-3.9697,-3.9697,-3.9697,-3.9697,-3.9697,-3.9697,-3.9697,-3.9697,-3.9697,-3.9697,-3.9697,-3.9697,-3.9697,-3.9697,-3.9697,-3.9697,-3.9697,-3.9697,-3.9697,-3.9697,-3.9697,-3.9697,-3.9697,-3.9697,-3.9697,-3.9697,-3.9697,-3.9647,-3.9521,-3.9095,-3.7392,-3.5189,-3.3454,-3.1977,-3.0824,-3.0618,-2.966,-2.8548,-2.8344,-2.8291,-2.8291,-2.8291,-2.8252,-2.8203,-2.8203,-2.7891,-2.7568,-2.7562,-2.6875,-2.6299,-2.6299,-2.5996,-2.5693,-2.5693,-2.5635,-2.5498,-2.5049,-2.4619,-2.418,-2.376,-2.3379,-2.3091,-2.3091,-2.3091,-2.3091,-2.3091,-2.3091,-2.3091,-2.3091,-2.3091,-2.3091,-2.3091,-2.3091,-2.3091,-2.3091,-2.3091,-2.3091,-2.3091,-2.3091,-2.3091,-2.3091,-2.3091,-2.3091,-2.3091,-2.3091,-2.3091,-2.3091,-2.3091,-2.3091,-2.3091,-2.3091,-2.3091,-2.3091,-2.3091,-2.3091,-2.3091,-2.3091,-2.3091,-2.3091,-3.9697,-3.9697,-3.9697,-3.9697,-3.9697,-3.9697,-3.9697,-3.8465,-3.7743,-3.8413,-3.721,-3.6541,-3.7156,-3.7979,-3.8804,-3.9633,-3.9697,-3.9362,-3.8518,-3.9245,-3.8973,-3.7317,-3.8031,-3.8084,-3.7275,-3.721,-3.721,-3.721,-3.8868,-3.9697,-3.9697,-3.9697,-3.9697,-3.9697,-3.9697,-3.9697,-3.9697,-3.9697,-3.9697,-3.9697,-3.9697,-3.9697,-3.9697,-3.9697,-3.9697,-3.9506,-3.8138,-3.6256,-3.4234,-3.3067,-3.1647,-3.0317,-3.0317,-2.9355,-2.8291,-2.8291,-2.8291,-2.8291,-2.8291,-2.8291,-2.8291,-2.8291,-2.8154,-2.8018,-2.8018,-2.7539,-2.6973,-2.6484,-2.624,-2.6025,-2.5732,-2.5693,-2.5596,-2.5184,-2.4912,-2.4629,-2.4199,-2.3769,-2.3408,-2.312,-2.3091,-2.3091,-2.3091,-2.3091,-2.3091,-2.3091,-2.3091,-2.3091,-2.3091,-2.3091,-2.3091,-2.3091,-2.3091,-2.3091,-2.3091,-2.3091,-2.3091,-2.3091,-2.3091,-2.3091,-2.3091,-2.3091,-2.3091,-2.3091,-2.3091,-2.3091,-2.3091,-2.3091,-2.3091,-2.3091,-2.3091,-2.3091,-2.3091,-2.3091,-2.3091,-2.3091]},{"header":{"parameterUnit":"m.s-1","parameterCategory":1,"la1":30.6,"la2":28.766,"lo1":-90.7593,"lo2":-88.6598,"dy":0.0162,"dx":0.0183,"nx":116,"ny":114,"refTime":"2024-05-20T12:00:00:Z","depth":0,"parameterNumber":3,"parameterNumberName":"V-component_of_WINDS"},"data":[0.0,0.0,0.0,0.0,0.0,0.0,0.0,0.0,0.0,0.0,0.0,0.0,0.0,0.0,0.0,0.0,0.0,0.0,0.0,0.0,0.0,0.0,0.0,0.0,0.0,0.0,0.0,0.0,0.0,0.0,0.0,0.0,0.0,0.0,0.0,0.0,0.0,0.0,0.0,0.0,0.0,0.0,0.0,0.0,0.0,0.0,0.0,0.0,0.0,0.0,0.0,0.0,0.0,0.0,0.0,0.0,0.0,0.0,0.0,0.0,0.0,0.0,0.0,0.0,0.0,0.0,0.0,0.0,0.0,0.0,0.0,0.0,0.0,0.0,0.0,0.0,0.0,0.0,0.0,0.0,0.0,0.0,0.0,0.0,0.0,0.0,0.0,0.0,0.0,0.0,0.0,0.0,0.0,0.0,0.0,0.0,0.0,0.0,0.0,0.0,0.0,0.0,0.0,0.0,0.0,0.0,0.0,0.0,0.0,0.0,0.0,0.0,0.0,0.0,0.0,0.0,0.0,0.0,0.0,0.0,0.0,0.0,0.0,0.0,0.0,0.0,0.0,0.0,0.0,0.0,0.0,0.0,0.0,0.0,0.0,0.0,0.0,0.0,0.0,0.0,0.0,0.0,0.0,0.0,0.0,0.0,0.0,0.0,0.0,0.0,0.0,0.0,0.0,0.0,0.0,0.0,0.0,0.0,0.0,0.0,0.0,0.0,0.0,0.0,0.0,0.0,0.0,0.0,0.0,0.0,0.0,0.0,0.0,0.0,0.0,0.0,0.0,0.0,0.0,0.0,0.0,0.0,0.0,0.0,0.0,0.0,0.0,0.0,0.0,0.0,0.0,0.0,0.0,0.0,0.0,0.0,0.0,0.0,0.0,0.0,0.0,0.0,0.0,0.0,0.0,0.0,0.0,0.0,0.0,0.0,0.0,0.0,0.0,0.0,0.0,0.0,0.0,0.0,0.0,0.0,0.0,0.0,0.0,0.0,0.0,0.0,0.0,0.0,0.0,0.0,0.0,0.0,0.0,0.0,0.0,0.0,0.0,0.0,0.0,0.0,0.0,0.0,0.0,0.0,0.0,0.0,0.0,0.0,0.0,0.0,0.0,0.0,0.0,0.0,0.0,0.0,0.0,0.0,0.0,0.0,0.0,0.0,0.0,0.0,0.0,0.0,0.0,0.0,0.0,0.0,0.0,0.0,0.0,0.0,0.0,0.0,0.0,0.0,0.0,0.0,0.0,0.0,0.0,0.0,0.0,0.0,0.0,0.0,0.0,0.0,0.0,0.0,0.0,0.0,0.0,0.0,0.0,0.0,0.0,0.0,0.0,0.0,0.0,0.0,0.0,0.0,0.0,0.0,0.0,0.0,0.0,0.0,0.0,0.0,0.0,0.0,0.0,0.0,0.0,0.0,0.0,0.0,0.0,0.0,0.0,0.0,0.0,0.0,0.0,0.0,0.0,0.0,0.0,0.0,0.0,0.0,0.0,0.0,0.0,0.0,0.0,0.0,0.0,0.0,0.0,0.0,0.0,0.0,0.0,0.0,0.0,0.0,0.0,0.0,0.0,0.0,0.0,0.0,0.0,0.0,0.0,0.0,0.0,0.0,0.0,0.0,0.0,0.0,0.0,0.0,0.0,0.0,0.0,0.0,0.0,0.0,0.0,0.0,0.0,0.0,0.0,0.0,0.0,0.0,0.0,0.0,0.0,0.0,0.0,0.0,0.0,0.0,0.0,0.0,0.0,0.0,0.0,0.0,0.0,0.0,0.0,0.0,0.0,0.0,0.0,0.0,0.0,0.0,0.0,0.0,0.0,0.0,0.0,0.0,0.0,0.0,0.0,0.0,0.0,0.0,0.0,0.0,0.0,0.0,0.0,0.0,0.0,0.0,0.0,0.0,0.0,0.0,0.0,0.0,0.0,0.0,0.0,0.0,0.0,0.0,0.0,0.0,0.0,0.0,0.0,0.0,0.0,0.0,0.0,0.0,0.0,0.0,0.0,0.0,0.0,0.0,0.0,0.0,0.0,0.0,0.0,0.0,0.0,0.0,0.0,0.0,0.0,0.0,0.0,0.0,0.0,0.0,0.0,0.0,0.0,0.0,0.0,0.0,0.0,0.0,0.0,0.0,0.0,0.0,0.0,0.0,0.0,0.0,0.0,0.0,0.0,0.0,0.0,0.0,0.0,0.0,0.0,0.0,0.0,0.0,0.0,0.0,0.0,0.0,0.0,0.0,0.0,0.0,0.0,0.0,0.0,0.0,0.0,0.0,0.0,0.0,0.0,0.0,0.0,0.0,0.0,0.0,0.0,0.0,0.0,0.0,0.0,0.0,0.0,0.0,0.0,0.0,0.0,0.0,0.0,0.0,0.0,0.0,0.0,0.0,0.0,0.0,0.0,0.0,0.0,0.0,0.0,0.0,0.0,0.0,0.0,0.0,0.0,0.0,0.0,0.0,0.0,0.0,0.0,0.0,0.0,0.0,0.0,0.0,0.0,0.0,0.0,0.0,0.0,0.0,0.0,0.0,0.0,0.0,0.0,0.0,0.0,0.0,0.0,0.0,0.0,0.0,0.0,0.0,0.0,0.0,0.0,0.0,0.0,0.0,0.0,0.0,0.0,0.0,0.0,0.0,0.0,0.0,0.0,0.0,0.0,0.0,0.0,0.0,0.0,0.0,0.0,0.0,0.0,0.0,0.0,0.0,0.0,0.0,0.0,0.0,0.0,0.0,0.0,0.0,0.0,0.0,0.0,0.0,0.0,0.0,0.0,0.0,0.0,0.0,0.0,0.0,0.0,0.0,0.0,0.0,0.0,0.0,0.0,0.0,0.0,0.0,0.0,0.0,0.0,0.0,0.0,0.0,0.0,0.0,0.0,0.0,0.0,0.0,0.0,0.0,0.0,0.0,0.0,0.0,0.0,0.0,0.0,0.0,0.0,0.0,0.0,0.0,0.0,0.0,0.0,0.0,0.0,0.0,0.0,0.0,0.0,0.0,0.0,0.0,0.0,0.0,0.0,0.0,0.0,0.0,0.0,0.0,0.0,0.0,0.0,0.0,0.0,0.0,0.0,0.0,0.0,0.0,0.0,0.0,0.0,0.0,0.0,0.0,0.0,0.0,0.0,0.0,0.0,0.0,0.0,0.0,0.0,0.0,0.0,0.0,0.0,0.0,0.0,0.0,0.0,0.0,0.0,0.0,0.0,0.0,0.0,0.0,0.0,0.0,0.0,0.0,0.0,0.0,0.0,0.0,0.0,0.0,0.0,0.0,0.0,0.0,0.0,0.0,0.0,0.0,0.0,0.0,0.0,0.0,0.0,0.0,0.0,0.0,0.0,0.0,0.0,0.0,0.0,0.0,0.0,0.0,0.0,0.0,0.0,0.0,0.0,0.0,0.0,0.0,0.0,0.0,0.0,0.0,0.0,0.0,0.0,0.0,0.0,0.0,0.0,0.0,0.0,0.0,0.0,0.0,0.0,0.0,0.0,0.0,0.0,0.0,0.0,0.0,0.0,0.0,0.0,0.0,0.0,0.0,0.0,0.0,0.0,0.0,0.0,0.0,0.0,0.0,0.0,0.0,0.0,0.0,0.0,0.0,0.0,0.0,0.0,0.0,0.0,0.0,0.0,0.0,0.0,0.0,0.0,0.0,0.0,0.0,0.0,0.0,0.0,0.0,0.0,0.0,0.0,0.0,0.0,0.0,0.0,0.0,0.0,0.0,0.0,0.0,0.0,0.0,0.0,0.0,0.0,0.0,0.0,0.0,0.0,0.0,0.0,0.0,0.0,0.0,0.0,0.0,0.0,0.0,0.0,0.0,0.0,0.0,0.0,0.0,0.0,0.0,0.0,0.0,0.0,0.0,0.0,0.0,0.0,0.0,0.0,0.0,0.0,0.0,0.0,0.0,0.0,0.0,0.0,0.0,0.0,0.0,0.0,0.0,0.0,0.0,0.0,0.0,0.0,0.0,0.0,0.0,0.0,0.0,0.0,0.0,0.0,0.0,0.0,0.0,0.0,0.0,0.0,0.0,0.0,0.0,0.0,0.0,0.0,0.0,0.0,0.0,0.0,0.0,0.0,0.0,0.0,0.0,0.0,0.0,0.0,0.0,0.0,0.0,0.0,0.0,0.0,0.0,0.0,0.0,0.0,0.0,0.0,0.0,0.0,0.0,0.0,0.0,0.0,0.0,0.0,0.0,0.0,0.0,0.0,0.0,0.0,0.0,0.0,0.0,0.0,0.0,0.0,0.0,0.0,0.0,0.0,0.0,0.0,0.0,0.0,0.0,0.0,0.0,0.0,0.0,0.0,0.0,0.0,0.0,0.0,0.0,0.0,0.0,0.0,0.0,0.0,0.0,0.0,0.0,0.0,0.0,0.0,0.0,0.0,0.0,0.0,0.0,0.0,0.0,0.0,0.0,0.0,0.0,0.0,0.0,0.0,0.0,0.0,0.0,0.0,0.0,0.0,0.0,0.0,0.0,0.0,0.0,0.0,0.0,0.0,0.0,0.0,0.0,0.0,0.0,0.0,0.0,0.0,0.0,0.0,0.0,0.0,0.0,0.0,0.0,0.0,0.0,0.0,0.0,0.0,0.0,0.0,0.0,0.0,0.0,0.0,0.0,0.0,0.0,0.0,0.0,0.0,0.0,0.0,0.0,0.0,0.0,0.0,0.0,0.0,0.0,0.0,0.0,0.0,0.0,0.0,0.0,0.0,0.0,0.0,0.0,0.0,0.0,0.0,0.0,0.0,0.0,0.0,0.0,0.0,0.0,0.0,0.0,0.0,0.0,0.0,0.0,0.0,0.0,0.0,0.0,0.0,0.0,0.0,0.0,0.0,0.0,0.0,0.0,0.0,0.0,0.0,0.0,0.0,0.0,0.0,0.0,0.0,0.0,0.0,0.0,0.0,0.0,0.0,0.0,0.0,0.0,0.0,0.0,0.0,0.0,0.0,0.0,0.0,0.0,0.0,0.0,0.0,0.0,0.0,0.0,0.0,0.0,0.0,0.0,0.0,0.0,0.0,0.0,0.0,0.0,0.0,0.0,0.0,0.0,0.0,0.0,0.0,0.0,0.0,0.0,0.0,0.0,0.0,0.0,0.0,0.0,0.0,0.0,0.0,0.0,0.0,0.0,0.0,0.0,0.0,0.0,0.0,0.0,0.0,0.0,0.0,0.0,0.0,0.0,0.0,0.0,0.0,0.0,0.0,0.0,0.0,0.0,0.0,0.0,0.0,0.0,0.0,0.0,0.0,0.0,0.0,0.0,0.0,0.0,0.0,0.0,0.0,0.0,0.0,0.0,0.0,0.0,0.0,0.0,0.0,0.0,0.0,0.0,0.0,0.0,0.0,0.0,0.0,0.0,0.0,0.0,0.0,0.0,0.0,0.0,0.0,0.0,0.0,0.0,0.0,0.0,0.0,0.0,0.0,0.0,0.0,0.0,0.0,0.0,0.0,0.0,0.0,0.0,0.0,0.0,0.0,0.0,0.0,0.0,0.0,0.0,0.0,0.0,0.0,0.0,0.0,0.0,0.0,0.0,0.0,0.0,0.0,0.0,0.0,0.0,0.0,0.0,0.0,0.0,0.0,0.0,0.0,0.0,0.0,0.0,0.0,0.0,0.0,0.0,0.0,0.0,0.0,0.0,0.0,0.0,0.0,0.0,0.0,0.0,0.0,0.0,0.0,0.0,0.0,0.0,0.0,0.0,0.0,0.0,0.0,0.0,0.0,0.0,0.0,0.0,0.0,0.0,0.0,0.0,0.0,0.0,0.0,0.0,0.0,0.0,0.0,0.0,0.0,0.0,0.0,0.0,0.0,0.0,0.0,0.0,0.0,0.0,0.0,0.0,0.0,0.0,0.0,0.0,0.0,0.0,0.0,0.0,0.0,0.0,0.0,0.0,0.0,0.0,0.0,0.0,0.0,0.0,0.0,0.0,0.0,0.0,0.0,0.0,0.0,0.0,0.0,0.0,0.0,0.0,0.0,0.0,0.0,0.0,0.0,0.0,0.0,0.0,0.0,0.0,0.0,0.0,0.0,0.0,0.0,0.0,0.0,0.0,0.0,0.0,0.0,0.0,0.0,0.0,0.0,0.0,1.865,0.0,0.0,0.0,0.0,0.0,0.0,0.0,0.0,0.0,0.0,0.0,0.0,0.0,0.0,0.0,0.0,0.0,0.0,0.0,0.0,0.0,0.0,0.0,0.0,2.3326,2.4004,2.4004,2.4732,2.531,2.5573,0.0,0.0,0.0,0.0,0.0,2.3565,2.4287,2.4642,2.455,2.524,2.6314,2.7656,2.7252,2.5832,2.3662,0.0,0.0,0.0,0.0,0.0,0.0,0.0,0.0,0.0,0.0,0.0,0.0,0.0,0.0,0.0,0.0,0.0,0.0,0.0,0.0,0.0,0.0,0.0,0.0,0.0,0.0,0.0,0.0,0.0,0.0,0.0,0.0,0.0,0.0,0.0,0.0,0.0,0.0,0.0,0.0,0.0,0.0,0.0,0.0,0.0,0.0,0.0,0.0,0.0,0.0,0.0,0.0,0.0,0.0,0.0,0.0,0.0,0.0,0.0,0.0,0.0,0.0,0.0,0.0,0.0,0.0,0.0,0.0,0.0,0.0,0.0,1.8456,0.0,0.0,0.0,0.0,0.0,0.0,0.0,0.0,0.0,0.0,0.0,0.0,0.0,0.0,0.0,0.0,0.0,0.0,0.0,0.0,0.0,2.1694,2.2246,2.3326,2.4042,2.413,2.5151,2.5856,2.5957,2.6123,0.0,0.0,0.0,2.5858,2.4615,2.5878,2.6601,2.6671,2.836,2.9989,3.1509,3.1608,2.9529,2.5668,2.4771,0.0,0.0,0.0,0.0,0.0,0.0,0.0,0.0,0.0,0.0,0.0,0.0,0.0,0.0,0.0,0.0,0.0,0.0,0.0,0.0,0.0,0.0,0.0,0.0,0.0,0.0,0.0,0.0,0.0,0.0,0.0,0.0,0.0,0.0,0.0,0.0,0.0,0.0,0.0,0.0,0.0,0.0,0.0,0.0,0.0,0.0,0.0,0.0,0.0,0.0,0.0,0.0,0.0,0.0,0.0,0.0,0.0,0.0,0.0,0.0,0.0,0.0,0.0,2.2949,2.3008,2.2676,2.2871,2.2812,2.2473,2.058,2.0404,2.1327,1.9644,0.0,0.0,0.0,0.0,0.0,0.0,0.0,0.0,0.0,0.0,0.0,0.0,0.0,0.0,0.0,0.0,0.0,0.0,0.0,2.1694,2.2246,2.3326,2.4192,2.4637,2.5949,2.6928,2.7393,2.8112,0.0,0.0,2.7858,2.76,2.6877,2.7071,2.7728,2.8893,3.1468,3.2572,3.2266,3.2847,3.2465,3.1283,2.9957,2.8699,2.7542,0.0,0.0,0.0,0.0,0.0,0.0,0.0,0.0,0.0,0.0,0.0,0.0,0.0,0.0,0.0,0.0,0.0,0.0,0.0,0.0,0.0,0.0,0.0,0.0,0.0,0.0,0.0,0.0,0.0,0.0,0.0,0.0,0.0,0.0,0.0,0.0,0.0,0.0,0.0,0.0,0.0,2.5215,2.5712,0.0,0.0,0.0,0.0,0.0,0.0,0.0,0.0,0.0,0.0,0.0,0.0,0.0,2.2676,2.3359,2.4264,2.4695,2.4705,2.5488,2.585,2.5771,2.5059,2.4912,2.5118,2.3753,0.0,2.2732,2.1557,0.0,0.0,0.0,0.0,0.0,0.0,0.0,0.0,0.0,0.0,0.0,0.0,0.0,0.0,0.0,0.0,0.0,0.0,0.0,0.0,0.0,2.4914,2.6521,2.7142,2.9104,3.0051,2.9576,2.9912,2.954,2.8252,2.8959,2.8876,2.7825,2.8655,3.0307,3.2783,3.5457,3.7,3.7464,3.776,3.7553,3.6882,3.6245,3.3518,2.9387,2.8778,0.0,0.0,0.0,0.0,0.0,0.0,0.0,0.0,0.0,0.0,0.0,0.0,0.0,0.0,0.0,0.0,0.0,0.0,0.0,0.0,0.0,0.0,0.0,0.0,0.0,0.0,0.0,0.0,0.0,0.0,0.0,0.0,0.0,0.0,0.0,0.0,0.0,0.0,0.0,2.562,2.6805,2.7725,2.6257,2.4755,0.0,0.0,0.0,0.0,0.0,0.0,0.0,0.0,0.0,2.4623,2.4227,2.4248,2.4873,2.5732,2.6162,2.6162,2.6553,2.6621,2.6377,2.5986,2.5781,2.5654,2.5127,2.4729,2.4429,2.3044,2.2476,2.2309,0.0,0.0,0.0,0.0,2.04,2.0879,0.0,0.0,0.0,0.0,0.0,0.0,0.0,0.0,0.0,0.0,0.0,0.0,2.4268,2.6912,2.8934,2.9785,3.1797,3.2551,3.1382,3.1509,3.0843,2.9112,3.0054,3.0113,2.9086,3.1014,3.3425,3.6237,3.8886,4.0591,4.1422,4.1587,4.128,4.0651,4.0651,3.747,3.2093,3.1725,3.0114,2.7709,0.0,0.0,0.0,0.0,0.0,0.0,0.0,0.0,0.0,0.0,0.0,0.0,0.0,0.0,0.0,0.0,0.0,0.0,0.0,0.0,0.0,0.0,0.0,0.0,0.0,0.0,0.0,0.0,0.0,0.0,0.0,0.0,0.0,0.0,0.0,0.0,0.0,2.8042,2.8909,2.9806,2.8537,2.7138,0.0,0.0,0.0,0.0,0.0,0.0,2.782,2.7047,2.6878,2.7493,2.7155,2.7179,2.7598,2.8097,2.8177,2.7829,2.7945,2.7472,2.6543,2.6656,2.6515,2.6207,2.6207,2.6207,2.604,2.4356,2.3628,2.3389,2.2422,2.1982,2.1777,2.0928,2.0918,2.1357,0.0,0.0,0.0,0.0,0.0,0.0,0.0,0.0,0.0,0.0,0.0,2.5681,2.6876,2.8912,3.0643,3.1836,3.2816,3.3024,3.2184,3.2914,3.2765,3.138,3.1394,3.1394,3.1335,3.453,3.6866,3.8242,4.0958,4.1976,4.1384,4.2051,4.1991,4.1324,4.1324,3.9747,3.6969,3.5619,3.3587,3.1119,2.8457,0.0,0.0,0.0,0.0,0.0,0.0,0.0,0.0,0.0,0.0,0.0,0.0,0.0,0.0,0.0,0.0,0.0,0.0,0.0,0.0,0.0,0.0,0.0,0.0,0.0,0.0,0.0,0.0,0.0,0.0,0.0,0.0,0.0,0.0,0.0,0.0,0.0,0.0,3.2043,3.3232,0.0,0.0,0.0,0.0,2.7733,2.8133,2.8767,2.9602,3.0113,3.088,3.2106,3.2146,3.2325,3.2811,3.2274,3.1404,3.014,3.0548,2.9377,2.7004,2.7365,2.7515,2.7494,2.7494,2.7494,2.7358,2.5687,2.4727,2.4228,2.2969,2.2236,2.1777,2.0928,2.1153,2.1846,0.0,0.0,0.0,0.0,0.0,1.8568,1.9648,2.0413,2.1333,2.2545,2.4582,2.6613,2.8404,3.1204,3.3475,3.4815,3.5971,3.6299,3.5581,3.4254,3.329,3.2826,3.1569,3.1674,3.338,3.6671,3.8811,3.9679,4.1908,4.2865,4.2641,4.288,4.2865,4.2626,4.2626,4.1878,4.0531,3.9171,3.7089,3.4537,3.228,3.0048,0.0,0.0,0.0,0.0,0.0,0.0,0.0,0.0,0.0,0.0,0.0,0.0,0.0,0.0,0.0,0.0,0.0,0.0,0.0,0.0,0.0,0.0,0.0,0.0,0.0,0.0,0.0,0.0,0.0,0.0,0.0,0.0,0.0,0.0,0.0,0.0,0.0,3.3746,3.4093,0.0,3.3118,3.244,3.2241,3.2715,3.361,3.4381,3.5052,3.4458,3.4296,3.4746,3.3931,3.336,3.3207,3.2965,3.2452,3.1571,3.1734,3.1164,3.0013,2.9807,2.9577,2.9258,2.8905,2.8773,2.8716,2.8114,2.6682,2.4736,2.3721,2.3242,2.3037,2.2441,2.2422,2.2652,0.0,0.0,0.0,0.0,1.8707,1.8781,1.966,2.0765,2.2041,2.3608,2.5797,2.8243,3.082,3.3685,3.5956,3.7355,3.8242,3.8078,3.6522,3.5011,3.3664,3.2542,3.2078,3.308,3.5776,3.8392,4.0341,4.1531,4.2722,4.3472,4.381,4.381,4.363,4.3329,4.3669,4.3389,4.2641,4.1758,4.0008,3.7639,3.5625,3.3466,3.1172,0.0,0.0,0.0,0.0,0.0,0.0,0.0,0.0,0.0,0.0,0.0,0.0,0.0,0.0,0.0,0.0,0.0,0.0,0.0,0.0,0.0,0.0,0.0,0.0,0.0,0.0,0.0,0.0,0.0,0.0,0.0,0.0,0.0,0.0,3.2403,3.4173,3.4868,3.5392,3.5667,3.5524,3.512,3.5285,3.625,3.7048,3.7626,3.799,3.7341,3.6972,3.6972,3.6117,3.5395,3.484,3.4664,3.4013,3.2994,3.3267,3.2768,3.1701,3.1593,3.1098,3.0285,3.0297,3.0011,2.952,2.9851,2.8657,2.6485,2.5791,2.5262,2.4954,2.4646,2.4397,2.4264,0.0,0.0,0.0,1.9008,1.8995,1.9171,1.9748,2.0778,2.2237,2.4349,2.7347,3.0591,3.396,3.6147,3.7913,3.9209,3.9298,3.7958,3.4773,3.5085,3.3963,3.073,3.3171,3.5809,3.8467,3.9862,4.1635,4.3883,4.3554,4.3888,4.4834,4.4834,4.432,4.3433,4.4396,4.4297,4.3394,4.3369,4.2276,4.0344,3.8332,3.6761,3.531,0.0,0.0,0.0,0.0,0.0,0.0,0.0,0.0,0.0,0.0,0.0,0.0,0.0,0.0,0.0,0.0,0.0,0.0,0.0,0.0,0.0,0.0,0.0,0.0,0.0,0.0,0.0,0.0,0.0,0.0,0.0,0.0,0.0,3.1486,3.3859,3.5558,3.5596,3.7575,3.8467,3.7374,3.7751,3.8052,3.8052,3.8052,3.8052,3.8052,3.8555,3.8894,3.8894,3.8894,3.8567,3.7965,3.7462,3.6319,3.4471,3.5197,3.4242,3.1871,3.2629,3.2086,3.0612,3.1681,3.124,2.9784,3.085,3.0586,2.9454,2.897,2.8184,2.7318,2.7296,2.6939,2.6472,0.0,0.0,1.8531,1.8933,1.8669,1.8882,2.0251,2.1056,2.2392,2.4857,2.7601,3.0253,3.2741,3.5257,3.706,3.7898,3.7554,3.6911,3.6031,3.4307,3.3185,3.2912,3.5505,3.8261,4.1016,4.294,4.4448,4.5532,4.5451,4.5545,4.5814,4.5814,4.5654,4.5421,4.569,4.5654,4.5363,4.4684,4.4089,4.3407,4.1173,3.9215,3.7464,0.0,0.0,0.0,0.0,0.0,0.0,0.0,0.0,0.0,0.0,0.0,0.0,0.0,0.0,0.0,0.0,0.0,0.0,0.0,0.0,0.0,0.0,0.0,0.0,0.0,0.0,0.0,0.0,0.0,0.0,0.0,3.1851,3.3809,3.3809,3.5491,3.7036,3.7864,3.8843,3.9346,3.9032,3.9145,3.9233,3.9233,3.9233,3.9233,3.9233,3.8605,3.8241,3.8241,3.8241,3.7776,3.687,3.7462,3.7141,3.5858,3.6053,3.5789,3.5123,3.4878,3.4325,3.3509,3.3422,3.2902,3.2148,3.2445,3.2382,3.1872,2.964,2.8342,2.7682,2.7431,2.6939,2.6371,0.0,1.8819,1.8556,1.8644,1.8581,1.9032,2.0478,2.1169,2.2553,2.548,2.7859,3.0316,3.3033,3.522,3.6731,3.736,3.733,3.6582,3.4936,3.3426,3.3727,3.6221,3.8465,4.0833,4.3344,4.485,4.6017,4.6781,4.6384,4.6384,4.6781,4.6781,4.6574,4.6208,4.6592,4.6558,4.6138,4.519,4.4812,4.4637,4.2901,4.1175,3.9544,3.8601,3.7674,3.6791,3.6148,3.5907,3.5727,3.4549,0.0,0.0,0.0,0.0,0.0,0.0,0.0,0.0,0.0,0.0,0.0,0.0,0.0,0.0,0.0,0.0,0.0,0.0,0.0,0.0,0.0,0.0,0.0,0.0,3.3897,3.5918,3.6395,3.7287,3.8216,3.9107,3.9496,3.9697,3.9697,3.9697,3.9697,3.9697,3.9697,3.9697,3.9697,3.9069,3.8492,3.8027,3.8467,3.7952,3.643,3.745,3.745,3.6405,3.6405,3.6405,3.6405,3.6031,3.5215,0.0,3.4186,3.3533,3.2403,3.288,3.3124,0.0,0.0,0.0,0.0,0.0,2.8138,2.7797,0.0,1.8707,1.8795,1.8442,1.8719,1.9371,2.0528,2.1239,2.2823,2.6159,2.823,3.0697,3.4017,3.5564,3.6596,3.715,3.7659,3.6492,3.308,3.3031,3.5216,3.9872,4.155,4.3364,4.5461,4.6168,4.6918,4.777,4.6918,4.6952,4.777,4.777,4.7306,4.6558,4.7389,4.7306,4.6454,4.5488,4.5132,4.502,4.3912,4.2704,4.1474,4.0307,3.911,3.8003,3.7375,3.6821,3.6357,3.6133,0.0,0.0,0.0,0.0,0.0,0.0,0.0,0.0,0.0,0.0,0.0,0.0,0.0,0.0,0.0,0.0,0.0,0.0,0.0,0.0,0.0,0.0,0.0,0.0,3.6062,3.7751,3.8856,3.9007,3.9145,3.9634,3.9697,3.9697,3.9697,3.9697,3.9697,3.9697,3.9697,3.9697,3.9697,0.0,0.0,0.0,0.0,3.8492,3.643,3.745,3.745,3.6405,3.6405,3.6405,3.6405,3.6405,3.5273,3.3319,3.4299,3.352,3.1662,3.2667,3.3124,3.3111,3.2973,3.224,3.116,3.0018,2.9679,0.0,0.0,1.9208,1.8581,1.9359,1.9208,1.9371,2.0528,2.1662,2.3524,2.6726,2.8917,3.1077,3.3422,3.4891,3.5744,3.5863,3.5474,3.5145,3.4936,3.5153,3.7189,4.147,4.324,4.5135,4.7328,4.8096,4.8545,4.8719,4.8545,4.8545,4.8719,4.8719,4.8625,4.8482,4.8656,4.8625,4.8401,4.7456,4.707,4.69,4.5211,4.3876,4.2886,4.2632,4.2363,4.2064,4.1497,4.1489,4.1541,3.9993,3.8988,3.8433,3.8383,3.6728,0.0,0.0,0.0,0.0,0.0,0.0,0.0,0.0,0.0,0.0,0.0,0.0,0.0,0.0,0.0,0.0,0.0,0.0,0.0,3.7295,3.8108,3.8781,3.9433,3.9534,3.9572,3.9685,3.9697,3.9697,3.9697,3.9697,3.9697,3.9697,3.9697,3.9697,3.9697,3.8831,3.8228,3.8015,3.8216,3.7701,3.6417,3.745,3.745,3.6405,0.0,0.0,3.6405,3.6405,3.5642,3.4412,3.4625,3.3972,3.281,3.3023,3.3124,3.3023,3.2077,3.1323,3.0583,2.9013,2.9013,2.9666,1.9791,1.9529,1.9095,1.9334,1.9171,1.9459,2.0893,2.165,2.3075,2.5976,2.7804,2.9779,3.2244,3.308,3.3784,3.4442,3.3888,3.4541,3.7035,3.7684,3.99,4.417,4.5562,4.6928,4.8413,4.8815,4.9001,4.9001,4.9001,4.9001,4.9001,4.9001,4.9001,4.9001,4.9001,4.9001,4.894,4.8015,4.7589,4.7489,4.6064,4.493,4.4004,4.3472,4.329,4.3245,4.297,4.3045,4.314,4.2192,4.1654,4.1287,4.0995,3.9944,3.834,0.0,0.0,0.0,0.0,0.0,0.0,0.0,0.0,0.0,0.0,0.0,0.0,0.0,0.0,3.7714,3.7714,0.0,3.861,3.9848,4.0114,4.0324,4.0627,4.0642,4.0415,3.9788,3.9697,3.9697,3.9697,3.9697,3.9697,3.9697,3.9697,3.9697,3.9697,3.9157,3.8592,3.8027,3.8555,3.804,3.643,3.745,3.745,3.6405,3.6405,3.6405,3.6405,3.6405,3.5906,3.5069,3.4806,3.4248,3.347,3.3194,3.2905,3.2566,3.1712,3.1235,3.0834,2.9465,2.9302,2.9716,1.901,1.9604,1.9668,1.9396,1.9321,1.9823,2.1267,2.1708,2.2754,2.5227,2.6716,2.8466,3.1013,3.1409,3.1869,3.2826,3.2781,3.4348,3.8175,3.9566,4.2059,4.606,4.7087,4.7847,4.8416,4.8639,4.8719,4.8719,4.8909,4.9001,4.9001,4.9001,4.9001,4.9001,4.9001,4.9001,4.894,4.8193,4.7868,4.777,4.6643,4.5742,4.4946,4.3732,4.329,4.329,4.329,4.32,4.3125,4.3245,4.32,4.3075,4.2671,4.259,4.1886,3.8287,3.7973,0.0,0.0,0.0,0.0,0.0,0.0,0.0,0.0,3.839,3.8555,3.8546,3.9076,3.9719,4.012,4.0238,4.0751,4.2275,4.2149,4.1799,4.1607,4.1604,4.1119,3.9839,3.9697,3.9697,3.9697,3.9697,3.9697,3.9697,3.9697,3.9697,3.9697,3.9697,3.927,3.8366,3.922,3.873,3.6744,3.7563,3.745,3.6405,3.6405,3.6405,3.6405,3.6405,3.6006,3.5307,3.4688,3.4148,3.3709,3.3257,3.2805,3.2315,3.165,3.1386,3.126,3.0193,2.9792,2.9792,0.0,1.9224,1.9812,2.0409,2.0515,2.0729,2.1393,2.2461,2.3883,2.5848,2.7363,2.8857,3.0349,3.1117,3.1316,3.0881,3.2407,3.4355,3.6613,3.9267,4.201,4.4882,4.5901,4.6424,4.6523,4.734,4.777,4.777,4.8576,4.9001,4.9001,4.9001,4.9001,4.9001,4.9001,4.9001,4.9001,4.8892,4.8829,4.8688,4.6918,4.6138,4.5834,4.4013,4.329,4.329,4.329,4.297,4.259,4.3135,4.294,4.259,4.306,4.3185,4.2751,4.0606,4.0068,3.9469,3.6267,3.4603,3.4375,3.6775,3.8264,3.9661,0.0,4.3592,4.5057,4.4489,4.5382,4.6232,4.6291,4.5434,4.4748,4.4963,4.4045,4.2863,4.1775,4.1604,4.1119,3.9839,3.9697,3.9697,3.9697,3.9697,3.9697,3.9697,3.9697,3.9697,3.9697,3.9697,3.9634,3.9509,3.9622,3.9094,3.7839,3.7952,3.745,3.6405,3.6405,3.6405,3.6405,3.6405,3.5793,3.4705,3.3709,3.3219,3.3169,3.3106,3.3043,3.2867,3.18,3.1386,3.126,3.0193,2.9792,2.9792,0.0,1.8596,1.9302,2.0057,2.0465,2.088,2.1405,2.2229,2.3305,2.4876,2.5612,2.6672,2.8401,2.9262,2.9466,2.885,3.0971,3.3578,3.6519,3.9294,4.2216,4.5471,4.6012,4.6208,4.6208,4.6592,4.6781,4.6781,4.7172,4.7373,4.7373,4.7373,4.7373,4.7373,4.7373,4.7373,4.7373,4.7373,4.7373,4.7306,4.6539,4.5869,4.5285,4.4472,4.3568,4.2656,4.1893,4.1444,0.0,4.11,4.0876,4.0831,4.1863,4.1669,4.0853,4.0068,3.9544,3.902,3.8048,3.8482,3.9394,4.0113,4.1878,4.3658,4.4481,4.5529,4.6309,4.6441,4.692,4.7309,4.7309,4.6235,4.5593,4.6373,4.542,4.4122,4.2883,4.2689,4.1985,3.9929,3.9107,3.8718,3.8718,3.9308,3.9421,3.8755,3.932,3.9697,3.9697,3.9697,3.9697,3.9697,3.9697,3.9157,3.8015,3.8002,3.745,3.6405,3.6405,3.6405,3.6405,3.6405,3.5755,3.4675,3.3897,3.337,3.3124,3.3124,3.3124,3.3006,3.219,3.1675,3.126,3.0193,2.9792,2.9792,0.0,1.7641,1.8394,1.9333,2.0011,2.065,2.1377,2.2083,2.2879,2.3833,2.4147,2.4932,2.6601,2.7244,2.7406,2.7029,2.9553,3.2542,3.5722,3.8767,4.1841,4.5007,4.529,4.54,4.54,4.5654,4.5798,4.5798,4.6067,4.6208,4.6208,4.6208,4.6208,4.6224,4.6381,4.6477,4.6493,4.6633,4.6637,4.6442,4.6176,4.5552,4.4759,4.431,4.316,4.1737,4.0741,4.0157,3.9753,3.908,3.899,3.9275,4.0038,3.9888,3.9343,3.9185,3.8661,3.8302,3.9185,4.0629,4.2073,4.256,4.4212,4.5876,4.6429,4.6591,4.6726,4.7204,4.7309,4.7309,4.7309,4.6516,4.6172,4.7145,4.6486,4.5445,4.4176,4.4022,4.3081,4.0491,3.9199,3.8263,3.7604,3.8578,3.9019,3.8517,3.9233,3.9697,3.9697,3.9697,3.9697,3.9697,3.9546,3.8994,3.8015,3.7852,3.7299,3.6405,3.6405,3.6405,3.6405,3.6044,3.5479,3.4675,3.3985,3.3445,3.3124,3.3124,3.3124,3.3061,3.2441,3.1964,3.1486,3.0419,2.993,2.9792,0.0,0.0,1.7034,1.8474,1.9221,2.0048,2.1322,2.241,2.3083,2.3138,2.3826,2.4609,2.537,2.5481,2.5495,2.5467,2.851,3.1306,3.3365,3.7243,4.0366,4.2413,4.3064,4.3409,4.3409,4.432,4.4849,4.4849,4.5762,4.6208,4.6208,4.6208,4.6208,4.624,4.6889,4.7157,4.7205,4.7807,4.7711,4.7084,4.6106,4.537,4.4637,4.3075,4.1617,4.0457,4.0412,3.9559,3.8347,3.7689,3.7898,3.8317,3.7719,3.8407,3.9254,3.8616,3.7958,3.7734,3.905,3.899,3.932,4.2551,4.3868,4.4885,4.683,4.7279,4.7279,4.7309,4.7309,4.7309,4.7309,4.7279,4.7249,4.7294,4.7279,4.6784,4.5539,4.5358,4.4371,4.1755,4.0495,3.8906,3.6577,3.7351,3.8504,3.9559,3.9672,3.9697,3.9697,3.9697,3.9697,3.9697,3.9182,3.8617,3.8015,3.7475,3.6971,3.6405,3.6405,3.6405,3.6367,3.5265,3.4705,3.4618,3.3571,3.3136,3.3124,3.3124,3.3124,3.3061,3.2441,3.2202,3.2064,3.0984,3.0256,2.9792,0.0,0.0,0.0,1.8598,1.9773,2.0664,2.1107,2.1972,2.2694,2.3058,2.3335,0.0,0.0,0.0,0.0,0.0,2.6833,2.8723,3.1057,3.3602,3.6561,4.0065,4.113,4.2162,4.329,4.363,4.381,4.381,4.4113,4.4289,4.4289,4.4289,4.4496,4.494,4.517,4.5522,4.592,4.569,4.5721,4.5819,4.4595,4.4264,4.427,4.2436,4.0891,3.9529,0.0,3.6567,3.5657,3.4532,3.4592,3.525,3.5938,3.5848,3.5444,3.522,3.6851,3.8646,3.8197,3.9807,4.1938,4.3075,4.484,4.6471,4.716,4.7309,4.7309,4.7309,4.6591,4.5963,4.5963,4.5274,4.499,4.5843,4.5244,4.4828,4.5353,4.3846,4.2748,4.2823,4.1096,3.9865,3.9817,3.87,0.0,3.7538,3.8868,3.9697,3.9697,3.9697,3.9697,3.9697,3.9157,3.8592,3.8015,3.7462,3.6958,3.6405,3.6405,3.6169,3.5793,3.5064,3.4525,3.4135,3.3395,3.3124,3.3124,3.3124,3.3124,3.3056,3.2867,3.2554,3.2127,3.1399,3.0796,3.0281,0.0,0.0,0.0,0.0,0.0,0.0,0.0,0.0,0.0,0.0,0.0,0.0,0.0,0.0,0.0,0.0,0.0,2.687,2.8935,3.1045,3.3621,3.6816,3.8059,3.9207,4.0266,4.0695,4.0992,4.1186,4.1598,4.207,4.2684,4.2684,4.3123,4.3932,4.4212,4.4541,4.493,4.4751,4.4766,4.4811,4.3254,4.2746,4.2701,4.0711,3.9155,0.0,3.5564,3.4352,3.3604,3.2497,3.2766,3.3604,3.4233,3.4173,3.4023,3.4966,3.6881,3.8721,3.8796,4.104,4.3409,4.3873,4.5678,4.7309,4.7309,4.7115,4.695,4.695,4.6262,4.5514,4.5035,4.4466,4.4347,4.517,4.4586,4.4492,4.5859,4.4588,4.3661,4.4105,4.2427,4.1199,4.1005,3.9581,3.8225,3.7084,3.8291,3.9094,3.9094,3.9094,3.9182,3.9396,3.8856,3.8291,3.7713,3.7161,3.6757,3.6405,3.6405,3.6069,3.5483,3.4931,3.4198,3.3294,3.3144,3.2855,3.2503,3.2948,3.3124,3.3124,3.3124,3.2855,3.2428,3.1675,3.1173,3.0783,0.0,0.0,0.0,0.0,0.0,0.0,0.0,0.0,0.0,0.0,0.0,0.0,0.0,0.0,0.0,0.0,0.0,0.0,2.696,2.9405,3.1449,3.2877,3.41,3.4799,3.4906,3.5962,3.6749,3.7254,3.8283,3.9648,4.1258,4.1286,4.1893,4.2991,4.3647,4.4001,4.4116,4.4698,4.4635,4.3943,4.2013,4.0876,4.0127,3.8123,3.6611,3.5385,3.4023,3.3125,3.2452,3.1735,3.2452,3.3499,3.2976,3.3679,3.5192,3.7659,3.8048,3.8197,4.0711,4.2417,4.3738,4.5035,4.6307,4.7249,4.7249,4.6741,4.6204,4.6145,4.61,4.5693,4.4317,4.4571,4.5035,4.517,4.514,4.5603,4.7055,4.7174,4.6651,4.5439,4.4376,4.2811,4.0408,4.0194,3.9616,3.8199,0.0,3.809,3.809,3.809,3.8329,3.8906,3.8304,3.7739,3.7199,3.6681,3.6405,3.6405,3.638,3.6031,3.5445,3.4881,3.3796,3.229,3.283,3.2466,3.1562,3.2629,3.3124,3.3124,3.3086,3.3031,3.2905,3.1763,3.1348,3.1198,0.0,0.0,0.0,0.0,0.0,0.0,0.0,0.0,0.0,0.0,0.0,0.0,0.0,0.0,0.0,0.0,0.0,0.0,2.4752,2.62,2.8123,3.0607,3.1762,3.3174,3.4841,3.5162,3.54,3.5529,3.5798,3.6175,3.6626,3.7011,3.7632,3.8418,3.8976,3.992,4.1075,4.0729,4.0929,4.1265,3.9753,3.9349,3.9454,3.7479,3.6522,3.6058,3.4711,3.3799,3.3066,3.1884,3.305,3.522,3.6492,3.712,3.7524,3.8182,3.9679,4.1183,4.1324,4.3419,4.5607,4.5978,4.6322,4.6576,4.6576,4.6052,4.5274,4.4261,4.3718,4.2821,4.0995,4.0801,4.1564,4.3469,4.3015,4.3359,4.6172,4.5248,4.4586,4.5214,4.5066,4.464,4.4054,4.3976,4.274,0.0,3.9294,3.927,3.927,3.927,3.9145,3.8932,3.8304,3.7739,3.7199,3.6681,3.6405,3.6405,3.5943,3.542,3.4868,3.4361,3.3646,3.2867,3.3018,3.296,3.2667,3.2998,3.3124,3.3074,3.2604,3.2428,3.2303,3.1223,3.0809,3.0721,0.0,0.0,0.0,0.0,0.0,0.0,0.0,0.0,0.0,0.0,0.0,0.0,0.0,0.0,0.0,0.0,0.0,0.0,0.0,2.4996,2.6202,2.7613,2.8721,2.9908,3.1204,3.1911,3.2262,3.2262,3.3001,3.3646,3.4156,3.447,3.5082,3.5941,3.6224,3.6884,3.7725,3.7368,3.7503,0.0,0.0,3.6175,3.693,3.523,3.5032,3.5537,3.4773,3.4279,3.4038,3.4709,3.5561,3.6791,3.937,3.9933,3.9933,4.1085,4.2073,4.2836,4.3045,4.4676,4.6279,4.6279,4.6279,4.613,4.5574,4.4691,4.3643,4.2312,4.1983,4.1362,3.9334,3.9694,4.0861,4.2626,4.2536,4.3105,4.5529,4.49,4.4466,4.5214,4.5289,4.5319,4.5364,4.5403,4.4298,4.168,4.0419,3.956,3.8994,3.8718,3.8567,3.8492,3.7939,3.7374,3.6822,3.6568,3.6405,3.6405,3.5805,3.5207,3.4655,3.4148,3.3319,3.2365,0.0,3.2847,3.2378,3.2867,3.3124,3.3086,3.2717,3.2441,3.2114,3.1273,3.0809,3.0532,0.0,0.0,0.0,0.0,0.0,0.0,0.0,0.0,0.0,0.0,0.0,0.0,0.0,0.0,0.0,0.0,0.0,0.0,0.0,0.0,2.4934,2.453,2.5487,2.602,2.6094,2.7591,2.8363,2.8363,2.9952,3.1303,3.2326,3.2366,3.2928,3.3887,3.397,3.4071,3.4182,3.4182,3.4214,3.4114,3.2437,3.2557,3.3633,0.0,0.0,3.4243,3.4401,3.4511,3.5115,3.8437,3.8766,3.8407,4.1856,4.247,4.2342,4.4631,4.4556,4.3917,4.5005,4.5858,4.6414,4.6414,4.6322,4.5873,4.4706,4.3299,4.1901,4.0531,4.0651,4.0427,3.8601,3.9903,4.1527,4.2276,4.294,4.3733,4.4766,4.5125,4.5229,4.5065,4.5185,4.5404,4.5648,4.5484,4.4929,4.3821,4.1808,4.0026,3.855,3.7799,3.7563,3.7889,3.7362,3.6895,3.6417,3.6405,3.6367,3.6292,3.5705,3.5107,3.46,3.4035,3.2993,3.1662,0.0,0.0,3.1687,3.2667,3.3124,3.3111,3.2993,3.2654,3.2152,3.1599,3.106,3.0545,0.0,0.0,0.0,0.0,0.0,0.0,0.0,0.0,0.0,0.0,2.0753,2.1217,0.0,0.0,0.0,0.0,0.0,0.0,0.0,0.0,0.0,2.3038,2.3244,2.3577,2.4024,2.511,2.5673,2.5673,2.6801,2.7448,2.7659,2.813,2.8441,2.8633,2.9096,2.9725,3.0436,3.0436,3.0595,3.0868,3.0948,3.1154,3.1414,3.1638,0.0,0.0,3.382,3.4629,3.5833,3.9125,4.0068,4.0546,4.4421,4.517,4.4706,4.517,4.5544,4.5696,4.5394,4.6187,4.713,4.713,4.6292,4.5409,4.5185,4.3269,4.1175,3.9858,3.923,3.8631,3.7749,3.9215,4.0965,4.2201,4.2925,4.3225,4.295,4.4272,4.49,4.3838,4.4646,4.5729,4.6841,4.5979,4.527,4.5075,4.4673,4.3421,4.1104,3.9496,3.8191,3.7349,3.6832,3.6505,3.6405,3.6405,3.6132,3.5633,3.5082,3.4575,3.4022,3.347,3.3056,3.2847,3.2993,0.0,3.2847,3.3036,3.3124,3.3074,3.2554,3.2303,3.2152,3.1599,3.106,3.0608,0.0,0.0,0.0,0.0,0.0,0.0,0.0,1.8334,1.8738,1.9173,1.998,2.0801,2.1484,2.1363,2.1533,0.0,0.0,0.0,0.0,0.0,0.0,0.0,2.2961,2.3243,2.3478,2.4262,2.4494,2.4228,0.0,2.5481,2.5746,2.599,2.6373,2.6901,2.7165,2.7513,2.7941,2.7941,2.8048,2.8231,2.8765,2.9451,3.02,0.0,0.0,0.0,3.3101,3.3891,3.5165,3.8142,3.9254,4.0172,4.4814,4.6337,4.6202,4.5499,4.6022,4.6606,4.5574,4.6277,4.7309,4.7309,4.6292,4.493,4.3569,4.1758,3.9798,3.7793,3.7389,3.7195,3.6537,3.8033,3.9903,4.1617,4.2686,4.3464,4.3838,4.4691,4.5065,4.4451,4.493,4.5544,4.6202,4.5678,4.5335,4.533,4.4719,4.3568,4.1713,3.9583,3.8184,3.768,3.6848,3.6675,3.7276,3.6709,3.6094,3.5495,3.4944,3.4437,3.3884,3.3332,3.3124,3.3124,3.3124,0.0,3.224,3.2872,3.2729,3.2227,3.2541,3.2303,3.175,3.1486,3.0884,3.0181,0.0,0.0,0.0,0.0,0.0,0.0,0.0,1.8447,1.8744,1.8744,1.9521,2.0464,2.15,2.1003,2.1042,0.0,0.0,0.0,0.0,0.0,0.0,0.0,0.0,2.2898,2.2898,0.0,0.0,2.3338,2.4051,0.0,0.0,0.0,0.0,0.0,2.6226,2.6314,2.6499,2.6499,2.6499,0.0,0.0,2.816,0.0,0.0,0.0,0.0,0.0,3.2974,3.4247,3.6628,3.7805,3.9038,4.35,4.5436,4.5903,4.5274,4.5828,4.6531,4.5903,4.6501,4.7309,4.7309,4.6292,4.4676,4.2342,4.0576,3.8751,3.6402,3.6103,3.6207,3.5953,3.727,3.905,4.1055,4.2132,4.321,4.4661,4.4885,4.499,4.5259,4.5289,4.5409,4.5693,4.5469,4.5409,4.5708,4.4572,4.3195,4.1718,3.9845,3.8687,3.8509,3.7645,3.7461,3.8107,3.7461,3.6552,3.532,3.5185,3.4616,3.3709,3.3269,3.3124,3.3124,3.3124,0.0,0.0,3.2616,3.2571,3.1853,3.2996,3.2931,3.2228,3.2228,3.1523,3.0535,0.0,0.0,0.0,0.0,0.0,0.0,0.0,1.8701,1.9228,1.9228,2.0008,2.0566,2.0709,2.0632,2.0652,0.0,0.0,0.0,0.0,0.0,0.0,0.0,0.0,0.0,0.0,0.0,0.0,2.2784,2.4088,0.0,0.0,0.0,0.0,0.0,0.0,2.5664,2.6499,2.6499,0.0,0.0,0.0,0.0,0.0,0.0,0.0,0.0,0.0,3.2226,3.3666,3.5135,3.6618,3.8144,3.9841,4.1106,4.2252,4.3913,4.4496,4.496,4.6651,4.7219,4.7309,4.7309,4.6292,4.493,4.3524,4.125,3.9005,3.7539,3.6357,3.5938,3.703,3.7868,3.905,4.1055,4.098,4.1339,4.32,4.3554,4.3988,4.5155,4.5289,4.5783,4.6995,4.6007,4.5798,4.7025,4.5931,0.0,4.1824,4.1475,4.0872,3.9766,3.9637,3.9094,3.8107,3.9094,3.7967,3.4801,3.5833,3.5236,3.3156,3.3106,3.3124,3.3124,3.3124,0.0,0.0,3.2616,3.3018,3.2988,3.4106,3.4714,3.495,3.495,3.4145,3.2944,0.0,0.0,0.0,0.0,0.0,0.0,1.8008,1.8516,1.8994,1.9248,1.9805,2.0381,2.0908,2.0967,2.0859,2.0625,0.0,0.0,0.0,0.0,0.0,0.0,0.0,0.0,0.0,0.0,2.205,2.2592,2.29,0.0,0.0,0.0,0.0,0.0,0.0,2.5779,2.6499,2.6499,0.0,0.0,0.0,0.0,0.0,0.0,0.0,0.0,0.0,0.0,3.228,3.3528,3.4492,3.5423,3.698,3.7469,3.7996,4.0584,4.2761,4.4317,4.4332,4.5783,4.7309,4.7309,4.6292,4.4751,4.2656,4.0756,3.8811,3.6701,3.5863,3.5654,3.6163,3.6806,3.7898,3.9873,4.0307,4.1369,4.4122,4.4526,4.5035,4.6352,4.6501,4.6396,4.6127,4.5603,4.5514,4.6052,4.5272,0.0,4.3906,4.2505,4.1455,4.0958,4.0275,3.9792,3.9618,3.9405,3.8244,3.6162,3.6641,3.589,3.4079,3.4079,3.3713,3.3124,3.3124,0.0,0.0,3.234,3.2649,3.2178,3.3978,3.4713,3.4737,3.4737,3.3965,3.2858,0.0,0.0,0.0,0.0,0.0,1.8008,1.8008,1.8477,1.8936,1.9248,1.9766,2.04,2.1112,2.1307,2.1299,2.1026,2.1133,0.0,0.0,0.0,0.0,0.0,0.0,0.0,0.0,0.0,2.1931,2.2705,2.2529,2.2971,0.0,0.0,2.3932,2.515,0.0,0.0,0.0,0.0,0.0,0.0,0.0,0.0,0.0,0.0,0.0,0.0,0.0,0.0,0.0,0.0,0.0,3.3441,3.459,3.4959,3.5458,3.8288,4.1025,4.312,4.3024,4.493,4.7055,4.7249,4.5992,4.4182,4.2171,4.0187,3.8302,3.6447,3.5923,3.5848,3.6028,3.6297,3.7135,3.9059,3.9813,4.113,4.4018,4.4586,4.5214,4.6546,4.6711,4.6486,4.5948,4.5888,4.5813,4.5618,4.517,0.0,4.5005,4.3387,4.2367,4.2099,4.1137,4.0615,4.061,3.9961,3.8792,3.711,3.7433,3.6413,3.4203,3.4559,3.3926,3.2634,0.0,0.0,0.0,3.3111,3.3384,3.2654,3.4582,3.5193,3.5014,3.5014,3.437,3.3429,0.0,0.0,0.0,0.0,0.0,0.0,1.8008,1.874,1.9277,1.9287,2.0067,2.0732,2.1142,2.1621,2.1875,2.1875,2.1484,0.0,0.0,0.0,0.0,0.0,0.0,0.0,0.0,0.0,2.2715,2.3198,2.3564,2.3779,2.3814,2.3394,2.3503,2.4012,0.0,0.0,0.0,0.0,0.0,0.0,0.0,0.0,0.0,0.0,0.0,0.0,0.0,0.0,0.0,0.0,0.0,0.0,0.0,3.3779,3.5371,3.7723,3.9364,4.101,4.3584,4.5248,4.6444,4.7145,4.5304,4.318,4.2545,3.9798,3.7419,3.7404,3.6911,3.6656,3.7285,3.6896,3.7135,3.9059,3.9424,4.0127,4.2156,4.294,4.3838,4.5155,4.5319,4.5843,4.716,4.7279,4.701,4.6324,4.6264,0.0,4.4392,4.4276,4.3977,4.3319,4.2701,4.1804,4.061,4.1115,3.9935,3.711,3.8243,3.676,3.3079,3.419,3.3485,0.0,0.0,0.0,0.0,3.5283,3.577,3.5276,3.636,3.6666,3.6492,3.6492,3.604,3.5326,0.0,0.0,0.0,0.0,0.0,0.0,0.0,1.8242,1.8623,1.9209,1.9521,2.0088,2.1083,2.1621,2.2002,2.2295,2.2187,0.0,0.0,0.0,0.0,0.0,0.0,0.0,0.0,0.0,2.3008,2.4014,2.3867,2.4092,2.4648,2.3971,2.3911,2.4409,2.4912,2.5549,0.0,0.0,0.0,0.0,0.0,0.0,0.0,0.0,0.0,0.0,0.0,0.0,0.0,0.0,0.0,0.0,0.0,0.0,0.0,3.5074,3.7113,3.92,4.0038,4.1908,4.3569,4.3314,4.2955,4.2267,4.0711,3.917,3.7943,3.7494,3.6911,3.6671,3.73,3.6911,3.7285,3.9694,3.9709,4.0576,4.3898,4.4541,4.517,4.6516,4.6666,4.683,4.7264,0.0,4.6037,4.6264,0.0,0.0,4.4317,4.3464,4.288,4.2671,4.2515,4.1793,4.0489,4.0651,4.0018,3.8689,3.9054,3.7717,3.5022,3.6242,0.0,0.0,0.0,0.0,0.0,3.5636,3.5808,3.5325,3.636,3.6666,3.6492,3.6492,3.6073,3.5457,0.0,0.0,0.0,0.0,0.0,0.0,0.0,1.8144,1.8496,1.9199,1.9424,2.0019,2.1338,2.1719,2.2119,2.2705,2.29,0.0,0.0,0.0,0.0,0.0,0.0,0.0,2.2734,2.291,2.3457,2.4414,2.4316,2.4587,2.5096,2.4355,2.4103,2.4336,2.5207,2.5792,0.0,0.0,0.0,0.0,0.0,0.0,0.0,0.0,0.0,0.0,0.0,0.0,0.0,0.0,0.0,0.0,0.0,0.0,0.0,0.0,3.6175,3.8123,3.8631,4.0172,4.1677,4.1767,4.1542,4.0995,4.0008,3.8871,3.8048,3.8153,3.7868,3.7719,3.8093,3.7644,3.7659,3.905,3.9768,4.0846,4.2806,4.3928,4.487,4.5708,4.6247,4.6741,0.0,4.6322,4.5753,4.5918,0.0,0.0,4.3888,4.294,4.2291,4.2036,4.1796,4.1235,4.0412,4.0157,3.9828,3.9388,3.9388,3.8227,3.6036,3.7253,0.0,0.0,0.0,0.0,0.0,3.6708,3.6641,3.6069,3.6505,3.6473,3.6118,3.6118,3.5863,3.5504,0.0,0.0,0.0,0.0,0.0,0.0,0.0,1.8305,1.8724,1.9228,1.9629,2.0371,2.1689,2.1865,2.2217,2.3023,0.0,0.0,0.0,0.0,0.0,0.0,0.0,0.0,2.312,2.3584,2.4014,2.4463,2.4863,2.5135,2.5155,2.4639,2.4209,2.3879,2.51,2.5766,0.0,0.0,0.0,0.0,0.0,0.0,0.0,0.0,0.0,0.0,0.0,0.0,0.0,0.0,0.0,0.0,0.0,0.0,0.0,0.0,0.0,0.0,0.0,3.9723,4.0487,4.1737,4.0666,3.9514,4.0127,3.8781,0.0,3.92,3.9409,3.9394,3.9529,3.899,3.8362,3.7838,3.9798,4.0995,3.9858,4.184,4.3409,4.3305,4.4586,4.5873,4.698,4.6621,4.6022,0.0,0.0,0.0,4.326,4.2641,4.2036,4.1324,4.0666,4.0337,4.0337,3.9723,3.9328,3.9239,3.9328,3.8254,3.6206,3.7372,0.0,0.0,0.0,0.0,0.0,3.8261,3.7973,3.7285,3.6716,3.6088,3.5504,3.5504,3.5504,3.5504,0.0,0.0,0.0,0.0,0.0,0.0,0.0,0.0,0.0,0.0,1.9375,1.9932,2.12,2.168,2.2217,0.0,0.0,0.0,0.0,0.0,0.0,0.0,0.0,0.0,2.3623,2.374,2.416,2.4959,2.5067,2.5244,2.5566,2.4775,2.4365,2.432,2.5689,2.7238,0.0,0.0,0.0,0.0,0.0,0.0,0.0,0.0,0.0,0.0,2.8298,2.8561,0.0,0.0,0.0,0.0,0.0,0.0,0.0,0.0,3.4879,3.6881,3.7674,0.0,3.8182,3.8497,3.8601,3.8676,0.0,3.8108,3.7943,3.9783,3.9349,3.9095,4.0636,4.0367,4.0202,4.1093,4.1332,4.1624,4.2273,4.3808,4.4466,4.3494,4.5424,4.6352,4.514,4.5813,4.5828,0.0,0.0,4.3808,4.268,4.2006,4.1347,4.0651,3.9993,3.9649,3.9649,3.9499,3.8901,3.7898,3.8931,3.8092,3.5748,3.8014,0.0,0.0,0.0,0.0,3.8267,3.8381,3.7719,3.6686,3.6552,3.6088,3.5504,3.5504,3.5504,3.5504,0.0,0.0,0.0,0.0,0.0,0.0,0.0,0.0,0.0,0.0,0.0,0.0,0.0,0.0,0.0,0.0,0.0,0.0,0.0,0.0,0.0,0.0,0.0,2.291,2.3769,2.3975,2.4404,2.5116,2.5273,2.5391,2.541,2.4736,2.4316,2.4183,2.5807,2.7718,0.0,0.0,0.0,0.0,0.0,0.0,0.0,0.0,0.0,0.0,2.772,2.7921,0.0,2.8122,2.8511,2.9126,0.0,0.0,0.0,0.0,3.4786,3.6178,3.6806,3.6985,3.7285,3.8482,3.8586,3.8556,3.917,3.8811,3.8721,4.0113,3.9813,3.9649,4.0726,4.0382,4.0277,4.1294,4.116,4.1504,4.3135,4.3958,4.4152,4.3479,4.4362,4.484,0.0,4.4975,0.0,0.0,0.0,4.3419,4.2455,4.1767,4.107,4.0427,3.9768,3.9388,3.9388,3.9388,3.8751,3.7419,3.8745,3.8347,3.6447,3.8461,3.902,0.0,0.0,0.0,3.8317,3.7434,3.6836,3.6462,3.6148,3.5818,3.5504,3.5504,3.5504,3.5504,0.0,0.0,0.0,0.0,0.0,0.0,0.0,0.0,0.0,0.0,0.0,0.0,0.0,0.0,0.0,0.0,0.0,0.0,0.0,0.0,0.0,0.0,0.0,2.2978,2.3769,2.4199,2.4629,2.5116,2.5518,2.5547,2.5156,2.4648,2.4242,2.4019,2.5817,2.7708,0.0,0.0,0.0,0.0,0.0,0.0,0.0,0.0,0.0,0.0,0.0,0.0,0.0,2.772,2.8068,2.8613,3.0393,0.0,0.0,0.0,0.0,0.0,3.6163,3.6417,3.709,3.9619,3.923,3.8601,3.9948,3.9664,3.9349,4.0217,4.0397,4.0457,4.0666,4.0412,4.0277,4.0636,4.0786,4.1444,4.3135,4.3524,4.3539,4.3269,4.3114,0.0,4.3943,0.0,0.0,0.0,0.0,4.2895,4.2291,4.1632,4.0935,4.0277,3.9709,3.9388,3.9388,3.9388,3.8751,3.7419,3.8745,3.8706,3.7464,3.8811,3.9388,0.0,0.0,0.0,3.8108,3.6372,3.5923,3.6282,3.5729,3.5504,3.5504,3.5504,3.5504,3.5504,0.0,0.0,0.0,0.0,0.0,0.0,0.0,0.0,0.0,0.0,0.0,0.0,0.0,0.0,0.0,0.0,0.0,0.0,0.0,0.0,0.0,2.4326,2.3452,2.3281,2.3779,2.4199,2.4629,2.5116,2.5518,2.5654,2.5567,2.4795,2.4506,2.471,2.6298,2.7518,2.8426,0.0,0.0,0.0,0.0,0.0,0.0,0.0,0.0,0.0,0.0,0.0,0.0,2.6876,2.7822,2.9293,2.9627,0.0,0.0,0.0,0.0,0.0,3.5474,3.6058,3.6985,3.905,3.8556,3.7913,3.926,3.8616,3.8227,4.0038,4.0397,4.0741,4.1886,4.288,4.324,4.2261,4.2521,4.2946,4.326,4.4287,4.4377,4.2755,0.0,4.4915,4.2905,0.0,0.0,0.0,0.0,4.2261,4.1602,4.0905,4.0247,3.9553,3.9433,3.9388,3.9388,3.9388,3.8751,3.7419,3.8745,3.8706,3.7464,3.8811,3.9388,0.0,0.0,3.7973,3.7494,3.6671,3.6073,3.5639,3.5549,3.5504,3.5504,3.5504,3.5504,3.5504,0.0,0.0,0.0,0.0,0.0,0.0,0.0,0.0,0.0,0.0,0.0,0.0,0.0,0.0,0.0,0.0,0.0,0.0,0.0,0.0,2.4316,2.4092,2.3701,2.3584,2.3789,2.4199,2.4629,2.5116,2.5518,2.5567,2.5361,2.4482,2.4466,2.5175,2.6273,2.7252,2.8176,2.9326,2.9792,0.0,0.0,0.0,0.0,0.0,0.0,0.0,0.0,0.0,0.0,0.0,2.8247,2.9154,3.0533,0.0,0.0,0.0,0.0,0.0,3.3709,3.4622,3.6043,3.8751,3.896,3.9125,4.1519,3.9933,3.8601,4.098,4.0322,3.9828,4.1557,4.2327,4.2761,4.2865,4.4347,4.5229,4.4496,4.4601,4.4436,0.0,0.0,4.3703,0.0,0.0,0.0,0.0,0.0,0.0,4.0905,4.0561,4.0098,3.9403,3.9388,3.9388,3.9388,3.9388,3.8751,3.7419,3.8745,3.8706,3.7464,3.8811,3.9388,3.9298,0.0,3.7375,3.73,3.5953,3.5444,3.5504,3.5504,3.5504,3.5504,3.5504,3.5504,3.5504,0.0,0.0,0.0,0.0,0.0,0.0,0.0,0.0,0.0,0.0,0.0,0.0,0.0,0.0,0.0,0.0,0.0,0.0,0.0,0.0,2.4121,2.3799,2.3789,2.374,2.3643,2.415,2.458,2.4959,2.5469,2.5508,2.5106,2.4502,2.4516,2.5063,2.6011,2.6892,2.7815,2.8897,2.9608,0.0,0.0,0.0,0.0,0.0,0.0,0.0,0.0,0.0,0.0,0.0,0.0,0.0,0.0,0.0,0.0,3.2169,3.2019,3.1645,3.2303,3.3365,3.5028,3.8153,3.8841,3.9664,4.3269,4.101,3.896,4.1811,4.0658,3.9604,4.1332,4.1527,4.1863,4.329,4.5274,4.6352,4.5633,4.5095,4.4661,4.4347,4.3434,0.0,0.0,0.0,0.0,0.0,0.0,0.0,4.0442,4.0247,3.9933,3.9439,3.9388,3.9388,3.9388,3.9388,3.8901,3.7898,3.8931,3.8871,3.7913,3.8945,3.9334,3.908,3.7419,3.6881,3.706,3.54,3.5026,3.5504,3.5504,3.5504,3.5504,3.5504,3.5504,3.5504,0.0,0.0,0.0,0.0,0.0,0.0,0.0,0.0,0.0,0.0,0.0,0.0,0.0,0.0,0.0,0.0,0.0,0.0,0.0,0.0,2.3828,2.3789,2.3789,2.3603,2.3149,2.3949,2.4434,2.4463,2.5274,2.5508,2.5125,2.543,2.4951,2.3978,2.5485,2.6314,2.6678,2.7775,2.9138,3.0557,3.0595,0.0,0.0,0.0,0.0,0.0,0.0,0.0,0.0,0.0,0.0,0.0,0.0,0.0,3.2348,3.2467,3.2019,3.1645,3.2303,3.3021,3.4203,3.6881,3.712,3.7883,4.2333,4.0322,3.8407,4.1722,4.1767,4.1437,4.2186,4.1826,4.2013,4.3928,4.4407,4.493,4.6097,0.0,4.5666,4.4466,4.4227,0.0,0.0,0.0,0.0,0.0,0.0,0.0,4.0412,3.9828,3.9433,3.9388,3.9388,3.9388,3.9388,3.9388,3.9328,3.9239,3.9328,3.9328,3.9239,3.9379,3.9065,3.8422,3.7674,3.7045,3.6492,3.5744,3.5459,3.5504,3.5504,3.5504,3.5504,3.5504,3.5504,3.5504,0.0,0.0,0.0,0.0,0.0,0.0,0.0,0.0,0.0,0.0,0.0,0.0,0.0,0.0,0.0,0.0,0.0,0.0,0.0,2.3154,2.3344,2.3344,2.3643,2.3584,2.311,2.3929,2.4414,2.4414,2.5255,2.5596,2.5478,2.5371,2.4912,2.4216,2.5204,2.5969,2.6565,2.7643,2.9071,3.0645,3.0972,0.0,0.0,0.0,0.0,0.0,0.0,0.0,0.0,0.0,3.051,3.1044,3.2236,3.2287,3.1869,3.1869,3.1705,3.1555,3.1809,3.2677,3.4128,3.6761,3.6641,3.718,4.2154,4.122,4.0202,4.3509,4.2043,4.0232,4.0487,4.1669,4.2836,4.3544,4.4392,4.511,4.5618,4.5334,4.4885,4.4377,0.0,0.0,0.0,0.0,0.0,0.0,0.0,0.0,3.9813,3.9559,3.9388,3.9388,3.9388,3.9215,3.8781,3.8781,3.8571,3.8182,3.902,3.894,3.8182,3.8601,3.8407,3.7749,3.7105,3.6701,3.6432,3.5774,3.5504,3.5504,3.5504,3.5504,3.5504,3.5504,3.5504,3.5504,0.0,0.0,0.0,0.0,0.0,0.0,0.0,0.0,0.0,0.0,0.0,0.0,0.0,0.0,0.0,0.0,0.0,0.0,2.209,2.2777,2.3235,2.3428,2.4054,2.4308,2.4188,2.488,2.4977,2.4414,2.5255,2.5615,2.5518,2.5361,2.4902,2.4255,2.4836,2.5459,2.6237,2.7185,2.8633,3.0346,3.1113,3.1085,0.0,0.0,0.0,0.0,0.0,0.0,0.0,0.0,3.116,3.1307,3.2504,3.2542,3.2049,3.163,3.1511,3.1511,3.1511,3.2168,3.3514,3.6148,3.5983,3.6552,4.1833,4.1504,4.0965,4.4032,4.2686,4.0831,4.0427,4.1654,4.2791,4.2985,4.3778,4.4511,4.493,4.4601,4.4242,4.3992,0.0,0.0,0.0,0.0,0.0,0.0,0.0,0.0,0.0,3.9388,3.9388,3.9388,3.9215,3.8871,3.8392,3.8182,3.7764,3.7135,3.8257,3.8302,3.7419,3.7883,3.7719,3.709,3.6671,3.6372,3.6148,3.5684,3.5504,3.5504,3.5504,3.5504,3.5504,3.5504,3.5504,3.5504,0.0,0.0,0.0,0.0,0.0,0.0,0.0,0.0,0.0,0.0,0.0,0.0,0.0,0.0,0.0,0.0,0.0,0.0,2.119,2.2493,2.3531,2.4166,2.5065,2.5876,2.6472,2.6912,2.6226,2.4414,2.5293,2.5498,2.5116,2.5518,2.5029,2.3809,2.4238,2.4751,2.5459,2.6184,2.7713,2.9684,3.0898,3.1072,0.0,0.0,0.0,0.0,0.0,0.0,0.0,0.0,3.0871,3.213,3.1634,3.2407,3.323,3.1884,3.1511,3.1496,3.1511,3.1511,3.2138,3.4846,3.4996,3.5896,4.1153,4.0816,4.0151,4.2751,4.3838,4.3898,4.262,4.1856,4.1647,4.2291,4.2396,4.286,4.4122,4.4302,4.4062,0.0,0.0,0.0,0.0,0.0,0.0,0.0,0.0,0.0,0.0,3.9388,3.9388,3.9373,3.8751,3.8377,3.8362,3.7719,3.709,3.6492,3.7105,3.7389,3.7389,3.7404,3.706,3.6477,3.6477,3.6103,3.5504,3.5504,3.5504,3.5504,3.5504,3.5504,3.5504,3.5504,3.5504,3.5504,0.0,0.0,0.0,0.0,0.0,0.0,0.0,0.0,0.0,0.0,0.0,0.0,0.0,0.0,0.0,0.0,0.0,0.0,2.0781,2.1441,2.2039,2.257,2.3907,2.4812,2.5284,2.6479,2.6628,2.5583,2.5849,2.5506,2.4609,2.4746,2.4443,2.3818,2.4551,2.4781,2.4598,2.537,2.6858,2.8733,2.9068,2.9761,3.0633,0.0,0.0,0.0,0.0,0.0,0.0,0.0,0.0,0.0,3.1221,3.1927,3.2647,3.175,3.1167,3.112,3.2527,3.2213,3.2138,3.4846,3.5699,3.633,3.7903,3.9559,4.1145,4.2387,4.2845,4.2402,4.0621,4.1639,4.2521,4.1826,4.2447,4.318,4.3529,4.3225,4.2865,0.0,0.0,0.0,0.0,0.0,0.0,0.0,0.0,0.0,0.0,3.9388,3.92,0.0,3.8497,3.7958,3.706,3.6866,3.6432,3.5804,3.5983,3.6073,3.6088,3.6552,3.6402,3.5804,3.5804,3.5684,3.5504,3.5504,3.5504,3.5504,3.5504,3.5504,3.5504,3.5504,3.5504,3.5504,0.0,0.0,0.0,0.0,0.0,0.0,0.0,0.0,0.0,0.0,2.124,2.123,0.0,0.0,0.0,0.0,0.0,0.0,0.0,2.1054,2.1955,2.2901,2.4382,2.5663,2.6767,2.7714,2.7766,2.6875,2.636,2.5661,2.4776,2.451,2.4102,2.3555,2.4258,2.4282,2.381,2.4772,2.595,2.7294,2.8158,2.9114,2.9953,0.0,0.0,0.0,0.0,0.0,0.0,0.0,0.0,0.0,3.1116,3.211,3.3066,3.1854,3.1391,3.1629,3.3095,3.3095,3.3395,3.6327,3.6761,3.6805,3.7946,3.996,4.1955,4.3283,4.3935,4.3813,4.2195,4.331,4.4202,4.3439,4.3403,4.3517,4.3517,4.2627,0.0,0.0,0.0,0.0,0.0,0.0,0.0,0.0,0.0,0.0,0.0,3.9155,0.0,0.0,3.7898,3.727,3.6492,3.6237,3.5893,3.5504,3.5504,3.5504,3.5519,3.5908,3.5878,3.5504,3.5504,3.5504,3.5504,3.5504,3.5504,3.5504,3.5504,3.5504,3.5504,3.5504,3.5504,3.5504,0.0,0.0,0.0,0.0,0.0,0.0,0.0,0.0,0.0,0.0,2.0879,2.0781,0.0,0.0,0.0,0.0,0.0,0.0,0.0,0.0,2.2606,2.4273,2.5861,2.7682,2.9767,2.9792,2.9275,2.8255,2.6929,2.6034,2.5492,2.4861,2.4102,2.3276,2.3727,2.3585,2.3071,2.4139,2.4889,2.5534,2.7545,2.8509,2.88,2.9824,0.0,0.0,0.0,0.0,0.0,0.0,0.0,0.0,3.1133,3.2531,3.4039,3.2064,3.1974,3.2706,3.3544,3.4068,3.516,3.8422,3.7952,3.7528,4.0603,4.1729,4.2756,4.4906,4.6212,4.668,4.5899,4.5992,4.6192,4.6093,4.4894,4.3873,4.3702,4.2391,0.0,0.0,0.0,0.0,0.0,0.0,0.0,0.0,0.0,0.0,0.0,3.8736,0.0,3.8227,3.709,3.6462,3.6402,3.5804,3.5504,0.0,3.5504,3.5504,3.5504,3.5504,3.5504,3.5504,3.5504,3.5504,3.5504,3.5504,3.5504,3.5504,3.5504,3.5504,3.5504,3.5504,3.5504,3.5504,0.0,0.0,0.0,0.0,0.0,0.0,0.0,0.0,0.0,0.0,0.0,0.0,0.0,0.0,0.0,0.0,0.0,0.0,0.0,0.0,2.1617,2.3174,2.6173,2.8406,2.9792,2.9792,2.9663,2.9443,2.8253,2.7174,2.6265,2.6112,2.5455,2.4435,2.4867,2.398,2.2178,2.2755,2.3196,2.3517,2.3985,2.537,2.7107,2.7386,2.7876,0.0,0.0,0.0,0.0,0.0,0.0,0.0,3.0386,3.1706,3.3425,3.1929,3.1974,3.3006,3.5235,3.4801,3.4367,3.715,3.8105,3.9551,4.4002,4.4912,4.5032,4.5845,4.54,4.5101,4.5957,4.6127,4.5997,4.5434,4.5037,4.4382,4.3117,4.2196,0.0,0.0,0.0,0.0,0.0,0.0,0.0,0.0,0.0,0.0,3.8631,0.0,0.0,3.6926,3.6626,3.6237,3.5729,3.5579,3.5504,0.0,3.5504,3.5504,3.5504,3.5504,3.5504,3.5504,3.5504,3.5504,3.5504,3.5504,3.5504,3.5504,3.5504,3.5504,3.5504,3.5504,3.5504,3.5504,0.0,0.0,0.0,0.0,0.0,0.0,0.0,0.0,0.0,0.0,0.0,0.0,0.0,0.0,0.0,0.0,0.0,0.0,0.0,2.0641,2.2304,2.4556,2.7118,2.8913,2.9779,2.9792,2.9792,2.9792,2.8926,2.8056,2.7238,2.6719,2.588,2.4787,2.4829,2.376,2.1904,2.2119,2.2291,2.2513,2.3005,2.4409,2.6256,2.6494,2.7224,2.8147,2.8436,0.0,0.0,0.0,0.0,0.0,0.0,0.0,3.2709,3.1767,3.175,3.2452,3.4502,3.4996,3.5639,3.8571,4.0527,4.2341,4.4692,4.5912,4.6649,4.6963,4.6749,4.6454,4.6349,4.6699,4.6782,4.6026,4.5277,4.4479,4.3612,4.2541,0.0,0.0,0.0,0.0,0.0,0.0,0.0,0.0,0.0,3.8766,3.8407,3.7808,3.718,3.6507,3.6178,3.5848,3.5504,3.5504,3.5504,3.5504,3.5504,3.5504,3.5504,3.5504,3.5504,3.5504,3.5504,3.5504,3.5504,3.5504,3.5504,3.5504,3.5504,3.5504,3.5504,3.5504,3.5504,3.5504,0.0,0.0,0.0,0.0,0.0,0.0,0.0,0.0,0.0,0.0,0.0,0.0,0.0,0.0,0.0,0.0,0.0,0.0,0.0,2.1164,2.3533,2.6336,2.7927,2.9013,2.949,2.9503,2.9503,2.9503,2.9026,2.8719,2.8651,2.7667,2.6681,2.5636,2.5128,2.3907,2.2144,2.1995,2.1839,2.1835,2.2827,2.4122,2.5464,2.6086,2.6956,2.7833,2.7934,2.7959,2.7984,2.8072,0.0,0.0,0.0,0.0,3.191,3.1442,3.1483,3.1959,3.3305,3.5115,3.7443,4.0648,4.2692,4.4055,4.4497,4.5864,4.7173,4.7619,4.8308,4.8346,4.6822,4.7178,4.7479,4.6718,4.5477,4.4528,4.4257,4.305,0.0,0.0,0.0,0.0,0.0,0.0,0.0,0.0,0.0,3.8287,3.8063,3.706,3.6432,3.6312,3.5789,3.5504,3.5504,3.5504,3.5504,3.5504,3.5504,3.5504,3.5504,3.5504,3.5504,3.5504,3.5504,3.5504,3.5504,3.5504,3.5504,3.5504,3.5504,3.5504,3.5504,3.5504,3.5504,3.5504,0.0,0.0,0.0,0.0,0.0,0.0,0.0,0.0,0.0,0.0,2.119,2.1064,2.0654,2.0225,0.0,0.0,0.0,0.0,1.9297,0.0,0.0,2.585,2.736,2.8247,2.8335,2.8335,2.8335,2.8335,2.826,2.9151,3.0945,3.0335,2.9727,2.908,2.8157,2.6086,2.321,2.2379,2.1525,2.0867,2.1831,2.2853,2.392,2.4848,2.5836,2.6776,2.7218,2.7394,2.7469,2.7946,2.871,0.0,0.0,0.0,3.1224,3.0622,3.1367,3.2677,3.3978,3.5789,3.8,4.0997,4.1093,4.1466,4.531,4.5546,4.5294,4.6654,4.753,4.7787,4.6907,4.6862,4.6701,4.5974,4.5667,4.5056,4.3627,0.0,0.0,0.0,0.0,0.0,0.0,0.0,0.0,0.0,3.8437,3.7913,3.6791,3.6582,3.6222,3.5654,3.5549,3.5504,3.5504,3.5504,3.5504,3.5504,3.5504,3.5504,3.5504,3.5504,3.5504,3.5504,3.5504,3.5504,3.5504,3.5504,3.5504,3.5504,3.5504,3.5504,3.5504,3.5504,3.5504,3.5504,0.0,0.0,0.0,0.0,0.0,0.0,0.0,0.0,0.0,0.0,0.0,2.1064,2.0654,1.9961,0.0,0.0,0.0,0.0,2.0078,2.1792,0.0,0.0,2.6593,2.7469,2.8097,2.7808,2.7795,2.8109,2.7155,2.8637,3.2315,3.1449,3.0737,3.0233,2.9852,2.7696,2.4272,2.3585,2.2875,2.2242,2.2347,2.3159,2.4373,2.4826,2.5616,2.6524,2.6763,2.6851,2.6889,2.714,2.7484,2.7859,2.8017,0.0,0.0,0.0,3.0808,3.1928,3.4382,3.513,3.6232,4.0512,4.0432,4.0334,4.4266,4.4522,4.4358,4.5862,4.6447,4.6583,4.6244,4.6177,4.594,4.5196,4.5077,4.4828,4.4114,0.0,0.0,0.0,0.0,0.0,0.0,0.0,0.0,0.0,3.7734,3.7075,3.6522,3.6133,3.5804,3.5519,3.5504,3.5504,3.5504,3.5504,3.5504,3.5504,3.5504,3.5504,3.5504,3.5504,3.5504,3.5504,3.5504,3.5504,3.5504,3.5504,3.5504,3.5504,3.5504,3.5504,3.5504,3.5504,3.5504,3.5504,0.0,0.0,0.0,0.0,0.0,0.0,0.0,0.0,0.0,0.0,0.0,2.0937,2.0644,0.0,0.0,0.0,0.0,0.0,2.052,0.0,0.0,0.0,0.0,2.66,2.7256,2.7143,2.7205,2.7469,2.6364,2.8097,3.2441,3.1863,3.1534,3.1433,3.1399,2.9469,2.6205,2.5264,2.4589,2.4093,2.3657,2.4105,2.5052,2.53,2.5838,2.6499,2.6499,2.6499,2.6499,2.6499,2.6499,2.6589,2.7196,2.7986,0.0,0.0,0.0,3.1315,3.3814,3.3888,3.4322,3.8781,3.8849,3.8654,4.1979,4.2673,4.3045,4.4513,4.5145,4.5415,4.5415,4.5415,4.5229,4.4699,4.4615,4.4615,4.4615,0.0,0.0,0.0,0.0,0.0,0.0,0.0,0.0,0.0,3.7412,3.6604,3.6271,3.5774,3.5504,3.5504,3.5504,3.5504,3.5504,3.5504,3.5504,3.5504,3.5504,3.5504,3.5504,3.5504,3.5504,3.5504,3.5504,3.5504,3.5504,3.5504,3.5504,3.5504,3.5504,3.5504,3.5504,3.5504,3.5504,3.5504,0.0,0.0,0.0,0.0,0.0,0.0,0.0,0.0,0.0,0.0,0.0,0.0,2.0605,1.9832,1.9111,1.8637,0.0,0.0,0.0,0.0,0.0,0.0,0.0,0.0,2.4963,2.6021,2.6285,2.5724,2.6223,2.7932,3.0771,3.1725,3.2712,3.3696,3.3213,3.1736,2.9505,2.7374,2.6243,2.5865,2.569,2.5397,2.5111,2.606,2.6452,2.6499,2.6499,2.6499,2.6499,2.6499,2.6499,2.6499,2.6555,2.7129,2.7953,0.0,0.0,0.0,3.166,3.2108,3.3095,3.5265,3.5277,3.549,3.84,3.9686,4.0702,4.2169,4.365,4.4666,4.4666,4.4666,4.4649,4.4615,4.4615,4.4615,4.4615,0.0,0.0,0.0,0.0,0.0,0.0,0.0,0.0,0.0,3.7977,3.6947,3.5612,3.5534,3.5504,3.5504,3.5504,3.5504,3.5504,3.5504,3.5504,3.5504,3.5504,3.5504,3.5504,3.5504,3.5504,3.5504,3.5504,3.5504,3.5504,3.5504,3.5504,3.5504,3.5504,3.5504,3.5504,3.5504,3.5504,3.5504,0.0,0.0,0.0,0.0,0.0,0.0,0.0,0.0,0.0,0.0,0.0,0.0,0.0,1.9832,1.9219,1.9072,1.8418,0.0,0.0,0.0,0.0,0.0,0.0,0.0,2.5896,2.5573,2.5649,2.6185,2.4921,2.6302,3.008,2.9729,3.0545,3.2353,3.3947,3.284,2.9791,2.9359,2.8268,2.6881,2.7532,2.7249,2.6545,2.7262,2.7519,2.7469,2.7153,2.7218,2.7457,2.714,2.6788,2.6499,2.6499,2.704,2.7986,2.9411,3.0308,3.1122,3.2437,3.1734,3.1315,3.4143,3.3382,3.2903,3.6667,3.8153,3.9165,4.0581,4.2861,4.431,4.3328,4.3938,4.4615,4.4615,4.4615,4.4615,4.4615,0.0,0.0,0.0,0.0,0.0,0.0,0.0,0.0,0.0,0.0,0.0,3.5522,3.4681,3.4607,3.5474,3.5504,3.5504,3.5504,3.5504,3.5504,3.5504,3.5504,3.5504,3.5504,3.5504,3.5504,3.5504,3.5504,3.5504,3.5504,3.5504,3.5504,3.5504,3.5504,3.5504,3.5504,3.5504,3.5504,3.5504,0.0,0.0,0.0,0.0,0.0,0.0,0.0,0.0,2.1289,2.085,0.0,0.0,0.0,0.0,1.958,1.9795,1.9279,1.9305,2.0221,2.1599,0.0,0.0,0.0,0.0,2.5946,2.5548,2.5636,2.6197,2.4883,2.5774,2.8712,2.8473,2.9164,3.0658,3.285,3.2667,3.0633,3.0997,3.0294,2.8938,2.8925,2.8599,2.8122,2.8109,2.8222,2.836,2.8185,2.8235,2.8323,2.7959,2.7469,2.7014,2.6839,2.7194,2.7986,2.9442,3.0145,3.0746,3.2124,3.121,3.0417,3.2602,3.1831,3.1331,3.436,3.6386,3.7945,3.9172,4.1963,4.395,4.3206,4.3921,4.4615,4.4615,4.4615,4.4615,4.4615,0.0,0.0,0.0,0.0,0.0,0.0,0.0,0.0,0.0,0.0,0.0,3.6262,3.4915,3.4577,3.5474,3.5504,3.5504,3.5504,3.5504,3.5504,3.5504,3.5504,3.5504,3.5504,3.5504,3.5504,3.5504,3.5504,3.5504,3.5504,3.5504,3.5504,3.5504,3.5504,3.5504,3.5504,3.5504,3.5504,3.5504,0.0,0.0,0.0,0.0,0.0,0.0,0.0,0.0,2.1748,2.1268,0.0,0.0,0.0,0.0,0.0,2.0732,2.0811,2.1212,2.2172,2.3535,0.0,0.0,0.0,0.0,2.4863,2.5912,2.6223,2.5624,2.6197,2.6474,2.6524,2.8084,2.8787,2.8838,3.003,3.111,3.2077,3.2139,3.2127,3.1888,2.979,2.9289,2.9603,2.8574,2.8486,2.895,2.9591,2.9453,2.8913,2.8938,2.8549,2.8009,2.7444,2.7477,2.7855,2.8748,2.9628,3.0319,0.0,0.0,0.0,3.0477,3.0521,3.0747,3.1388,3.4198,3.6943,3.7798,4.0727,4.34,4.4277,4.4502,4.4536,4.4564,4.4581,4.4615,4.4615,0.0,0.0,0.0,0.0,0.0,0.0,0.0,0.0,0.0,0.0,3.8545,3.7732,3.629,3.5504,3.5504,3.5504,3.5504,3.5504,3.5504,3.5504,3.5504,3.5504,3.5504,3.5504,3.5504,3.5504,3.5504,3.5504,3.5504,3.5504,3.5504,3.5504,3.5504,3.5504,3.5504,3.5504,3.5504,3.5504,3.5504,0.0,0.0,0.0,0.0,0.0,2.2955,2.2578,2.2412,2.2187,0.0,0.0,0.0,2.1084,2.0371,2.0103,2.0594,2.0757,2.1457,2.303,2.4284,2.5161,2.5648,2.6561,2.6763,2.6059,2.6336,2.6411,2.6248,2.5996,2.6084,2.6499,2.6502,2.6515,2.659,2.8122,2.875,2.875,3.0369,3.0131,2.8775,3.0143,2.9616,2.8122,2.9428,2.9264,2.8511,2.9892,3.003,2.9616,3.0018,2.9239,2.7946,2.7014,2.7156,2.7855,2.8748,2.9628,3.0451,3.1055,0.0,0.0,0.0,0.0,0.0,3.0103,3.2097,3.4074,3.4723,3.7307,3.9671,4.0365,4.1815,4.3113,4.3641,4.4215,4.4615,4.4615,0.0,0.0,0.0,0.0,0.0,0.0,0.0,0.0,0.0,4.0313,3.8691,3.7764,3.629,3.5504,3.5504,3.5504,3.5504,3.5504,3.5504,3.5504,3.5504,3.5504,3.5504,3.5504,3.5504,3.5504,3.5504,3.5504,3.5504,3.5504,3.5504,3.5504,3.5504,3.5504,3.5504,3.5504,3.5504,3.5504,3.5504,0.0,0.0,0.0,2.4997,2.4697,2.4427,2.421,2.4013,2.3794,0.0,0.0,0.0,2.2889,2.2192,2.2101,2.3024,2.2974,2.3627,2.532,2.6251,2.678,2.6829,2.7331,2.7291,2.6512,2.6713,2.6725,2.6499,2.6386,2.6239,2.6122,2.5749,2.5598,2.5636,2.6628,2.7017,2.7077,2.8574,2.9013,2.88,3.0168,3.0168,2.9453,3.0532,3.047,2.998,3.1198,3.1286,3.0846,3.1173,3.0018,2.8298,2.7419,2.7185,2.739,2.8483,2.9245,2.995,3.0777,3.0966,3.0823,3.0492,0.0,0.0,2.9602,3.1186,3.2863,3.354,3.6156,3.8344,3.8511,3.9593,4.0861,4.1927,4.25,4.3222,4.4434,0.0,0.0,0.0,0.0,0.0,0.0,4.5483,4.4699,4.3781,4.172,3.9666,3.7795,3.629,3.5504,3.5504,3.5504,3.5504,3.5504,3.5504,3.5504,3.5504,3.5504,3.5504,3.5504,3.5504,3.5504,3.5504,3.5504,3.5504,3.5504,3.5504,3.5504,3.5504,3.5504,3.5504,3.5504,3.5504,3.5504,3.5504,0.0,0.0,2.697,2.6629,2.6517,2.6524,2.6524,2.6143,2.5891,0.0,2.5515,2.5273,2.5329,2.47,2.4907,2.6444,2.611,2.6432,2.8002,2.8612,2.8449,2.7507,2.7934,2.7708,2.67,2.718,2.7203,2.6587,2.714,2.6791,2.5686,2.5686,2.5649,2.5598,2.5598,2.5921,2.6436,2.6927,2.8285,3.0131,2.9892,3.062,3.1825,3.1574,3.1637,3.1951,3.2704,3.2541,3.1938,3.1938,3.0645,2.8863,2.8235,2.7379,2.6822,2.8038,2.8623,2.9066,3.0042,3.0807,3.1335,3.1287,3.0447,0.0,2.9412,3.0717,3.2221,3.3135,3.5669,3.7639,3.7444,3.7472,3.8,3.9462,3.9836,4.0962,4.3939,0.0,0.0,0.0,0.0,0.0,4.6904,4.6177,4.5703,4.5703,4.3419,4.0813,3.7982,3.6354,3.5504,3.5504,3.5504,3.5504,3.5504,3.5504,3.5504,3.5504,3.5504,3.5504,3.5504,3.5504,3.5504,3.5504,3.5504,3.5504,3.5504,3.5504,3.5504,3.5504,3.5504,3.5504,3.5504,3.5504,3.5504,3.5504,0.0,2.7048,2.7082,2.6981,2.6729,2.6524,2.6524,2.6435,2.6378,2.6378,2.5981,2.5824,2.6199,2.5066,2.4885,2.6392,2.6071,2.6436,2.799,2.8594,2.88,2.8612,2.8675,2.8461,2.7795,2.8323,2.8122,2.7153,2.767,2.7381,2.6323,2.6323,2.6084,2.5598,2.5598,2.5661,2.5774,2.5875,2.644,2.7454,2.9114,2.9704,2.9715,3.1424,3.1022,2.9778,3.17,3.1474,3.0269,3.0269,2.998,2.9365,2.7908,2.7293,2.7253,2.7712,2.7914,2.8298,2.9858,3.0419,3.0426,3.0069,2.9786,0.0,2.8244,2.8289,2.891,3.0154,3.0948,3.1853,3.3439,3.4227,3.494,3.5882,3.6994,3.8892,4.2271,4.3927,0.0,0.0,0.0,0.0,4.7551,4.6498,4.5703,4.5703,4.2436,3.9921,3.8729,3.6642,3.5504,3.5504,3.5504,3.5504,3.5504,3.5504,3.5504,3.5504,3.5504,3.5504,3.5504,3.5504,3.5504,3.5504,3.5504,3.5504,3.5504,3.5504,3.5504,3.5504,3.5504,3.5504,3.5504,3.5504,3.5504,3.5504,2.8338,2.8471,2.8471,2.8471,2.8258,2.8131,2.8131,2.8131,2.8226,2.8529,2.8326,2.8159,2.8131,2.7219,2.6897,2.7616,2.7472,2.7653,2.846,2.9021,2.9189,2.89,2.8888,2.8637,2.8109,2.8612,2.8524,2.7695,2.7971,2.7682,2.6889,2.6323,2.6176,2.6414,2.585,2.5912,2.6427,2.6172,2.6386,2.7077,2.9001,2.9616,2.9566,3.1486,3.1524,3.067,3.1499,3.1273,3.047,2.9641,2.9553,2.9553,2.8134,2.7318,2.6921,2.705,2.7189,2.7548,2.8698,2.9628,3.0158,2.9578,2.9529,0.0,0.0,2.8364,2.8798,2.9472,3.0103,3.0676,3.1085,3.1454,3.2075,3.324,3.4006,3.5294,3.7701,4.1188,0.0,0.0,0.0,0.0,4.6996,4.6124,4.5449,4.5167,4.2328,4.0264,3.9477,3.7282,3.5894,3.5504,3.5504,3.5504,3.5504,3.5504,3.5504,3.5504,3.5504,3.5504,3.5504,3.5504,3.5504,3.5504,3.5504,3.5504,3.5504,3.5504,3.5504,3.5504,3.5504,3.5504,3.5504,3.5504,3.5504,3.5504,2.9624,2.9792,2.9792,2.9792,2.9792,2.9792,2.9792,2.9792,2.9955,3.0407,3.0457,3.0407,3.0281,2.9465,2.9101,2.964,2.9402,2.9164,2.9063,2.9628,2.9654,2.8913,2.8787,2.8662,2.8436,2.8725,2.8675,2.826,2.816,2.7821,2.7291,2.6239,2.6251,2.7115,2.6176,2.6327,2.7291,2.6839,2.6964,2.7595,2.9277,2.9817,2.9804,3.1436,3.1926,3.1687,3.1248,3.1085,3.0846,2.9289,2.9089,2.9289,2.8273,2.7193,2.6348,2.6461,2.6499,2.662,2.7242,2.8406,2.9407,2.9029,2.9066,2.9071,0.0,0.0,0.0,2.9217,3.0028,3.0447,2.9412,0.0,0.0,0.0,0.0,0.0,0.0,3.753,0.0,0.0,0.0,0.0,0.0,4.4853,4.4536,4.4349,4.2232,4.0678,4.0035,3.784,3.6255,3.5537,3.5504,3.5504,3.5504,3.5504,3.5504,3.5504,3.5504,3.5504,3.5504,3.5504,3.5504,3.5504,3.5504,3.5504,3.5504,3.5504,3.5504,3.5504,3.5504,3.5504,3.5504,3.5504,3.5504,3.5504,2.9753,2.9792,2.9792,2.9792,2.9792,2.9792,2.9792,2.9792,2.9817,2.988,2.988,3.0407,3.1788,3.0131,2.9917,3.239,3.1273,3.0218,2.9729,3.0218,3.0043,2.8938,2.8461,2.8637,2.9578,2.9126,2.8863,2.88,2.8348,2.7821,2.7304,2.6688,2.6461,2.6587,2.6449,2.6738,2.7281,2.7218,2.7507,2.816,2.9842,2.9917,2.9164,3.0859,3.0896,3.0055,2.9993,2.998,2.9792,0.0,2.8247,2.8197,2.757,2.6603,2.5799,2.6348,2.5824,2.523,2.608,2.6423,2.6752,2.7527,2.7715,2.7729,2.7727,0.0,2.7824,2.7824,0.0,0.0,0.0,0.0,0.0,0.0,0.0,0.0,3.1727,3.3113,3.4904,0.0,0.0,0.0,0.0,4.1807,4.2233,4.3343,4.1344,4.0021,4.0005,3.7772,3.6187,3.5519,3.5504,3.5504,3.5504,3.5504,3.5504,3.5504,3.5504,3.5504,3.5504,3.5504,3.5504,3.5504,3.5504,3.5504,3.5504,3.5504,3.5504,3.5504,3.5504,3.5504,3.5504,3.5504,3.5504,3.5504,2.9792,2.9792,2.9792,2.9792,2.9792,2.9792,2.9792,3.0319,3.062,3.0306,3.0532,3.1235,3.2566,3.1587,3.1574,3.3395,3.3219,3.2629,3.175,3.1599,3.1185,3.0394,2.9214,2.88,2.9289,2.9013,2.8737,2.8448,2.8222,2.7821,2.7268,2.6751,2.6663,2.6952,2.6637,2.7153,2.8197,2.7557,2.7783,2.8612,2.9001,2.8875,2.8662,3.0633,3.0721,2.9704,2.9051,2.9239,2.9528,0.0,2.8009,0.0,0.0,0.0,0.0,2.6801,2.5711,2.4639,2.5979,0.0,0.0,0.0,0.0,0.0,2.8717,0.0,2.76,0.0,0.0,0.0,0.0,0.0,0.0,0.0,2.7839,0.0,0.0,0.0,3.1398,0.0,0.0,0.0,0.0,0.0,0.0,0.0,0.0,3.8934,3.8191,3.7497,3.6641,3.5519,3.5504,3.5504,3.5504,3.5504,3.5504,3.5504,3.5504,3.5504,3.5504,3.5504,3.5504,3.5504,3.5504,3.5504,3.5504,3.5504,3.5504,3.5504,3.5504,3.5504,3.5504,3.5504,3.5504,3.5504,2.9792,2.9792,2.9792,2.9792,2.9792,2.9792,2.9792,3.0696,3.1311,3.1085,3.1386,3.2164,3.3596,3.2692,3.2679,3.4424,3.4663,3.4324,3.337,3.2767,3.2202,3.1637,2.9741,2.8875,2.9352,2.9051,2.87,2.8335,2.8185,2.7821,2.7268,2.6751,2.6549,2.6603,2.6537,2.7165,2.8235,2.7883,2.8373,2.9352,2.9277,2.9139,2.9126,3.0281,3.0331,2.9679,2.8863,2.9101,2.9503,2.7605,2.802,0.0,2.7454,0.0,2.6637,0.0,0.0,0.0,2.6172,0.0,0.0,0.0,0.0,0.0,0.0,0.0,0.0,0.0,0.0,0.0,0.0,0.0,2.76,2.76,0.0,2.766,0.0,2.7884,0.0,0.0,0.0,0.0,0.0,0.0,0.0,0.0,0.0,0.0,3.6844,3.7125,3.6755,3.5519,3.5504,3.5504,3.5504,3.5504,3.5504,3.5504,3.5504,3.5504,3.5504,3.5504,3.5504,3.5504,3.5504,3.5504,3.5504,3.5504,3.5504,3.5504,3.5504,3.5504,3.5504,3.5504,3.5504,3.5504,2.9792,2.9792,2.9792,2.9792,2.9792,2.9792,2.9792,3.0696,3.1574,3.2089,3.2177,3.3018,3.5182,3.3043,3.2729,3.604,3.5328,3.4487,3.3909,3.3357,3.2792,3.2215,2.9578,2.89,3.052,2.9452,2.8888,2.8863,2.836,2.7821,2.7268,2.6751,2.5933,2.4913,2.6034,2.6524,2.6675,2.821,2.949,3.0645,3.1675,3.1763,3.1122,0.0,2.934,2.9792,2.9754,0.0,0.0,2.8448,2.8097,0.0,0.0,0.0,0.0,0.0,0.0,0.0,0.0,0.0,0.0,2.6707,0.0,0.0,0.0,0.0,2.7364,0.0,0.0,0.0,0.0,2.76,2.76,2.76,2.76,0.0,0.0,0.0,0.0,0.0,0.0,0.0,0.0,0.0,0.0,0.0,0.0,0.0,3.6783,3.6628,3.6211,3.5534,3.5504,3.5504,3.5504,3.5504,3.5504,3.5504,3.5504,3.5504,3.5504,3.5504,3.5504,3.5504,3.5504,3.5504,3.5504,3.5504,3.5504,3.5504,3.5504,3.5504,3.5504,3.5504,3.5504,3.5504,2.993,2.9792,2.9792,2.9792,2.9792,2.9792,2.9792,3.0407,3.1336,3.2616,3.278,3.3909,3.6847,3.6006,3.5818,3.7324,3.7801,3.7462,3.6157,3.56,3.5211,3.5009,3.2303,3.0758,3.062,2.988,2.8775,2.7329,2.7846,2.7632,2.6763,2.6587,2.6298,2.59,2.5921,2.6502,2.7607,2.8536,2.954,3.062,3.062,3.0495,3.0269,0.0,0.0,2.9792,2.9792,2.9792,0.0,2.8486,2.8599,2.9089,2.8348,2.7846,2.777,2.89,2.7908,0.0,0.0,0.0,2.7731,2.8394,0.0,0.0,0.0,0.0,0.0,0.0,0.0,0.0,0.0,2.76,2.76,2.76,2.76,2.7839,0.0,0.0,0.0,0.0,0.0,0.0,0.0,0.0,0.0,0.0,3.342,0.0,0.0,3.4239,3.4861,3.4203,3.504,3.5504,3.5504,3.5504,3.5504,3.5504,3.5504,3.5265,3.4846,3.5295,3.525,3.4846,3.531,3.5504,3.5504,3.5504,3.5504,3.5504,3.5504,3.5504,3.5504,3.5504,3.5504,3.5504,3.0043,2.9792,2.9792,2.9792,2.9792,2.9917,3.0306,3.0821,3.1913,3.4016,3.4073,3.4989,3.7713,3.7337,3.7199,3.7939,3.8316,3.8216,3.7525,3.6232,3.5877,3.6669,3.3796,3.2177,3.2077,3.0947,2.9654,2.8246,2.8147,2.7745,2.7065,2.6474,2.6084,2.5896,2.5686,2.6358,2.7774,2.9166,3.0353,3.1279,3.083,3.074,0.0,0.0,2.991,2.9792,0.0,2.9792,2.9679,2.895,2.9189,2.9666,2.8938,2.8699,2.885,2.9578,2.8775,2.7904,2.8902,2.8971,0.0,2.962,2.8935,0.0,2.8683,0.0,0.0,0.0,0.0,0.0,0.0,0.0,2.8154,2.7675,2.7809,2.8248,0.0,2.9983,0.0,0.0,0.0,3.0293,0.0,0.0,3.0791,3.1345,3.1633,0.0,0.0,0.0,3.4196,3.4237,3.5307,3.5894,3.5894,3.5894,3.575,3.5504,3.575,3.5546,3.4863,3.5334,3.5304,3.4879,3.5063,3.528,3.5504,3.5504,3.5504,3.5504,3.5504,3.5504,3.5504,3.5504,3.5504,3.5504,3.0105,2.9817,2.9829,2.9792,2.9829,3.0218,3.1273,3.1926,3.3257,3.5977,3.5893,3.6185,3.7826,3.7123,3.6958,3.7852,3.7023,3.6908,3.7864,3.5504,3.5039,3.7211,3.4223,3.3206,3.4726,3.2654,3.1486,3.1348,2.9227,2.8172,2.8109,2.6427,2.5385,2.4926,2.5398,2.6094,2.7135,3.0073,3.1856,3.2674,3.234,3.2483,3.2684,3.1135,3.0331,2.9972,2.9946,2.9934,2.9934,2.9934,2.9895,2.9869,2.9934,2.9895,2.9869,2.9934,2.9895,3.0075,3.1007,3.0595,2.9986,3.0401,0.0,0.0,0.0,0.0,2.8752,0.0,0.0,0.0,0.0,0.0,0.0,2.7944,2.8289,2.9116,3.0298,0.0,3.0313,0.0,0.0,3.0938,2.9589,3.1202,3.1539,2.9605,3.1259,3.2067,0.0,0.0,3.4085,3.5561,3.6148,3.6506,3.6615,3.6538,3.6182,3.5554,3.629,3.6228,3.5564,3.5653,3.5623,3.5474,3.4863,3.4955,3.5504,3.5504,3.5504,3.5504,3.5537,3.5554,3.5554,3.5554,3.5537,3.5504,3.003,3.0118,3.0281,2.9867,3.0444,3.121,3.1901,3.2842,3.3872,3.4989,3.6094,3.7086,3.7914,3.8504,3.8291,3.6935,3.7287,3.7362,3.6822,3.6508,3.7149,3.8969,3.7425,3.6157,3.5378,3.4374,3.2867,3.0821,2.9842,2.9139,2.865,2.7017,2.6424,2.6628,2.5912,2.6312,2.767,3.0196,3.2304,3.3794,3.2855,3.28,3.3203,0.0,3.2809,3.257,3.2063,3.1865,3.1865,3.1865,3.1402,3.097,3.1646,3.1402,3.0983,3.1696,3.1402,3.1044,3.1997,3.1536,3.1042,3.1821,3.1256,3.0439,0.0,0.0,0.0,0.0,0.0,0.0,0.0,0.0,0.0,2.9729,2.9894,2.9968,2.9834,3.0657,0.0,3.0342,0.0,0.0,2.8879,2.9725,2.9904,2.8835,2.973,0.0,0.0,0.0,0.0,3.5673,3.4725,3.4939,3.6584,3.5518,3.5414,3.6337,3.6492,3.6544,3.6495,3.7007,3.6639,3.5594,3.5937,3.5839,3.5504,3.5504,3.5504,3.5554,3.6117,3.6306,3.6306,3.6306,3.5975,3.5651,3.0407,3.0966,3.1536,3.1267,3.2945,3.4053,3.3101,3.3495,3.4437,3.5968,3.6759,3.7487,3.8291,3.917,3.9195,3.7952,3.75,3.7337,3.7498,3.6609,3.7073,3.9245,3.8253,3.7111,3.5943,3.5378,3.3972,3.1687,3.0658,2.9867,2.9264,2.7392,2.6663,2.6927,2.5988,2.6769,2.8917,3.2194,3.4119,3.4947,3.4389,3.446,0.0,3.4539,3.4761,3.5188,3.4536,3.3585,3.2593,3.2593,3.2249,3.1888,3.2429,3.2249,3.1924,3.2464,3.2249,3.2033,3.2961,3.2522,3.2033,3.2996,3.2444,3.1688,3.1688,3.1195,3.0974,0.0,0.0,0.0,0.0,0.0,0.0,2.9759,2.9924,3.0073,2.9998,3.1135,3.157,0.0,3.1031,0.0,0.0,2.9611,2.9626,2.8625,0.0,0.0,0.0,0.0,0.0,3.4693,3.4785,3.5091,3.5685,3.4852,3.5003,3.6176,3.6492,3.6854,3.7232,3.7329,3.6738,3.5637,3.5687,3.5653,3.5565,3.5891,3.6215,3.6538,3.695,3.7114,3.7174,3.7483,3.6919,3.6149,3.1398,3.2332,3.3355,3.346,3.6007,3.7328,3.5138,3.4958,3.5876,3.8097,3.8174,3.8326,3.918,3.9842,4.0058,3.9765,3.7969,3.7463,3.8943,3.6767,3.6599,3.9383,3.8409,3.7584,3.7079,3.6421,3.5319,3.373,3.2062,3.0954,3.0356,2.8048,2.6952,2.6892,2.6306,2.7716,3.0779,3.4545,3.6109,3.61,3.6293,3.6562,3.6816,3.6025,3.6472,3.7449,3.6836,3.5112,3.3108,3.3024,3.289,3.282,3.2925,3.289,3.282,3.2925,3.289,3.2996,3.3959,3.3484,3.3031,3.3959,3.3567,3.2996,3.2996,3.2996,3.3206,3.4027,3.4211,3.4112,0.0,0.0,0.0,2.916,0.0,0.0,3.0417,3.1584,3.1958,3.0776,0.0,0.0,0.0,0.0,0.0,0.0,0.0,0.0,0.0,0.0,0.0,3.354,3.5245,0.0,3.4791,0.0,3.5033,3.6053,3.6486,3.7145,3.7942,3.7333,3.6626,3.5797,3.5145,3.5153,3.5675,3.6391,3.7194,3.7921,3.7835,3.7863,3.8035,3.8663,3.8044,3.7008,3.3984,3.447,3.5201,3.5839,3.6695,3.7869,3.9481,4.054,4.0973,4.0527,4.1595,4.2106,4.1349,4.2215,4.2056,4.004,3.9485,3.938,3.9695,3.9236,4.0126,4.2569,4.1493,4.0834,4.0767,3.9654,3.841,3.7164,3.5422,3.4224,3.3543,3.0705,2.9323,2.9197,2.8665,3.0294,3.3494,3.3868,0.0,3.7149,3.7198,3.7223,3.7416,3.8293,3.846,3.8138,3.7479,3.6618,3.5743,3.5178,3.4442,3.3891,3.4739,3.4442,3.3925,3.4739,3.4394,3.3959,3.4953,3.4509,3.3993,3.4986,3.51,3.5001,3.5001,3.5001,3.5034,3.5213,3.5246,3.5204,3.5158,0.0,0.0,0.0,0.0,0.0,0.0,3.1167,3.1585,3.1346,0.0,3.1943,0.0,0.0,0.0,0.0,0.0,0.0,0.0,0.0,0.0,0.0,0.0,0.0,0.0,0.0,3.5801,3.8297,3.7222,3.7418,3.8781,3.8688,3.7861,3.6518,3.6387,3.6049,3.5673,3.6414,3.7487,3.8635,3.8035,3.8177,3.8718,3.8854,3.8745,3.8619,3.7123,3.6953,3.6674,3.6798,3.8742,4.044,4.09,4.3299,4.4328,4.2151,4.2574,4.286,4.2343,4.2998,4.3018,4.1863,4.1239,4.1144,4.1734,4.1226,4.1513,4.2899,4.2719,4.1888,4.0313,4.0622,3.9584,3.715,3.5974,3.4706,3.3408,3.1019,2.9702,2.9426,3.0642,3.1921,3.3285,0.0,0.0,3.7464,3.8167,3.8452,3.8527,3.9134,3.9215,3.8841,3.8153,3.7509,3.6821,3.5833,3.518,3.4872,3.5359,3.5166,3.4872,3.5359,3.5166,3.4872,3.5359,3.5133,3.4872,3.5392,3.5504,3.5504,3.5504,3.5504,3.5504,3.5504,3.5504,3.5295,3.4592,3.3679,0.0,0.0,0.0,0.0,0.0,0.0,3.1107,3.1466,3.2079,3.2258,0.0,0.0,0.0,0.0,0.0,0.0,0.0,0.0,0.0,0.0,0.0,0.0,0.0,0.0,0.0,3.8371,3.7269,3.7524,3.8954,3.8217,3.7449,3.6759,3.6737,3.6563,3.6306,3.7426,3.8536,3.9489,3.9129,3.9226,3.9516,3.9516,3.9516,3.9584,4.0271,3.9678,3.8923,3.878,4.1296,4.305,4.2348,4.4889,4.6093,4.3947,4.3677,4.3677,4.3677,4.4068,4.4097,4.3552,4.2914,4.2691,4.3027,4.2761,4.2698,4.3087,4.3505,4.2625,4.0393,4.1311,4.0488,0.0,3.6803,0.0,0.0,0.0,0.0,0.0,0.0,0.0,0.0,0.0,3.8048,3.7928,3.8955,3.9388,3.9388,3.9388,3.9388,3.9334,3.8631,3.8063,3.7419,3.6148,3.5624,3.5504,3.5504,3.5504,3.5504,3.5504,3.5504,3.5504,3.5504,3.5504,3.5504,3.5504,3.5504,3.5504,3.5504,3.5504,3.5504,3.5504,3.5504,3.519,3.4113,3.3679,0.0,0.0,0.0,0.0,0.0,0.0,3.0612,3.1406,3.1959,3.2333,3.2497,0.0,0.0,0.0,0.0,0.0,2.9766,3.129,0.0,0.0,0.0,3.515,3.56,0.0,3.6512,0.0,3.7449,3.7726,3.8954,3.7811,3.7194,3.7037,3.6872,3.6884,3.7136,3.8453,3.9411,4.0096,4.0096,4.0096,4.0096,4.0096,4.0096,4.0096,4.2748,4.2872,4.3155,4.4314,4.3832,4.4082,4.6343,4.6025,4.5804,4.6737,4.6886,4.6886,4.6886,4.693,4.6005,4.3616,4.4418,4.4102,4.1738,4.3771,4.5052,4.5033,4.456,4.4443,4.4715,4.3138,4.2154,0.0,0.0,3.8903,0.0,0.0,0.0,0.0,0.0,0.0,0.0,3.734,3.8167,3.9209,3.9328,3.9388,3.9388,3.9388,3.9388,3.9334,3.8631,3.8347,3.8108,3.6836,3.5998,3.5504,3.5504,3.5504,3.5504,3.5504,3.5504,3.5504,3.5504,3.5504,3.5504,3.5504,3.5504,3.5504,3.5504,3.5504,3.5504,3.5504,3.5504,3.5474,3.534,3.4322,3.3066,0.0,0.0,0.0,0.0,0.0,3.0133,3.1361,3.1555,3.1824,0.0,0.0,0.0,0.0,0.0,0.0,3.0579,3.0656,0.0,3.2457,0.0,3.3695,3.5583,3.56,0.0,3.9893,3.8464,3.8227,3.8988,3.8853,3.8439,3.7759,3.7094,3.7172,3.7843,3.8659,3.9411,4.0096,4.0096,4.0096,4.0096,4.0096,4.0096,4.0096,4.4415,4.3828,0.0,0.0,0.0,0.0,0.0,4.6322,4.6696,4.7234,4.7309,4.7309,4.7309,4.7309,4.6897,4.5842,4.6241,4.6093,4.5004,4.5961,4.637,4.5906,4.6044,4.5896,4.5319,4.4534,4.3764,0.0,0.0,3.8003,3.6821,0.0,0.0,0.0,0.0,3.7494,3.8661,3.9454,3.9873,4.0008,4.0008,3.9768,3.9388,3.9388,3.9388,3.9343,3.911,3.8736,3.8302,3.7793,3.6941,3.6028,3.5624,3.5504,3.5504,3.5504,3.5504,3.5504,3.5504,3.5504,3.5504,3.5504,3.5504,3.5504,3.5504,3.5504,3.5504,3.5504,3.5504,3.5504,3.5504,3.507,3.4262,0.0,0.0,0.0,0.0,0.0,0.0,3.2557,3.2333,3.269,0.0,0.0,0.0,0.0,0.0,0.0,0.0,0.0,0.0,3.449,0.0,3.5631,3.8278,3.7432,3.8024,4.0096,3.9039,3.87,3.8971,3.8531,3.8413,3.8531,3.8244,3.8556,3.9191,3.9056,3.9411,4.0096,4.0096,4.0096,4.0096,4.0096,4.0096,4.0096,4.5888,0.0,4.4456,0.0,4.5274,4.5753,4.5349,4.6441,4.716,4.6756,4.7055,4.7309,4.7309,4.7309,4.7145,4.6756,4.707,4.698,4.6202,4.6875,4.692,4.6052,4.6666,0.0,4.5618,4.5394,4.4751,4.3589,4.0584,0.0,0.0,0.0,0.0,0.0,3.8781,3.9544,4.0053,4.0995,4.0995,4.0397,4.0397,4.0008,3.9388,3.9388,3.9388,3.9388,3.9388,3.911,3.8661,3.8467,3.7793,3.6896,3.6058,3.5669,3.5504,3.5504,3.5504,3.5504,3.5504,3.5504,3.5504,3.5504,3.5504,3.5504,3.5504,3.5504,3.5504,3.5504,3.5504,3.5504,3.5504,3.5504,3.507,3.3724,0.0,0.0,0.0,3.1511,0.0,3.2811,3.2332,3.2731,3.485,3.2924,0.0,0.0,0.0,0.0,0.0,0.0,0.0,0.0,0.0,0.0,0.0,3.7736,3.8193,4.0096,3.9571,3.9309,3.9292,3.8768,3.87,3.9005,3.9225,3.9503,3.9757,3.9453,3.9639,4.0096,4.0096,4.0096,4.0096,4.0096,4.0096,4.0096,4.7279,4.7264,4.7249,4.7249,4.7264,4.683,4.5499,4.6441,4.683,4.5499,4.6486,4.7309,4.7309,4.7309,4.677,4.5439,4.6546,4.6202,4.3614,4.5873,4.6711,0.0,0.0,4.6279,4.6264,4.5648,4.4975,4.4302,0.0,0.0,4.0337,0.0,3.9709,4.0382,4.1055,4.1392,4.1392,4.1407,4.0995,4.0397,4.0397,4.0008,3.9388,3.9388,3.9388,3.9388,3.9388,3.9373,3.9305,3.8616,3.8377,3.8153,3.6881,3.6028,3.5504,3.5504,3.5504,3.5504,3.5504,3.5504,3.5504,3.5504,3.5504,3.5504,3.5504,3.5504,3.5504,3.5504,3.5504,3.5504,3.5504,3.5504,3.507,3.3724,0.0,0.0,0.0,0.0,0.0,3.1525,3.0913,3.1369,3.3525,0.0,0.0,0.0,0.0,0.0,0.0,0.0,0.0,3.3402,3.2019,0.0,3.5616,3.5633,3.7127,4.0096,4.0096,4.0096,4.0096,4.0079,3.969,3.9039,3.9774,3.969,3.9056,3.9791,4.0096,4.0096,4.0096,4.0096,4.0096,4.0096,4.0096,4.0096,4.4766,4.6052,4.701,4.6097,4.6696,4.716,4.6726,4.704,4.716,4.6726,4.704,4.7309,4.7309,4.7309,4.713,0.0,4.6217,4.5963,0.0,4.5978,4.6157,4.6636,4.5992,4.5618,4.5618,4.496,4.4302,4.3604,0.0,0.0,0.0,3.9514,4.0247,4.1782,4.1991,4.2297,4.2716,4.2716,4.2327,4.1767,4.1767,4.107,4.0083,4.0083,3.9813,3.9388,3.9388,3.9388,3.9394,3.917,3.8781,3.8317,3.7913,3.733,3.6806,3.6806,3.6507,3.6178,3.6178,3.5848,3.5504,3.5504,3.5504,3.5504,3.5504,3.5504,3.5504,3.5504,3.5504,3.5504,3.5504,3.5504,3.507,3.3724,3.4262,0.0,0.0,0.0,3.2871,3.2871,3.2752,3.3324,0.0,3.4754,0.0,0.0,0.0,0.0,0.0,0.0,0.0,0.0,3.6282,0.0,3.8633,3.7669,3.8159,4.0096,4.0096,4.0096,4.0096,4.0096,3.9977,3.9774,3.9994,3.9977,3.9774,4.0011,4.0096,4.0096,4.0096,4.0096,4.0096,4.0096,4.0096,4.0096,4.499,4.6157,4.704,4.6202,4.6741,4.713,4.6636,4.698,4.713,4.6621,4.6995,4.7309,4.7309,4.7309,0.0,4.7309,4.6531,4.6411,4.7249,4.6516,4.6426,4.7264,4.6501,4.6052,4.6052,0.0,0.0,4.4062,4.2761,4.1698,4.0853,4.0853,4.1549,4.2731,4.2731,4.2955,4.329,4.329,4.2955,4.2396,4.2396,4.1767,4.0741,4.0502,4.0142,3.9753,3.9514,3.9388,3.9388,3.9388,3.9125,3.8781,3.8781,3.8497,3.8063,3.7554,3.6971,3.6492,3.6492,3.6013,3.5504,3.5504,3.5504,3.5504,3.5504,3.5504,3.5504,3.5504,3.5504,3.5504,3.5504,3.5504,3.5235,3.4382,3.4951,3.522,3.4367,0.0,0.0,0.0,0.0,0.0,0.0,3.6241,0.0,0.0,0.0,0.0,0.0,0.0,0.0,3.7662,3.728,0.0,3.9242,3.8362,3.8633,4.0096,4.0096,4.0096,4.0096,4.0096,4.0096,4.0096,4.0096,4.0096,4.0096,4.0096,4.0096,4.0096,4.0096,4.0096,4.0096,4.0096,4.0096,4.0096,4.7055,4.7174,0.0,0.0,4.7249,0.0,4.5618,4.6501,4.686,4.5603,4.6531,4.7309,4.7309,4.7309,4.7309,4.7309,0.0,0.0,0.0,4.7219,4.7204,4.7309,4.7219,4.716,4.716,4.716,4.6546,4.5289,4.4018,4.3349,4.329,4.329,4.329,4.329,4.329,4.329,4.329,4.329,4.2985,4.247,4.247,4.2066,4.1422,4.0771,4.0472,4.0322,3.9709,3.9454,3.9388,3.9388,3.9388,3.9388,3.9388,3.9388,3.9134,3.7913,3.7105,3.6611,3.6567,3.6073,3.5564,3.5519,3.5504,3.5504,3.5504,3.5504,3.5504,3.5504,3.5504,3.5504,3.5504,3.5504,3.5504,3.5504,3.5504,3.5474,3.5434,0.0,0.0,0.0,0.0,0.0,0.0,3.7136,3.7411,0.0,0.0,0.0,0.0,0.0,3.5098,3.5887,3.5904,3.6597,3.8041,3.8058,3.8734,4.0096,4.0096,4.0096,4.0096,4.0096,4.0096,4.0096,4.0096,4.0096,4.0096,4.0096,4.0096,4.0096,4.0096,4.0096,4.0096,4.0096,4.0096,4.0096,0.0,0.0,4.698,4.5948,4.6621,4.7189,4.6875,4.71,4.7189,4.6875,4.71,4.7309,4.7309,4.7309,4.7309,4.7309,4.6367,4.6202,4.7234,4.6337,4.6232,4.7264,4.6322,4.5768,4.5768,4.5768,4.5618,4.5289,4.4481,4.3783,4.329,4.329,4.329,4.329,4.329,4.329,4.329,4.329,4.32,4.3105,4.3105,4.2716,4.2156,4.1991,4.1265,4.0382,4.0232,3.9843,3.9388,3.9388,3.9388,3.9388,3.9388,3.9388,3.9328,3.9,3.8467,3.7823,3.733,3.6731,3.6133,3.5624,3.5504,3.5504,3.5504,3.5504,3.5504,3.5504,3.5504,3.5504,3.5504,3.5504,3.5504,3.5504,3.5504,3.5322,3.4729,3.4001,0.0,0.0,3.4574,3.5577,3.6877,3.8439,3.8949,0.0,0.0,0.0,0.0,3.7398,3.7686,3.8988,3.9022,3.9191,3.9588,3.9588,3.9757,4.0096,4.0096,4.0096,4.0096,4.0096,4.0096,4.0096,4.0096,4.0096,4.0096,4.0096,4.0096,4.0096,4.0096,4.0096,4.0096,4.0096,4.0096,4.0096,4.5319,4.6337,4.707,4.6337,4.6815,4.7309,4.7309,4.7309,4.7309,4.7309,4.7309,4.7309,4.7309,4.7309,4.7309,4.7309,4.6636,4.6516,4.7249,4.6621,4.6546,4.7279,4.6606,4.6217,4.6217,4.6217,4.5903,4.5289,4.4631,4.3947,4.329,4.329,4.329,4.329,4.329,4.329,4.329,4.329,4.329,4.329,4.329,4.312,4.2776,4.2515,4.1961,4.125,4.095,4.0427,3.9873,3.9873,3.9664,3.9388,3.9388,3.9388,3.9388,3.9388,3.8931,3.8317,3.7958,3.718,3.6327,3.5669,3.5504,3.5504,3.5504,3.5504,3.5504,3.5504,3.5504,3.5504,3.5504,3.5504,3.5504,3.5504,3.522,3.4866,3.4475,3.3915,0.0,3.4898,3.5812,3.6884,3.8279,3.943,3.9774,3.8954,0.0,0.0,3.887,3.8278,3.8582,4.0045,4.0096,4.0096,4.0096,4.0096,4.0096,4.0096,4.0096,4.0096,4.0096,4.0096,4.0096,4.0096,4.0096,4.0096,4.0096,4.0096,4.0096,4.0096,4.0096,4.0096,4.0096,4.0096,4.0096,4.0096,4.7309,4.7309,4.7309,4.7309,4.7309,4.7309,4.7309,4.7309,4.7309,4.7309,4.7309,4.7309,4.7309,4.7309,4.7309,4.7309,4.7309,4.7309,4.7309,4.7309,4.7309,4.7309,4.7309,4.7309,4.7309,4.7309,4.6636,4.5289,4.4736,4.4077,4.329,4.329,4.329,4.329,4.329,4.329,4.329,4.329,4.329,4.329,4.329,4.329,4.323,4.2716,4.2485,4.2336,4.1767,4.1115,4.0546,4.0546,4.0172,3.9709,3.9709,3.9649,3.9574,3.9574,3.908,3.8527,3.8422,3.7464,3.6357,3.5789,3.5579,3.5504,3.5504,3.5504,3.5504,3.5504,3.5587,3.5651,3.5537,3.5683,3.5721,3.5381,3.4912,3.4537,3.4449,0.0,3.4636,3.6644,3.7118,3.8019,3.9927,4.0096,4.0096,4.0096,3.8937,3.8768,0.0,3.8903,3.8802,4.0062,4.0096,4.0096,4.0096,4.0096,4.0096,4.0096,4.0096,4.0096,4.0096,4.0096,4.0096,4.0096,4.0096,4.0096,4.0096,4.0096,4.0096,4.0096,4.0096,4.0096,4.0096,4.0096,4.0096,4.0096,4.7309,4.7309,4.7309,4.7309,4.7309,4.7309,4.7309,4.7309,4.7309,4.7309,4.7309,4.7309,4.7309,4.7309,4.7309,4.7309,4.7309,4.7309,4.7309,4.7309,4.7309,4.7309,4.7309,4.7309,4.7309,4.7309,4.6636,4.5289,4.52,4.4526,4.329,4.329,4.329,4.329,4.329,4.329,4.329,4.329,4.329,4.329,4.329,4.329,4.329,4.3185,4.2836,4.2396,4.2291,4.1826,4.1235,4.1235,4.116,4.107,4.107,4.0696,4.0247,4.0247,3.9783,3.9125,3.8542,3.7464,3.6462,3.6357,3.5923,3.5504,3.5504,3.5504,3.5504,3.5504,3.6006,3.6259,3.5619,3.6569,3.6812,3.4876,3.5042,3.5186,3.4565,0.0,3.5871,3.7524,3.8251,3.9013,3.9986,4.0096,4.0096,4.0096,3.9893,3.9859,4.0096,3.9893,3.9859,4.0096,4.0096,4.0096,4.0096,4.0096,4.0096,4.0096,4.0096,4.0096,4.0096,4.0096,4.0096,4.0096,4.0096,4.0096,4.0096,4.0096,4.0096,4.0096,4.0096,4.0096,4.0096,4.0096,4.0096,4.0096,4.7309,4.7309,4.7309,4.7309,4.7309,4.7309,4.7309,4.7309,4.7309,4.7309,4.7309,4.7309,4.7309,4.7309,4.7309,4.7309,4.7309,4.7309,4.7309,4.7309,4.7309,4.7309,4.7309,4.7309,4.7309,4.7309,4.683,4.5843,4.5484,4.4811,4.3813,4.3469,4.329,4.329,4.329,4.329,4.329,4.329,4.329,4.329,4.329,4.329,4.329,4.329,4.315,4.288,4.288,4.2462,4.1946,4.1946,4.1707,4.1422,4.1422,4.0935,4.0397,4.0397,3.9933,3.9275,3.8571,3.7958,3.7345,3.6656,3.6252,3.5938,3.5594,3.5504,3.5619,3.6006,3.6353,3.6754,3.7235,3.7921,3.8054,3.6993,3.6806,0.0,0.0,3.6346,3.7111,3.7834,3.8866,3.9688,4.007,4.0096,4.0096,4.0096,4.0096,4.0096,4.0096,4.0096,4.0096,4.0096,4.0096,4.0096,4.0096,4.0096,4.0096,4.0096,4.0096,4.0096,4.0096,4.0096,4.0096,4.0096,4.0096,4.0096,4.0096,4.0096,4.0096,4.0096,4.0096,4.0096,4.0096,4.0096,4.0096,4.0096,4.7309,4.7309,4.7309,4.7309,4.7309,4.7309,4.7309,4.7309,4.7309,4.7309,4.7309,4.7309,4.7309,4.7309,4.7309,4.7309,4.7309,4.7309,4.7309,4.7309,4.7309,4.7309,4.7309,4.7309,4.7309,4.7309,4.698,4.6279,4.5633,4.496,4.4302,4.3604,4.329,4.329,4.329,4.329,4.329,4.329,4.329,4.329,4.329,4.329,4.329,4.329,4.329,4.329,4.329,4.3015,4.262,4.262,4.2252,4.1833,4.1833,4.128,4.0621,4.0621,4.0053,3.9305,3.8781,3.8512,3.8123,3.6985,3.6733,3.6564,3.5901,3.591,3.6226,3.697,3.7289,3.7765,3.8942,3.9295,3.9259,3.8718,0.0,0.0,0.0,3.75,3.8041,3.8379,3.9419,4.0096,4.0096,4.0096,4.0096,4.0096,4.0096,4.0096,4.0096,4.0096,4.0096,4.0096,4.0096,4.0096,4.0096,4.0096,4.0096,4.0096,4.0096,4.0096,4.0096,4.0096,4.0096,4.0096,4.0096,4.0096,4.0096,4.0096,4.0096,4.0096,4.0096,4.0096,4.0096,4.0096,4.0096,4.0096,4.7309,4.7309,4.7309,4.7309,4.7309,4.7309,4.7309,4.7309,4.7309,4.7309,4.7309,4.7309,4.7309,4.7309,4.7309,4.7309,4.7309,4.7309,4.7309,4.7309,4.7309,4.7309,4.7309,4.7309,4.7309,4.7309,4.698,4.6279,4.5633,4.496,4.4302,4.3604,4.329,4.329,4.329,4.329,4.329,4.329,4.329,4.329,4.329,4.329,4.329,4.329,4.329,4.329,4.329,4.326,4.3215,4.3215,4.3185,4.314,4.314,4.2327,4.1347,4.1347,4.0412,3.9373,3.9328,3.8871,3.8227,3.7509,3.742,3.7326,3.6677,3.71,3.7852,3.8563,3.932,3.9862,3.9902,4.0529,4.0333,3.8233,0.0,0.0,3.7834,3.7858,3.8413,3.9791,4.0028,4.0096,4.0096,4.0096,4.0096,4.0096,4.0096,4.0096,4.0096,4.0096,4.0096,4.0096,4.0096,4.0096,4.0096,4.0096,4.0096,4.0096,4.0096,4.0096,4.0096,4.0096,4.0096,4.0096,4.0096,4.0096,4.0096,4.0096,4.0096,4.0096,4.0096,4.0096,4.0096,4.0096,4.0096,4.0096,4.7309,4.7309,4.7309,4.7309,4.7309,4.7309,4.7309,4.7309,4.7309,4.7309,4.7309,4.7309,4.7309,4.7309,4.7309,4.7309,4.7309,4.7309,4.7309,4.7309,4.7309,4.7309,4.7309,4.7309,4.7309,4.7309,4.7189,4.6935,4.6262,4.5589,4.4915,4.4242,4.3678,4.329,4.329,4.329,4.329,4.329,4.329,4.329,4.329,4.329,4.329,4.329,4.329,4.329,4.329,4.329,4.329,4.329,4.329,4.329,4.329,4.2716,4.1871,4.101,4.0127,3.9517,4.006,4.0021,3.9654,3.9014,3.9274,3.9518,3.8867,3.895,3.9403,4.0163,4.0561,4.0899,4.136,4.1667,4.1446,4.0115,0.0,3.98,3.9326,3.9242,3.9462,4.0028,4.0096,4.0096,4.0096,4.0096,4.0096,4.0096,4.0096,4.0096,4.0096,4.0096,4.0096,4.0096,4.0096,4.0096,4.0096,4.0096,4.0096,4.0096,4.0096,4.0096,4.0096,4.0096,4.0096,4.0096,4.0096,4.0096,4.0096,4.0096,4.0096,4.0096,4.0096,4.0096,4.0096,4.0096,4.0096,4.0096,4.7309,4.7309,4.7309,4.7309,4.7309,4.7309,4.7309,4.7309,4.7309,4.7309,4.7309,4.7309,4.7309,4.7309,4.7309,4.7309,4.7309,4.7309,4.7309,4.7309,4.7309,4.7309,4.7309,4.7309,4.7309,4.7309,4.7309,4.7309,4.6651,4.6082,4.5603,4.4721,4.4062,4.3589,4.3379,4.329,4.329,4.329,4.329,4.329,4.329,4.329,4.329,4.329,4.329,4.329,4.329,4.329,4.329,4.329,4.329,4.329,4.329,4.2895,4.2186,4.104,4.0437,4.0254,4.0859,4.1252,4.1304,4.035,4.0753,4.1197,4.0529,4.0557,4.093,4.1742,4.1893,4.2128,4.2881,4.2634,4.2117,4.1627,4.1153,4.0679,4.018,4.0096,4.0096,4.0096,4.0096,4.0096,4.0096,4.0096,4.0096,4.0096,4.0096,4.0096,4.0096,4.0096,4.0096,4.0096,4.0096,4.0096,4.0096,4.0096,4.0096,4.0096,4.0096,4.0096,4.0096,4.0096,4.0096,4.0096,4.0096,4.0096,4.0096,4.0096,4.0096,4.0096,4.0096,4.0096,4.0096,4.0096,4.0096,4.0096,4.7309,4.7309,4.7309,4.7309,4.7309,4.7309,4.7309,4.7309,4.7309,4.7309,4.7309,4.7309,4.7309,4.7309,4.7309,4.7309,4.7309,4.7309,4.7309,4.7309,4.7309,4.7309,4.7309,4.7309,4.7309,4.7309,4.7309,4.7309,4.6651,4.6337,4.6249,4.496,4.4332,4.4287,4.3589,4.329,4.329,4.329,4.329,4.3305,4.329,4.3305,4.3305,4.329,4.329,4.3305,4.329,4.329,4.329,4.329,4.329,4.329,4.329,4.2895,4.2276,4.1617,4.1578,4.1724,4.1724,4.2492,4.2944,4.1383,4.162,4.205,4.137,4.1782,4.2523,4.324,4.3392,4.3656,4.4445,4.3345,4.2286,4.2286,4.1077,4.0096,4.0096,4.0096,4.0096,4.0096,4.0096,4.0096,4.0096,4.0096,4.0096,4.0096,4.0096,4.0096,4.0096,4.0096,4.0096,4.0096,4.0096,4.0096,4.0096,4.0096,4.0096,4.0096,4.0096,4.0096,4.0096,4.0096,4.0096,4.0096,4.0096,4.0096,4.0096,4.0096,4.0096,4.0096,4.0096,4.0096,4.0096,4.0096,4.0096,4.0096,4.7309,4.7309,4.7309,4.7309,4.7309,4.7309,4.7309,4.7309,4.7309,4.7309,4.7309,4.7309,4.7309,4.7309,4.7309,4.7309,4.7309,4.7309,4.7309,4.7309,4.7309,4.7309,4.7309,4.7309,4.7309,4.7309,4.7309,4.7309,4.7115,4.677,4.6264,4.5876,4.5173,4.4302,4.4107,4.3723,4.329,4.329,4.3559,4.3947,4.3484,4.3843,4.4601,4.3648,4.3574,4.3958,4.3469,4.329,4.329,4.329,4.329,4.329,4.329,4.2895,4.2505,4.2952,4.2803,4.2634,4.3378,4.3823,4.3836,4.2869,4.326,4.3838,4.3648,4.3754,4.3988,4.4181,4.4231,4.413,4.3826,4.2963,4.2117,4.161,4.0739,4.0096,4.0096,4.0096,4.0096,4.0096,4.0096,4.0096,4.0096,4.0096,4.0096,4.0096,4.0096,4.0096,4.0096,4.0096,4.0096,4.0096,4.0096,4.0096,4.0096,4.0096,4.0096,4.0096,4.0096,4.0096,4.0096,4.0096,4.0096,4.0096,4.0096,4.0096,4.0096,4.0096,4.0096,4.0096,4.0096,4.0096,4.0096,4.0096,4.0096,4.0096,4.7309,4.7309,4.7309,4.7309,4.7309,4.7309,4.7309,4.7309,4.7309,4.7309,4.7309,4.7309,4.7309,4.7309,4.7309,4.7309,4.7309,4.7309,4.7309,4.7309,4.7309,4.7309,4.7309,4.7309,4.7309,4.7309,4.7309,4.7309,4.7309,4.71,4.6711,4.6399,4.5888,4.5095,4.4825,4.4481,4.4107,4.4107,4.4347,4.4661,4.4272,4.4586,4.5214,4.4407,4.4197,4.4272,4.3828,4.3514,4.329,4.329,4.329,4.3369,4.3786,4.3654,4.3533,4.446,4.4496,4.4413,4.5062,4.5069,4.4797,4.4364,4.4414,4.4615,4.4615,4.4615,4.4615,4.4615,4.4615,4.4462,4.3961,4.2997,4.2151,4.1711,4.0764,4.0096,4.0096,4.0096,4.0096,4.0096,4.0096,4.0096,4.0096,4.0096,4.0096,4.0096,4.0096,4.0096,4.0096,4.0096,4.0096,4.0096,4.0096,4.0096,4.0096,4.0096,4.0096,4.0096,4.0096,4.0096,4.0096,4.0096,4.0096,4.0096,4.0096,4.0096,4.0096,4.0096,4.0096,4.0096,4.0096,4.0096,4.0096,4.0096,4.0096,4.0096,4.7309,4.7309,4.7309,4.7309,4.7309,4.7309,4.7309,4.7309,4.7309,4.7309,4.7309,4.7309,4.7309,4.7309,4.7309,4.7309,4.7309,4.7309,4.7309,4.7309,4.7309,4.7309,4.7309,4.7309,4.7309,4.7309,4.7309,4.7309,4.7309,4.7309,4.7294,4.6696,4.6339,4.6249,4.5663,4.5349,4.5289,4.5289,4.5334,4.5379,4.5319,4.5364,4.5469,4.5349,4.496,4.4481,4.4362,4.3888,4.3364,4.3319,4.3369,4.3591,4.451,4.4849,4.5116,4.6048,4.6463,4.6617,4.6616,4.6252,4.5889,4.5821,4.5229,4.4682,4.4632,4.4615,4.4615,4.4615,4.4615,4.4615,4.4615,4.3369,4.2371,4.2303,4.1128,4.018,4.0113,4.0096,4.0096,4.0096,4.0096,4.0096,4.0096,4.0096,4.0096,4.0096,4.0096,4.0096,4.0096,4.0096,4.0096,4.0096,4.0096,4.0096,4.0096,4.0096,4.0096,4.0096,4.0096,4.0096,4.0096,4.0096,4.0096,4.0096,4.0096,4.0096,4.0096,4.0096,4.0096,4.0096,4.0096,4.0096,4.0096,4.0096,4.0096,4.0096,4.7309,4.7309,4.7309,4.7309,4.7309,4.7309,4.7309,4.7309,4.7309,4.7309,4.7309,4.7309,4.7309,4.7309,4.7309,4.7309,4.7309,4.7309,4.7309,4.7309,4.7309,4.7309,4.7309,4.7309,4.7309,4.7309,4.7309,4.7309,4.7309,4.7309,4.7309,4.716,4.6815,4.6264,4.6172,4.5798,4.5289,4.5289,4.5603,4.6052,4.5514,4.5918,4.6756,4.5693,4.5544,4.5753,4.4691,4.4227,4.4018,4.3469,4.381,4.451,4.4737,4.5285,4.6083,4.702,4.7341,4.7423,4.7544,4.7514,4.7293,4.6701,4.6007,4.5314,4.4733,4.4615,4.4615,4.4615,4.4615,4.4615,4.4615,4.3809,4.298,4.2388,4.1542,4.0747,4.018,4.0096,4.0096,4.0096,4.0096,4.0096,4.0096,4.0096,4.0096,4.0096,4.0096,4.0096,4.0096,4.0096,4.0096,4.0096,4.0096,4.0096,4.0096,4.0096,4.0096,4.0096,4.0096,4.0096,4.0096,4.0096,4.0096,4.0096,4.0096,4.0096,4.0096,4.0096,4.0096,4.0096,4.0096,4.0096,4.0096,4.0096,4.0096,4.0096,4.7309,4.7309,4.7309,4.7309,4.7309,4.7309,4.7309,4.7309,4.7309,4.7309,4.7309,4.7309,4.7309,4.7309,4.7309,4.7309,4.7309,4.7309,4.7309,4.7309,4.7309,4.7309,4.7309,4.7309,4.7309,4.7309,4.7309,4.7309,4.7309,4.7309,4.7309,4.7309,4.7115,4.68,4.68,4.6591,4.6247,4.6247,4.6456,4.6756,4.6396,4.6681,4.7219,4.6516,4.6277,4.619,4.5529,4.4855,4.4212,4.3514,4.3966,4.4871,4.5322,4.6119,4.7054,4.7982,4.8257,4.8286,4.8405,4.8159,4.7804,4.7428,4.6769,4.6024,4.528,4.4869,4.4615,4.4615,4.4615,4.4615,4.4615,4.3944,4.3139,4.2422,4.1677,4.0933,4.0214,4.0096,4.0096,4.0096,4.0096,4.0096,4.0096,4.0096,4.0096,4.0096,4.0096,4.0096,4.0096,4.0096,4.0096,4.0096,4.0096,4.0096,4.0096,4.0096,4.0096,4.0096,4.0096,4.0096,4.0096,4.0096,4.0096,4.0096,4.0096,4.0096,4.0096,4.0096,4.0096,4.0096,4.0096,4.0096,4.0096,4.0096,4.0096,4.0096,4.7309,4.7309,4.7309,4.7309,4.7309,4.7309,4.7309,4.7467,4.7495,4.7309,4.7452,4.7495,4.7309,4.7309,4.7309,4.7309,4.7309,4.7309,4.7309,4.7309,4.7309,4.7309,4.7309,4.7309,4.7309,4.7309,4.7309,4.7309,4.7309,4.7309,4.7309,4.7309,4.7309,4.7309,4.7309,4.7309,4.7309,4.7309,4.7309,4.7309,4.7309,4.7309,4.7309,4.7309,4.6965,4.6471,4.6324,4.5522,4.4464,4.3944,4.4457,4.5395,4.6189,4.7088,4.7982,4.875,4.9001,4.9001,4.9001,4.8562,4.8075,4.8075,4.753,4.6819,4.6227,4.5399,4.4801,4.4801,4.4699,4.4615,4.4615,4.4045,4.3369,4.2608,4.1863,4.1119,4.04,4.018,4.0096,4.0096,4.0096,4.0096,4.0096,4.0096,4.0096,4.0096,4.0096,4.0096,4.0096,4.0096,4.0096,4.0096,4.0096,4.0096,4.0096,4.0096,4.0096,4.0096,4.0096,4.0096,4.0096,4.0096,4.0096,4.0096,4.0096,4.0096,4.0096,4.0096,4.0096,4.0096,4.0096,4.0096,4.0096,4.0096,4.0096,4.0096,4.7309,4.7309,4.7309,4.7309,4.7309,4.7309,4.7309,4.803,4.8293,4.7409,4.8072,4.8252,4.7381,4.7309,4.7309,4.7309,4.7309,4.7309,4.7309,4.7309,4.7309,4.7309,4.7309,4.7309,4.7309,4.7309,4.7309,4.7309,4.7309,4.7309,4.7309,4.7309,4.7309,4.7309,4.7309,4.7309,4.7309,4.7309,4.7309,4.7309,4.7309,4.7309,4.7309,4.7309,4.7249,4.71,4.6488,4.597,4.5549,4.573,4.6419,4.7239,4.7373,4.8047,4.8829,4.897,4.9001,4.9001,4.9001,4.8934,4.8849,4.8849,4.8308,4.775,4.7618,4.6549,4.5551,4.5551,4.5026,4.4615,4.4615,4.4513,4.4164,4.3386,4.2642,4.188,4.1153,4.0493,4.0096,4.0096,4.0096,4.0096,4.0096,4.0096,4.0096,4.0096,4.0096,4.0096,4.0096,4.0096,4.0096,4.0096,4.0096,4.0096,4.0096,4.0096,4.0096,4.0096,4.0096,4.0096,4.0096,4.0096,4.0096,4.0096,4.0096,4.0096,4.0096,4.0096,4.0096,4.0096,4.0096,4.0096,4.0096,4.0096,4.0096,4.0096,4.7309,4.7309,4.7309,4.7309,4.7309,4.7309,4.7309,4.8141,4.8636,4.8183,4.9044,4.9496,4.9085,4.8501,4.7919,4.7337,4.7309,4.7538,4.8099,4.7609,4.7807,4.8963,4.846,4.8418,4.9019,4.9044,4.9044,4.9044,4.7892,4.7309,4.7309,4.7309,4.7309,4.7309,4.7309,4.7309,4.7309,4.7309,4.7309,4.7309,4.7309,4.7309,4.7309,4.7309,4.7309,4.7291,4.7202,4.7143,4.7119,4.6897,4.714,4.7589,4.7589,4.8257,4.9001,4.9001,4.9001,4.9001,4.9001,4.9001,4.9001,4.9001,4.8765,4.8528,4.8528,4.7699,4.6718,4.5872,4.5449,4.5077,4.4682,4.4615,4.4333,4.3511,4.3149,4.2658,4.1914,4.117,4.0544,4.0146,4.0096,4.0096,4.0096,4.0096,4.0096,4.0096,4.0096,4.0096,4.0096,4.0096,4.0096,4.0096,4.0096,4.0096,4.0096,4.0096,4.0096,4.0096,4.0096,4.0096,4.0096,4.0096,4.0096,4.0096,4.0096,4.0096,4.0096,4.0096,4.0096,4.0096,4.0096,4.0096,4.0096,4.0096,4.0096,4.0096]}]]